Date StartTime U_cm/s V_cm/s W_cm/s Ustd_cm/s Vstd_cm/s Wstd_cm/s Uvar_(cm/s)^2 Vvar_(cm/s)^2 Wvar_(cm/s)^2 KE_(m/s)^2 TurbulentKE_(m/s)^2 HorizWindSpeed_cm/s FrictionSpeec_cm/s DragCoef SpeedOfSound_m/s SonicTemperature_C Pressure_mb 
01/09/2014  00:00:00      -44.639      -29.007       -8.972       40.972       26.296       15.822     1678.737      691.462      250.327        0.277        0.131       53.236        6.465        0.015      335.331        5.893      862.122
01/09/2014  00:01:00      -10.536      -28.256        6.324       32.981       30.859       15.188     1087.747      952.286      230.677        0.161        0.114       30.157       14.195        0.222      335.334        5.898      862.106
01/09/2014  00:02:00       22.661       24.181       27.188       18.375       17.099       13.458      337.628      292.361      181.120        0.132        0.041       33.139        7.586        0.052      335.342        5.911      862.072
01/09/2014  00:03:00      -37.542      -14.591        5.192       39.951       21.210       18.221     1596.118      449.849      332.018        0.201        0.119       40.278       25.205        0.392      335.281        5.810      862.077
01/09/2014  00:04:00      -62.010      -62.513        1.919       51.892       40.308       29.456     2692.746     1624.733      867.669        0.647        0.259       88.052       28.158        0.102      335.034        5.400      862.096
01/09/2014  00:05:00      -72.594      -61.661       -2.340       36.813       40.611       23.224     1355.211     1649.288      539.358        0.631        0.177       95.247       18.174        0.036      335.291        5.825      862.107
01/09/2014  00:06:00        2.924       -4.820       -4.710       19.877       18.405       21.087      395.109      338.758      444.658        0.062        0.059        5.637       13.047        5.356      335.511        6.194      862.091
01/09/2014  00:07:00      -17.617       -9.132        0.042       26.583       25.529       12.276      706.658      651.753      150.706        0.095        0.075       19.843       12.940        0.425      335.494        6.165      862.062
01/09/2014  00:08:00       -0.387       21.097       44.780       21.714       36.481       23.037      471.517     1330.856      530.705        0.239        0.117       21.100       25.030        1.407      335.378        5.970      862.022
01/09/2014  00:09:00      -40.714        7.711        9.190       50.549       28.114       26.271     2555.230      790.414      690.185        0.292        0.202       41.437       23.101        0.311      335.340        5.906      862.022
01/09/2014  00:10:00      -57.537       -0.779       -1.840       33.916       41.604       14.038     1150.300     1730.926      197.070        0.320        0.154       57.542       15.455        0.072      335.403        6.014      862.014
01/09/2014  00:11:00      -55.183      -65.511        1.843       49.000       39.848       25.719     2401.009     1587.865      661.464        0.599        0.233       85.655       15.757        0.034      335.224        5.717      862.000
01/09/2014  00:12:00       77.679       56.361       34.096       58.571       57.746       33.895     3430.593     3334.548     1148.867        0.914        0.396       95.972       47.025        0.240      335.816        6.701      861.974
01/09/2014  00:13:00       58.154       44.697       13.237       34.637       33.101       30.402     1199.716     1095.656      924.284        0.439        0.161       73.346       21.596        0.087      335.444        6.081      861.948
01/09/2014  00:14:00       -4.215        6.945       -8.703       40.185       48.278       17.441     1614.845     2330.788      304.193        0.220        0.212        8.124       18.442        5.153      335.456        6.101      861.946
01/09/2014  00:15:00      -54.182       18.964       -7.744       23.944       34.703       15.103      573.314     1204.289      228.100        0.268        0.100       57.405       12.044        0.044      335.359        5.939      861.936
01/09/2014  00:16:00      -44.732       56.609      -16.829       26.359       28.811       11.734      694.778      830.055      137.692        0.358        0.083       72.150        9.006        0.016      335.672        6.463      861.917
01/09/2014  00:17:00       51.754       69.479        0.600       51.391       20.756       18.723     2641.002      430.812      350.538        0.546        0.171       86.636       18.627        0.046      335.782        6.645      861.908
01/09/2014  00:18:00       88.656       53.384        4.424       23.086       21.990       12.004      532.973      483.542      144.089        0.594        0.058      103.488        7.998        0.006      335.882        6.810      861.895
01/09/2014  00:19:00       63.283       33.001       17.501       34.982       22.218       20.410     1223.755      493.640      416.566        0.377        0.107       71.371       10.280        0.021      335.773        6.629      861.882
01/09/2014  00:20:00       38.390       20.705       -6.096       43.102       19.303       13.677     1857.796      372.590      187.073        0.218        0.121       43.618        5.824        0.018      335.707        6.521      861.894
01/09/2014  00:21:00       13.486       80.076       -8.208       16.694       18.989       15.256      278.678      360.569      232.747        0.377        0.044       81.204       10.581        0.017      335.565        6.285      861.889
01/09/2014  00:22:00       26.066       85.391      -14.003       20.571       19.702       10.421      423.180      388.168      108.589        0.454        0.046       89.281        6.803        0.006      335.488        6.156      861.868
01/09/2014  00:23:00       34.850       49.301        2.026       25.652       23.703       20.640      658.040      561.849      426.010        0.265        0.082       60.375       15.143        0.063      335.570        6.291      861.857
01/09/2014  00:24:00       23.476       47.685        2.636       17.045       21.696       16.427      290.547      470.738      269.832        0.193        0.052       53.151       10.343        0.038      335.491        6.161      861.849
01/09/2014  00:25:00       13.168       47.447       -2.081       16.650       26.185       12.225      277.225      685.648      149.442        0.177        0.056       49.240       14.040        0.081      335.692        6.495      861.846
01/09/2014  00:26:00      -22.237       68.054      -14.198       33.830       38.483       16.660     1144.470     1480.904      277.556        0.411        0.145       71.595       17.001        0.056      335.663        6.449      861.880
01/09/2014  00:27:00       -8.621       20.053        3.345       19.641       27.197       11.324      385.783      739.653      128.232        0.087        0.063       21.828       10.257        0.221      335.674        6.465      861.870
01/09/2014  00:28:00       33.343       75.162       -1.356       27.882       44.022       28.795      777.417     1937.901      829.175        0.515        0.177       82.226       28.101        0.117      335.850        6.759      861.835
01/09/2014  00:29:00       43.373       87.604       -8.102       36.640       48.603       25.888     1342.480     2362.269      670.193        0.700        0.219       97.753       30.365        0.096      335.842        6.745      861.801
01/09/2014  00:30:00       30.100       69.763       -7.197       31.460       32.989       21.527      989.729     1088.251      463.431        0.418        0.127       75.979       18.601        0.060      335.790        6.659      861.775
01/09/2014  00:31:00       35.361       54.705       -0.269       32.373       29.209       24.034     1048.039      853.161      577.650        0.336        0.124       65.139       14.838        0.052      335.869        6.791      861.732
01/09/2014  00:32:00       45.527       29.354        6.608       19.412       16.607       18.023      376.835      275.778      324.813        0.198        0.049       54.170       10.601        0.038      335.867        6.787      861.714
01/09/2014  00:33:00      -16.867        7.796       -1.343       24.001       22.524       10.927      576.033      507.331      119.395        0.077        0.060       18.582        9.839        0.280      335.793        6.662      861.698
01/09/2014  00:34:00      -36.765       12.180      -14.549       31.396       33.411       16.997      985.707     1116.314      288.910        0.205        0.120       38.730       13.828        0.127      335.681        6.477      861.698
01/09/2014  00:35:00      -65.060      -24.647      -10.567       11.375       10.335        8.642      129.388      106.808       74.687        0.263        0.016       69.572        5.008        0.005      335.215        5.703      861.724
01/09/2014  00:36:00      -38.564       -0.861       -8.968       10.537       10.017        4.585      111.021      100.349       21.019        0.090        0.012       38.574        2.871        0.006      335.324        5.881      861.755
01/09/2014  00:37:00       -5.304       23.656      -10.936       23.870       24.690        7.738      569.798      609.618       59.872        0.097        0.062       24.243        5.837        0.058      335.711        6.526      861.755
01/09/2014  00:38:00        0.551       96.203      -15.935       21.556       31.346       10.164      464.672      982.580      103.298        0.553        0.078       96.205        8.226        0.007      336.055        7.099      861.728
01/09/2014  00:39:00       36.720       79.864       -4.407       22.220       37.281       24.274      493.724     1389.891      589.227        0.511        0.124       87.901       23.831        0.074      336.231        7.393      861.675
01/09/2014  00:40:00      118.633       63.111       12.958       42.449       23.533       21.579     1801.911      553.781      465.634        1.052        0.141      134.375       11.138        0.007      335.971        6.960      861.630
01/09/2014  00:41:00      160.161       65.964       24.561       46.880       31.412       36.045     2197.706      986.709     1299.231        1.754        0.224      173.213       27.004        0.024      335.799        6.672      861.594
01/09/2014  00:42:00      192.104       95.554       21.117       61.324       50.057       39.910     3760.627     2505.672     1592.816        2.717        0.393      214.557       21.887        0.010      335.979        6.970      861.590
01/09/2014  00:43:00      155.900       56.788       11.335       69.323       56.582       32.385     4805.684     3201.500     1048.793        1.836        0.453      165.921       19.009        0.013      336.444        7.748      861.597
01/09/2014  00:44:00      112.586       64.873       29.970       45.011       35.554       29.637     2026.008     1264.071      878.359        1.097        0.208      129.939       24.719        0.036      336.164        7.284      861.587
01/09/2014  00:45:00       99.485       40.559       21.407       42.104       34.467       29.056     1772.741     1187.982      844.242        0.790        0.190      107.435       22.298        0.043      336.045        7.082      861.592
01/09/2014  00:46:00       34.495       30.117       21.527       35.625       18.172       18.184     1269.127      330.237      330.643        0.224        0.097       45.793        8.114        0.031      335.903        6.846      861.605
01/09/2014  00:47:00       34.121       24.001        9.663       23.426       24.189       13.125      548.785      585.093      172.261        0.157        0.065       41.717        9.334        0.050      335.761        6.610      861.598
01/09/2014  00:48:00       -0.578       54.122      -12.103       41.261       25.007       14.903     1702.469      625.366      222.109        0.281        0.127       54.126       11.306        0.044      335.709        6.524      861.608
01/09/2014  00:49:00      -51.379       87.051      -18.845       20.987       34.604       14.357      440.441     1197.471      206.123        0.621        0.092      101.082       14.425        0.020      335.949        6.923      861.588
01/09/2014  00:50:00      -65.597      133.303      -23.070       36.591       50.254       25.294     1338.908     2525.457      639.798        1.355        0.225      148.568       21.835        0.022      336.059        7.107      861.583
01/09/2014  00:51:00      -14.641      160.435      -18.104       30.552       45.919       19.965      933.441     2108.551      398.584        1.486        0.172      161.102       21.283        0.017      336.333        7.563      861.612
01/09/2014  00:52:00      -11.376      181.462      -19.278       29.441       47.174       22.998      866.761     2225.392      528.894        1.852        0.181      181.818       14.186        0.006      336.301        7.510      861.659
01/09/2014  00:53:00       26.098      173.893      -28.574       43.967       57.645       26.605     1933.133     3322.932      707.807        1.885        0.298      175.840       30.598        0.030      336.131        7.225      861.710
01/09/2014  00:54:00       53.636      138.423       -9.290       48.354       56.573       37.108     2338.155     3200.511     1377.013        1.452        0.346      148.452       31.111        0.044      336.088        7.154      861.734
01/09/2014  00:55:00       69.226      169.035      -14.884       60.864      113.575       51.530     3704.469    12899.263     2655.304        2.642        0.963      182.661       62.718        0.118      336.329        7.556      861.729
01/09/2014  00:56:00      110.160      227.337      -21.959      103.068       95.203       55.791    10623.060     9063.665     3112.673        4.355        1.140      252.621       61.578        0.059      336.805        8.349      861.777
01/09/2014  00:57:00      235.730      118.172       17.170       57.697       52.249       54.074     3328.898     2729.945     2923.956        3.940        0.449      263.692       36.408        0.019      336.716        8.200      861.766
01/09/2014  00:58:00      126.514       84.377       58.475       66.447       65.659       60.588     4415.198     4311.168     3670.867        1.947        0.620      152.069       45.907        0.091      336.459        7.773      861.737
01/09/2014  00:59:00       67.140       50.388       21.655       35.194       46.880       31.762     1238.591     2197.729     1008.793        0.598        0.222       83.945       15.531        0.034      336.596        8.005      861.739
01/09/2014  01:00:00       -1.656       85.753      -10.869       37.473       41.145       24.098     1404.240     1692.886      580.705        0.558        0.184       85.769       15.160        0.031      336.780        8.314      861.750
01/09/2014  01:01:00       -6.138      282.646      -43.307       58.352      109.470       24.385     3404.976    11983.581      594.636        4.889        0.799      282.712       36.859        0.017      336.695        8.166      861.785
01/09/2014  01:02:00       -0.945      170.250      -18.530      106.902       76.513       43.429    11428.018     5854.278     1886.073        2.425        0.958      170.252       38.394        0.051      336.669        8.123      861.787
01/09/2014  01:03:00      114.013      140.612       -1.275       73.723       69.887       58.464     5435.118     4884.243     3418.010        2.325        0.687      181.027       39.393        0.047      336.730        8.226      861.725
01/09/2014  01:04:00       80.610      207.476      -14.489       74.229      102.547       64.203     5510.014    10515.947     4121.969        3.495        1.007      222.585       62.012        0.078      336.869        8.457      861.715
01/09/2014  01:05:00       65.407      135.655      -17.211       52.301       45.467       33.378     2735.413     2067.245     1114.115        1.445        0.296      150.600       29.104        0.037      336.998        8.676      861.761
01/09/2014  01:06:00      155.448       83.880       36.209       72.364       48.776       41.051     5236.591     2379.137     1685.186        2.090        0.465      176.634       25.421        0.021      336.784        8.316      861.754
01/09/2014  01:07:00      112.682      134.539      109.969      137.249       61.788       87.190    18837.385     3817.720     7602.140        3.657        1.513      175.494       93.571        0.284      336.672        8.127      861.707
01/09/2014  01:08:00       65.964       91.227       97.086      112.463       63.925       82.011    12647.913     4086.403     6725.774        2.278        1.173      112.577       80.091        0.506      336.753        8.265      861.678
01/09/2014  01:09:00       69.065       73.184        6.916      132.528       53.587       39.603    17563.697     2871.517     1568.369        1.609        1.100      100.628       43.814        0.190      336.995        8.669      861.680
01/09/2014  01:10:00      -61.833      156.768      -29.571       60.872       44.635       30.330     3705.443     1992.246      919.887        1.794        0.331      168.521       30.690        0.033      336.672        8.129      861.674
01/09/2014  01:11:00       38.461      111.442      -14.698       25.346       39.492       21.332      642.434     1559.657      455.047        0.839        0.133      117.892       23.232        0.039      336.851        8.431      861.629
01/09/2014  01:12:00       10.319      194.700      -29.483       21.374       48.824       19.424      456.848     2383.737      377.296        2.105        0.161      194.973       21.572        0.012      336.896        8.505      861.651
01/09/2014  01:13:00       25.924      187.616      -30.929       33.482       89.165       26.666     1121.047     7950.459      711.065        2.330        0.489      189.399       37.540        0.039      336.857        8.438      861.658
01/09/2014  01:14:00       37.884       54.748       -5.063       39.760       30.217       34.282     1580.880      913.080     1175.254        0.406        0.183       66.577       22.425        0.113      336.944        8.585      861.637
01/09/2014  01:15:00       -5.577       85.799       -9.360       40.793       50.388       24.765     1664.109     2538.935      613.309        0.615        0.241       85.980       23.558        0.075      336.952        8.596      861.650
01/09/2014  01:16:00       17.333      155.280      -24.183       30.078       40.483       25.879      904.672     1638.878      669.739        1.410        0.161      156.244       26.174        0.028      336.923        8.550      861.641
01/09/2014  01:17:00       14.874       71.054       -7.586       19.826       44.182       19.920      393.088     1952.017      396.802        0.403        0.137       72.595       22.103        0.093      336.938        8.574      861.617
01/09/2014  01:18:00       14.721      129.472      -24.143       32.635       32.652       18.430     1065.052     1066.144      339.681        1.002        0.124      130.306       20.334        0.024      336.773        8.301      861.635
01/09/2014  01:19:00        9.352      138.632      -23.794       40.144       62.035       38.891     1611.504     3848.302     1512.499        1.342        0.349      138.947       40.953        0.087      336.649        8.093      861.627
01/09/2014  01:20:00       12.614      134.504      -25.895       30.432       39.020       20.188      926.096     1522.532      407.546        1.089        0.143      135.094       19.831        0.022      336.648        8.092      861.651
01/09/2014  01:21:00       22.228      146.927      -25.625       40.410       38.617       28.508     1632.997     1491.261      812.681        1.334        0.197      148.599       23.469        0.025      336.873        8.467      861.654
01/09/2014  01:22:00      -31.150       84.850      -17.705       34.179       30.020       16.528     1168.212      901.171      273.169        0.541        0.117       90.387        9.262        0.011      336.878        8.474      861.690
01/09/2014  01:23:00        4.242       86.672       -8.389       18.498       33.499       16.748      342.183     1122.189      280.506        0.467        0.087       86.775       19.999        0.053      336.842        8.414      861.716
01/09/2014  01:24:00       13.672       76.767       -0.768       54.161       48.561       37.231     2933.374     2358.212     1386.158        0.638        0.334       77.975       32.891        0.178      336.806        8.355      861.741
01/09/2014  01:25:00      -53.730      110.404      -14.328       41.146       52.489       25.133     1693.009     2755.131      631.656        1.018        0.254      122.785       27.046        0.049      336.894        8.502      861.764
01/09/2014  01:26:00      -34.744      169.690      -18.712       45.187       65.243       27.293     2041.861     4256.672      744.915        1.870        0.352      173.210       25.286        0.021      336.974        8.635      861.772
01/09/2014  01:27:00      -62.782      148.892      -21.384       40.021       66.795       31.593     1601.655     4461.600      998.116        1.681        0.353      161.587       37.688        0.054      337.092        8.831      861.777
01/09/2014  01:28:00      -14.316      118.494       -9.006       55.364       58.966       29.577     3065.203     3477.024      874.812        1.087        0.371      119.356       28.080        0.055      336.909        8.527      861.795
01/09/2014  01:29:00       -8.798      153.290      -18.438       46.805       64.602       39.834     2190.677     4173.433     1586.732        1.593        0.398      153.542       36.554        0.057      337.007        8.690      861.788
01/09/2014  01:30:00       66.957       86.052       -0.391       88.799       78.151       39.626     7885.329     6107.569     1570.231        1.372        0.778      109.033       36.813        0.114      336.935        8.569      861.706
01/09/2014  01:31:00       -6.015      160.434      -20.801       47.361       64.990       39.327     2243.045     4223.734     1546.636        1.711        0.401      160.547       39.537        0.061      337.018        8.708      861.678
01/09/2014  01:32:00       -6.142      181.740       -8.017       56.866       66.248       47.273     3233.798     4388.804     2234.715        2.149        0.493      181.844       40.949        0.051      336.907        8.521      861.655
01/09/2014  01:33:00        1.011      176.475      -20.411       46.699       55.588       31.219     2180.779     3090.037      974.622        1.890        0.312      176.477       26.845        0.023      336.928        8.555      861.663
01/09/2014  01:34:00      -99.279      129.930      -10.424       84.867       99.239       32.815     7202.466     9848.350     1076.797        2.248        0.906      163.518       31.911        0.038      337.056        8.770      861.663
01/09/2014  01:35:00       36.756      172.472      -15.628       41.194       75.712       46.338     1696.922     5732.338     2147.195        2.046        0.479      176.345       43.094        0.060      336.954        8.600      861.672
01/09/2014  01:36:00      -31.098      134.741      -28.141       69.997       77.136       37.352     4899.543     5949.891     1395.179        1.608        0.612      138.283       35.476        0.066      337.000        8.677      861.694
01/09/2014  01:37:00     -151.670      137.826      -37.595       67.928       47.887       34.466     4614.259     2293.165     1187.871        2.575        0.405      204.939       34.856        0.029      337.132        8.899      861.736
01/09/2014  01:38:00      -74.431      172.017      -39.715       92.232       54.095       24.146     8506.751     2926.282      583.023        2.436        0.601      187.430       24.173        0.017      337.028        8.722      861.740
01/09/2014  01:39:00       34.022      129.535      -14.732       38.768       73.620       36.773     1502.993     5419.853     1352.263        1.321        0.414      133.928       39.779        0.088      336.948        8.592      861.731
01/09/2014  01:40:00       42.740       68.501       -5.113       49.455       49.156       33.559     2445.752     2416.291     1126.204        0.627        0.299       80.741       32.034        0.157      336.827        8.391      861.705
01/09/2014  01:41:00       -0.808      148.726      -15.251       32.473       51.516       19.592     1054.471     2653.894      383.835        1.322        0.205      148.729       16.643        0.013      336.891        8.495      861.689
01/09/2014  01:42:00      -51.457      185.902      -22.639       38.719       37.157       21.319     1499.125     1380.669      454.505        2.053        0.167      192.892       16.096        0.007      337.018        8.707      861.660
01/09/2014  01:43:00     -238.033       45.906      -36.242       84.934      142.836       49.283     7213.807    20402.150     2428.832        4.506        1.502      242.419       62.018        0.065      337.079        8.808      861.622
01/09/2014  01:44:00     -146.533      128.997      -31.408       77.424       74.311       40.031     5994.541     5522.152     1602.479        2.611        0.656      195.223       36.360        0.035      337.185        8.989      861.608
01/09/2014  01:45:00      -92.586       48.903       -1.973       88.050      104.093       39.274     7752.814    10835.360     1542.423        1.555        1.007      104.707       46.677        0.199      337.088        8.826      861.626
01/09/2014  01:46:00      -24.379       67.700       -4.510       29.073       53.389       29.779      845.238     2850.393      886.810        0.489        0.229       71.956       27.445        0.145      337.127        8.892      861.619
01/09/2014  01:47:00     -137.380        6.270      -23.391       43.995       29.643       24.237     1935.565      878.720      587.437        1.143        0.170      137.523       22.955        0.028      337.060        8.778      861.609
01/09/2014  01:48:00     -120.750       37.920      -13.592       33.751       27.796       20.626     1139.160      772.619      425.434        0.927        0.117      126.564        8.480        0.004      336.966        8.620      861.589
01/09/2014  01:49:00      -79.384        4.884       -7.244       30.150       32.648       11.617      909.019     1065.922      134.954        0.424        0.105       79.534        8.740        0.012      336.915        8.537      861.596
01/09/2014  01:50:00      -26.039        3.549       -3.241       26.401       14.384        9.817      697.038      206.913       96.380        0.085        0.050       26.280        8.277        0.099      336.886        8.487      861.577
01/09/2014  01:51:00      -60.433       27.583      -11.946       37.726       15.800       12.513     1423.272      249.650      156.572        0.319        0.091       66.430        6.681        0.010      336.956        8.604      861.563
01/09/2014  01:52:00      -80.006       25.607      -15.856       28.737       27.097       12.641      825.838      734.225      159.799        0.451        0.086       84.004       10.336        0.015      337.047        8.754      861.554
01/09/2014  01:53:00      -87.599       23.426      -19.128       28.693       26.247       16.357      823.296      688.893      267.548        0.518        0.089       90.677       11.167        0.015      336.988        8.657      861.525
01/09/2014  01:54:00       -4.079      -15.255      -10.520       21.442       18.713       11.347      459.778      350.176      128.763        0.065        0.047       15.791       10.588        0.450      336.953        8.598      861.460
01/09/2014  01:55:00        7.862       16.960        3.065       15.755       10.738       11.802      248.207      115.313      139.296        0.043        0.025       18.694        6.961        0.139      336.878        8.477      861.419
01/09/2014  01:56:00       23.282       45.988       -1.220       23.361       31.366       13.504      545.735      983.813      182.359        0.218        0.086       51.546        9.807        0.036      336.886        8.486      861.418
01/09/2014  01:57:00       36.584      110.923      -20.635       18.281       24.649       14.331      334.193      607.578      205.376        0.761        0.057      116.800        8.692        0.006      336.983        8.650      861.411
01/09/2014  01:58:00       35.952       53.168       -9.902       35.836       37.866       20.218     1284.186     1433.826      408.786        0.367        0.156       64.182       21.180        0.109      336.885        8.488      861.430
01/09/2014  01:59:00       52.529       46.609        6.920       26.460       23.254       20.886      700.128      540.731      436.218        0.333        0.084       70.226       15.168        0.047      336.855        8.436      861.441
01/09/2014  02:00:00       49.630       40.278        4.392       20.999       20.124       16.975      440.966      404.964      288.150        0.262        0.057       63.918       12.432        0.038      336.840        8.413      861.457
01/09/2014  02:01:00       59.725       48.930        6.957       16.996       17.216       14.257      288.856      296.395      203.254        0.340        0.039       77.209        8.312        0.012      336.916        8.538      861.462
01/09/2014  02:02:00       73.493       46.347       -1.510       36.148       21.567       17.761     1306.645      465.157      315.446        0.482        0.104       86.887       15.568        0.032      336.885        8.487      861.464
01/09/2014  02:03:00       51.001       64.731       -2.010       31.225       30.319       19.873      975.004      919.213      394.922        0.454        0.114       82.409       18.095        0.048      336.859        8.444      861.500
01/09/2014  02:04:00       46.771      132.624      -20.512       24.751       36.341       26.375      612.634     1320.687      695.635        1.141        0.131      140.629       22.415        0.025      336.960        8.610      861.541
01/09/2014  02:05:00       86.611       79.225        0.499       49.245       42.930       24.876     2425.039     1842.953      618.816        0.933        0.244      117.380       22.999        0.038      336.922        8.548      861.548
01/09/2014  02:06:00       52.716       77.555       -0.295       43.968       53.085       36.649     1933.151     2818.002     1343.147        0.744        0.305       93.775       34.474        0.135      336.741        8.248      861.570
01/09/2014  02:07:00       48.787      111.990      -19.889       38.797       47.784       28.453     1505.186     2283.354      809.592        0.996        0.230      122.156       28.214        0.053      336.732        8.231      861.592
01/09/2014  02:08:00       32.559       91.416      -24.816       61.389       71.854       28.237     3768.572     5163.051      797.330        0.988        0.486       97.041       31.940        0.108      337.059        8.778      861.554
01/09/2014  02:09:00       89.858       46.957        4.178       36.159       28.208       28.085     1307.446      795.719      788.777        0.659        0.145      101.387       16.490        0.026      336.953        8.600      861.525
01/09/2014  02:10:00       46.525      159.179      -14.192       35.656       69.628       35.177     1271.343     4848.055     1237.442        1.753        0.368      165.839       36.594        0.049      336.736        8.237      861.526
01/09/2014  02:11:00      143.642       84.787      -15.777       48.802       78.531       37.083     2381.642     6167.160     1375.124        1.900        0.496      166.799       33.420        0.040      337.020        8.711      861.528
01/09/2014  02:12:00       43.604       48.846       -2.889       36.147       48.331       33.127     1306.642     2335.876     1097.412        0.452        0.237       65.477       21.559        0.108      336.799        8.344      861.514
01/09/2014  02:13:00      -14.133      120.437      -23.530       44.944       36.257       19.678     2019.952     1314.582      387.223        0.949        0.186      121.263       20.274        0.028      336.839        8.410      861.547
01/09/2014  02:14:00       53.633       82.128       -1.010       41.193       38.321       19.524     1696.886     1468.470      381.184        0.658        0.177       98.089       22.137        0.051      336.801        8.346      861.556
01/09/2014  02:15:00      111.338       73.894       11.673       42.970       26.757       27.061     1846.392      715.913      732.315        1.064        0.165      133.628       10.763        0.006      336.749        8.262      861.507
01/09/2014  02:16:00       94.956       60.989        5.393       43.675       34.633       27.391     1907.465     1199.438      750.273        0.831        0.193      112.855       19.926        0.031      336.685        8.154      861.475
01/09/2014  02:17:00      127.495       90.352        6.729       45.237       40.210       27.189     2046.353     1616.816      739.236        1.443        0.220      156.264       18.365        0.014      336.572        7.965      861.464
01/09/2014  02:18:00       27.992        6.329       20.175       55.457       35.191       19.777     3075.507     1238.375      391.131        0.297        0.235       28.698       19.716        0.472      336.529        7.893      861.473
01/09/2014  02:19:00      -21.506       27.272       -9.496       30.958       31.955       20.665      958.382     1021.143      427.063        0.185        0.120       34.731       15.763        0.206      336.616        8.039      861.474
01/09/2014  02:20:00      -27.551        8.564       -5.281       20.595       30.652       16.933      424.144      939.561      286.740        0.126        0.083       28.852       11.061        0.147      336.664        8.120      861.476
01/09/2014  02:21:00      -24.518       16.953       -1.743       22.576       25.926       16.711      509.684      672.146      279.253        0.118        0.073       29.809       13.324        0.200      336.697        8.174      861.456
01/09/2014  02:22:00      -35.125       60.586       -1.174       28.170       59.149       20.996      793.557     3498.632      440.822        0.482        0.237       70.032       21.672        0.096      336.912        8.533      861.443
01/09/2014  02:23:00      -79.392       13.226       -9.471       24.667       33.766       17.444      608.471     1140.132      304.283        0.431        0.103       80.486       11.905        0.022      336.712        8.198      861.467
01/09/2014  02:24:00      -19.050      -11.685        1.751       43.751       21.792       19.379     1914.162      474.892      375.559        0.163        0.138       22.348       25.029        1.254      336.659        8.111      861.482
01/09/2014  02:25:00       70.999       78.136       -1.182       33.506       34.973       20.082     1122.672     1223.110      403.291        0.695        0.137      105.575       18.531        0.031      336.814        8.368      861.427
01/09/2014  02:26:00      -39.413      120.510      -24.971       50.333       80.685       21.123     2533.416     6510.072      446.191        1.309        0.474      126.792       32.404        0.065      336.883        8.484      861.420
01/09/2014  02:27:00     -105.133       62.323      -22.818       33.986       53.316       26.088     1155.077     2842.600      680.598        1.007        0.234      122.217       22.714        0.035      336.831        8.396      861.480
01/09/2014  02:28:00      -69.735       64.757       -9.070       33.473       35.201       17.559     1120.430     1239.084      308.323        0.590        0.133       95.165       14.575        0.023      336.876        8.471      861.518
01/09/2014  02:29:00      -58.411        0.740       -4.756       25.428       29.795       12.739      646.565      887.742      162.294        0.257        0.085       58.416        9.363        0.026      336.912        8.530      861.534
01/09/2014  02:30:00       -8.209        0.071       -0.196       14.105       19.528        8.489      198.958      381.339       72.068        0.036        0.033        8.209        5.604        0.466      336.878        8.476      861.534
01/09/2014  02:31:00       -4.723        2.593        1.274       16.229       11.890        8.030      263.368      141.384       64.474        0.025        0.023        5.388        6.859        1.620      336.806        8.356      861.533
01/09/2014  02:32:00      -39.205       10.267       -3.367       16.358       15.858       12.593      267.577      251.484      158.584        0.117        0.034       40.527        6.777        0.028      336.774        8.301      861.549
01/09/2014  02:33:00      -13.394       34.895       -2.398       27.881       21.286       12.425      777.337      453.084      154.389        0.139        0.069       37.377       10.554        0.080      336.816        8.372      861.532
01/09/2014  02:34:00        1.849       -9.271       -1.311       12.258       29.098       10.009      150.256      846.723      100.186        0.059        0.055        9.454       14.304        2.289      336.815        8.372      861.530
01/09/2014  02:35:00       12.503      -32.915        2.625       20.657       23.848       18.698      426.731      568.710      349.602        0.130        0.067       35.210       16.260        0.213      336.815        8.371      861.559
01/09/2014  02:36:00     -105.015      -42.508       -2.903       24.581       17.793       14.472      604.234      316.587      209.430        0.699        0.057      113.292        8.517        0.006      336.753        8.268      861.619
01/09/2014  02:37:00      -19.610        7.730       -2.583       41.399       29.328       12.698     1713.881      860.149      161.235        0.159        0.137       21.078       20.454        0.942      336.680        8.145      861.634
01/09/2014  02:38:00       37.894       52.827        1.545       21.185       14.381       15.664      448.799      206.808      245.360        0.256        0.045       65.013       13.213        0.041      336.813        8.367      861.615
01/09/2014  02:39:00       11.424      104.804      -20.000       13.395       33.907        8.588      179.422     1149.691       73.755        0.646        0.070      105.425        8.166        0.006      336.811        8.363      861.625
01/09/2014  02:40:00       48.153       89.332       -0.797       64.097       19.520       24.678     4108.402      381.046      609.014        0.770        0.255      101.483       33.907        0.112      336.795        8.336      861.640
01/09/2014  02:41:00       59.807      -17.882       12.024       66.596       62.328       25.609     4435.059     3884.740      655.816        0.651        0.449       62.423       24.874        0.159      336.830        8.396      861.627
01/09/2014  02:42:00      -45.651       64.777        7.762       65.291       29.797       43.710     4262.922      887.869     1910.584        0.670        0.353       79.247       41.867        0.279      336.616        8.038      861.606
01/09/2014  02:43:00      -73.736       39.191       -9.023       31.518       23.586       18.983      993.385      556.313      360.373        0.448        0.096       83.504       17.074        0.042      336.500        7.844      861.627
01/09/2014  02:44:00      -35.777       57.681       -5.623       37.062       30.501       15.659     1373.597      930.323      245.206        0.359        0.127       67.876       20.664        0.093      336.723        8.216      861.596
01/09/2014  02:45:00        0.951       -1.443        2.474       33.787       42.854       21.881     1141.564     1836.444      478.759        0.173        0.173        1.729       19.223      123.653      336.846        8.421      861.589
01/09/2014  02:46:00     -170.661      -90.599      -15.903       57.771       29.886       19.750     3337.513      893.202      390.079        2.110        0.231      193.219       15.215        0.006      336.721        8.212      861.608
01/09/2014  02:47:00     -148.776       19.754       -9.252       46.115       58.128       26.916     2126.623     3378.820      724.492        1.442        0.311      150.082       27.487        0.034      336.756        8.272      861.621
01/09/2014  02:48:00     -102.694      -46.716       -1.314       66.651       55.709       26.607     4442.325     3103.514      707.922        1.049        0.413      112.820       28.705        0.065      336.836        8.406      861.607
01/09/2014  02:49:00      -74.214        0.156       -8.243       36.724       32.334       21.367     1348.688     1045.508      456.543        0.421        0.143       74.214       22.561        0.092      336.831        8.396      861.602
01/09/2014  02:50:00     -260.357       31.619      -29.715       84.372       57.316       31.543     7118.615     3285.179      994.930        4.053        0.570      262.270       28.588        0.012      336.933        8.564      861.636
01/09/2014  02:51:00     -169.809        7.688       -8.728       89.863       57.548       36.071     8075.421     3311.788     1301.123        2.083        0.634      169.983       41.536        0.060      336.919        8.542      861.647
01/09/2014  02:52:00     -148.096       16.372      -18.588       43.491       45.241       18.074     1891.477     2046.724      326.686        1.340        0.213      148.998       20.976        0.020      336.827        8.391      861.621
01/09/2014  02:53:00     -141.009       29.574      -16.766       43.092       41.944       23.137     1856.884     1759.297      535.328        1.259        0.208      144.077       19.301        0.018      336.832        8.397      861.604
01/09/2014  02:54:00     -124.284       -6.727       -9.194       33.975       26.301       16.988     1154.285      691.735      288.596        0.886        0.107      124.466       12.673        0.010      336.776        8.306      861.602
01/09/2014  02:55:00     -150.442      -57.437      -11.250       33.834       24.658       16.244     1144.760      608.024      263.881        1.404        0.101      161.033        9.566        0.004      336.749        8.260      861.624
01/09/2014  02:56:00     -119.204      -37.956       -1.109       49.289       44.729       20.007     2429.372     2000.660      400.262        1.024        0.242      125.102       19.961        0.025      336.720        8.212      861.644
01/09/2014  02:57:00      -94.230      -51.391        2.114       53.041       35.883       23.400     2813.360     1287.620      547.538        0.809        0.232      107.333       21.050        0.038      336.736        8.241      861.663
01/09/2014  02:58:00      -41.684      -13.116       10.238       45.154       33.611       20.609     2038.922     1129.702      424.726        0.280        0.180       43.699       21.287        0.237      336.736        8.240      861.696
01/09/2014  02:59:00      -27.496       59.259        2.053       67.705       36.114       27.309     4583.961     1304.220      745.804        0.545        0.332       65.327       32.621        0.249      336.780        8.312      861.680
01/09/2014  03:00:00      -68.374       -0.581        4.739       80.314       58.058       27.842     6450.298     3370.787      775.179        0.765        0.530       68.377       35.940        0.276      336.821        8.379      861.661
01/09/2014  03:01:00     -120.903      -76.576       -0.023       61.526       49.008       32.082     3785.451     2401.763     1029.266        1.385        0.361      143.114       28.859        0.041      336.800        8.344      861.669
01/09/2014  03:02:00     -135.960      -19.887        1.282       71.407       74.382       30.668     5098.947     5532.732      940.521        1.523        0.579      137.407       38.763        0.080      336.814        8.368      861.669
01/09/2014  03:03:00      -60.765     -100.533       10.251       55.185      147.637       29.613     3045.404    21796.702      876.952        1.981        1.286      117.471       26.871        0.052      336.897        8.505      861.645
01/09/2014  03:04:00     -115.003     -214.480        4.093       88.213      109.643       44.550     7781.470    12021.591     1984.722        4.051        1.089      243.367       41.468        0.029      336.965        8.615      861.617
01/09/2014  03:05:00     -178.197      -94.643        4.686      108.720       94.692       50.030    11820.019     8966.483     2503.029        3.201        1.164      201.771       54.353        0.073      336.830        8.393      861.637
01/09/2014  03:06:00     -275.550      -59.915      -12.587       61.450       65.287       34.540     3776.110     4262.384     1193.012        4.445        0.462      281.989       24.038        0.007      336.783        8.312      861.653
01/09/2014  03:07:00     -195.600      -27.219      -17.443       46.235       62.027       37.447     2137.716     3847.347     1402.255        2.334        0.369      197.485       32.775        0.028      336.703        8.180      861.676
01/09/2014  03:08:00     -219.140      -28.749       -9.015       72.822       39.946       32.876     5303.043     1595.669     1080.851        2.845        0.399      221.018       36.957        0.028      336.771        8.294      861.659
01/09/2014  03:09:00     -172.679      -20.397       -7.194       69.408       57.079       32.569     4817.489     3258.068     1060.711        1.971        0.457      173.880       37.398        0.046      336.757        8.272      861.667
01/09/2014  03:10:00     -181.463      -31.297      -10.558       39.173       60.351       35.248     1534.542     3642.194     1242.427        2.022        0.321      184.142       25.955        0.020      336.751        8.263      861.715
01/09/2014  03:11:00     -292.274       -1.021      -14.523      100.958       80.936       43.831    10192.612     6550.574     1921.177        5.215        0.933      292.276       51.986        0.032      336.753        8.262      861.758
01/09/2014  03:12:00     -154.892     -100.006      -12.943       98.965       67.747       39.167     9793.989     4589.658     1534.088        2.504        0.796      184.372       40.170        0.047      336.764        8.284      861.765
01/09/2014  03:13:00     -143.663      -44.399        5.042      104.120      100.355       49.255    10840.881    10071.194     2426.081        2.298        1.167      150.368       53.719        0.128      336.817        8.371      861.742
01/09/2014  03:14:00     -218.001       22.089       -3.654       89.647       83.812       46.417     8036.527     7024.476     2154.563        3.262        0.861      219.117       35.903        0.027      336.798        8.338      861.738
01/09/2014  03:15:00     -181.524      -46.565       -3.051       91.411       91.267       49.636     8356.027     8329.614     2463.687        2.714        0.957      187.401       51.517        0.076      336.738        8.239      861.742
01/09/2014  03:16:00     -110.258      -72.059        3.745       79.213       58.418       39.445     6274.704     3412.684     1555.881        1.430        0.562      131.716       44.814        0.116      336.750        8.260      861.784
01/09/2014  03:17:00     -202.134      -56.981        1.733      125.986       84.471       55.002    15872.409     7135.368     3025.198        3.507        1.302      210.012       57.355        0.075      336.756        8.269      861.839
01/09/2014  03:18:00     -306.830      -91.744       -7.319      133.329       99.910       65.432    17776.528     9981.992     4281.389        6.732        1.602      320.252       65.442        0.042      336.737        8.238      861.916
01/09/2014  03:19:00     -429.530      -84.598      -28.218      149.342      119.232       64.310    22302.932    14216.332     4135.714       11.655        2.033      437.781       60.030        0.019      336.813        8.364      861.887
01/09/2014  03:20:00     -248.455      -74.844       -6.384      157.706      123.281       62.675    24871.319    15198.297     3928.115        5.568        2.200      259.483       71.794        0.077      336.742        8.245      861.900
01/09/2014  03:21:00     -133.887     -111.562        4.307      104.343       76.814       58.143    10887.496     5900.373     3380.609        2.528        1.008      174.275       60.455        0.120      336.738        8.239      861.857
01/09/2014  03:22:00     -122.999      -90.996       -1.832      116.887       86.541       41.765    13662.473     7489.308     1744.353        2.315        1.145      153.000       56.700        0.137      336.710        8.195      861.848
01/09/2014  03:23:00     -225.925      -86.469      -13.161      141.268       76.777       52.825    19956.617     5894.701     2790.459        4.366        1.432      241.907       55.539        0.053      336.785        8.317      861.836
01/09/2014  03:24:00     -219.223     -149.067        2.103      138.249      111.750       67.524    19112.807    12487.966     4559.463        5.322        1.808      265.103       80.348        0.092      336.781        8.311      861.818
01/09/2014  03:25:00     -220.659      -72.501       -3.556      106.397       88.673       47.358    11320.247     7862.820     2242.741        3.769        1.071      232.264       55.801        0.058      336.738        8.238      861.831
01/09/2014  03:26:00     -103.605      -70.412       -7.577       89.691       57.059       34.829     8044.399     3255.703     1213.058        1.413        0.626      125.267       43.374        0.120      336.724        8.219      861.837
01/09/2014  03:27:00     -152.167      -22.859        1.594       84.292       50.289       38.884     7105.178     2528.997     1511.975        1.741        0.557      153.874       47.032        0.093      336.708        8.192      861.856
01/09/2014  03:28:00     -153.166      -31.443        3.189       75.110       58.576       44.513     5641.579     3431.092     1981.365        1.775        0.553      156.360       42.958        0.075      336.662        8.113      861.883
01/09/2014  03:29:00     -278.132       -3.407      -32.474      110.512       55.521       44.462    12212.816     3082.576     1976.911        4.785        0.864      278.153       44.559        0.026      336.714        8.198      861.895
01/09/2014  03:30:00     -174.967       27.041       -9.074       65.254       68.867       35.542     4258.116     4742.724     1263.208        2.084        0.513      177.044       29.354        0.027      336.660        8.110      861.888
01/09/2014  03:31:00     -118.062      -18.186       -4.160       81.286       52.679       32.746     6607.424     2775.037     1072.282        1.237        0.523      119.455       35.315        0.087      336.643        8.081      861.897
01/09/2014  03:32:00      -98.259      -17.704       -6.838       34.194       46.035       20.524     1169.196     2119.238      421.226        0.686        0.185       99.841       20.742        0.043      336.647        8.090      861.893
01/09/2014  03:33:00     -131.173      -29.952       -3.463       65.842       47.620       25.691     4335.166     2267.658      660.047        1.269        0.363      134.549       25.914        0.037      336.640        8.078      861.886
01/09/2014  03:34:00      -22.843      -18.701       14.904       60.072       27.704       31.287     3608.670      767.485      978.869        0.322        0.268       29.521       33.636        1.298      336.673        8.133      861.869
01/09/2014  03:35:00     -147.012      -19.928        0.625       61.514       64.164       42.584     3783.983     4116.960     1813.372        1.586        0.486      148.357       37.204        0.063      336.651        8.097      861.887
01/09/2014  03:36:00      -85.685      -58.407       -2.744       74.888       50.230       35.386     5608.190     2523.047     1252.186        1.007        0.469      103.699       37.947        0.134      336.626        8.054      861.894
01/09/2014  03:37:00     -149.313      -99.408       -2.566       78.552       58.153       41.190     6170.429     3381.785     1696.642        2.171        0.562      179.378       37.053        0.043      336.618        8.040      861.874
01/09/2014  03:38:00     -108.739      -93.854       -0.788       78.319       52.817       33.093     6133.794     2789.671     1095.172        1.532        0.501      143.641       35.558        0.061      336.591        7.996      861.871
01/09/2014  03:39:00     -181.824      -48.323      -19.128       88.309       56.579       39.035     7798.532     3201.207     1523.745        2.414        0.626      188.135       42.575        0.051      336.543        7.915      861.856
01/09/2014  03:40:00     -218.251      -37.668        5.051      111.174       66.885       53.901    12359.761     4473.569     2905.369        3.440        0.987      221.477       58.254        0.069      336.603        8.015      861.810
01/09/2014  03:41:00     -224.833     -164.334      -18.692      142.794      119.846       69.495    20389.988    14363.105     4829.621        5.874        1.979      278.488       71.222        0.065      336.594        8.000      861.774
01/09/2014  03:42:00     -216.526     -150.910      -18.077      111.180       97.177       54.688    12360.991     9443.273     2990.730        4.739        1.240      263.927       57.299        0.047      336.634        8.066      861.736
01/09/2014  03:43:00     -275.812      -53.541      -18.139      109.766       76.663       42.330    12048.519     5877.249     1791.836        4.949        0.986      280.961       47.359        0.028      336.574        7.965      861.752
01/09/2014  03:44:00     -245.781      -44.771      -12.351      136.697       98.370       54.761    18685.955     9676.624     2998.753        4.696        1.568      249.826       63.271        0.064      336.566        7.953      861.730
01/09/2014  03:45:00     -259.493      -94.424       -8.823       86.793       94.166       52.904     7533.105     8867.309     2798.876        4.776        0.960      276.138       51.868        0.035      336.565        7.950      861.715
01/09/2014  03:46:00     -237.935      -37.218      -21.174       63.162       90.735       42.229     3989.474     8232.896     1783.249        3.622        0.700      240.828       30.114        0.016      336.557        7.936      861.698
01/09/2014  03:47:00     -181.591       -7.631      -11.077      103.644       82.450       45.460    10742.087     6797.967     2066.572        2.638        0.980      181.751       52.007        0.082      336.569        7.960      861.707
01/09/2014  03:48:00     -292.816     -113.342       -9.436      108.099       90.217       49.914    11685.451     8139.100     2491.440        6.049        1.116      313.986       44.151        0.020      336.570        7.957      861.739
01/09/2014  03:49:00     -309.814     -114.423       -7.713      177.662      126.000       73.049    31563.674    15876.115     5336.137        8.095        2.639      330.269       78.256        0.056      336.587        7.988      861.751
01/09/2014  03:50:00     -117.720        3.558       -2.621       83.694       62.404       37.564     7004.619     3894.231     1411.087        1.309        0.615      117.773       39.275        0.111      336.564        7.950      861.750
01/09/2014  03:51:00     -206.878       31.261       -9.465       83.719       84.529       47.071     7008.798     7145.130     2215.656        3.011        0.818      209.226       47.330        0.051      336.527        7.888      861.743
01/09/2014  03:52:00     -157.430       45.698       -4.602       78.313       49.367       33.249     6132.875     2437.062     1105.481        1.828        0.484      163.928       35.246        0.046      336.519        7.876      861.740
01/09/2014  03:53:00     -131.111      -37.170      -21.561       58.509       93.324       29.765     3423.278     8709.461      885.937        1.603        0.651      136.278       17.001        0.016      336.522        7.881      861.751
01/09/2014  03:54:00     -181.919      -34.586      -11.097       90.823       63.689       40.697     8248.730     4056.344     1656.257        2.419        0.698      185.178       38.910        0.044      336.508        7.854      861.766
01/09/2014  03:55:00     -339.908       16.054      -25.293      125.495       80.769       50.702    15749.057     6523.594     2570.720        7.063        1.242      340.287       53.676        0.025      336.578        7.973      861.777
01/09/2014  03:56:00     -300.477      -20.039      -22.420      105.195       81.080       48.100    11065.912     6573.963     2313.600        5.557        0.998      301.145       52.777        0.031      336.527        7.886      861.793
01/09/2014  03:57:00     -182.131      -75.583       -6.915       77.057       61.474       38.232     5937.806     3779.039     1461.715        2.505        0.559      197.191       36.415        0.034      336.492        7.828      861.786
01/09/2014  03:58:00     -215.300        3.562       -4.384      106.925       79.422       41.080    11432.922     6307.788     1687.537        3.290        0.971      215.329       47.169        0.048      336.509        7.856      861.787
01/09/2014  03:59:00     -174.006      -48.947      -15.587      102.152       75.521       36.481    10434.950     5703.398     1330.866        2.519        0.873      180.759       40.545        0.050      336.470        7.791      861.780
01/09/2014  04:00:00     -248.362      -93.746       -7.195       92.576       63.404       38.705     8570.378     4020.004     1498.061        4.230        0.704      265.466       40.865        0.024      336.530        7.891      861.783
01/09/2014  04:01:00     -128.138      -29.238       -0.247       89.081       62.477       33.626     7935.400     3903.344     1130.683        1.512        0.648      131.432       42.391        0.104      336.485        7.818      861.800
01/09/2014  04:02:00     -115.100      -63.853        1.506       52.323       55.475       33.161     2737.672     3077.531     1099.619        1.212        0.346      131.625       23.789        0.033      336.467        7.787      861.799
01/09/2014  04:03:00     -166.370      -44.701       -9.136       61.918       76.798       27.288     3833.781     5897.956      744.627        2.012        0.524      172.270       24.248        0.020      336.423        7.711      861.784
01/09/2014  04:04:00     -183.323      -59.703       -5.322       52.513       54.940       32.243     2757.647     3018.434     1039.618        2.201        0.341      192.800       29.777        0.024      336.460        7.775      861.736
01/09/2014  04:05:00     -147.038      -27.380        4.266       92.937       82.424       46.099     8637.302     6793.684     2125.095        1.997        0.878      149.565       51.598        0.119      336.454        7.764      861.676
01/09/2014  04:06:00     -118.597     -115.541       -5.178       84.297       82.461       60.790     7106.035     6799.850     3695.472        2.252        0.880      165.575       59.957        0.131      336.556        7.937      861.638
01/09/2014  04:07:00      -13.672        6.692       19.861       32.251       16.237       26.888     1040.134      263.637      722.972        0.133        0.101       15.221       21.431        1.982      336.469        7.792      861.622
01/09/2014  04:08:00      -21.712       -5.996       -3.887       34.401       39.909       10.856     1183.444     1592.760      117.851        0.171        0.145       22.525        9.779        0.188      336.426        7.720      861.580
01/09/2014  04:09:00      -58.904      -21.605       -0.108       30.262       36.162       17.401      915.775     1307.726      302.782        0.323        0.126       62.741       13.551        0.047      336.406        7.686      861.554
01/09/2014  04:10:00     -135.912      -46.836       -8.463       61.423       78.916       34.229     3772.824     6227.759     1171.650        1.595        0.559      143.756       21.714        0.023      336.471        7.795      861.554
01/09/2014  04:11:00      -83.334      -10.694       -6.971       47.284       51.789       27.050     2235.765     2682.089      731.708        0.638        0.282       84.018       27.609        0.108      336.491        7.828      861.586
01/09/2014  04:12:00     -128.075      -48.278       -7.923       36.520       35.456       19.398     1333.709     1257.153      376.269        1.088        0.148      136.872       16.984        0.015      336.438        7.740      861.599
01/09/2014  04:13:00     -127.140      -56.068       -7.944       76.040       34.056       20.789     5782.096     1159.813      432.178        1.337        0.369      138.954       23.627        0.029      336.418        7.706      861.641
01/09/2014  04:14:00     -142.399        6.507      -10.439       36.788       41.142       22.677     1353.348     1692.641      514.227        1.199        0.178      142.548       20.950        0.022      336.387        7.655      861.680
01/09/2014  04:15:00     -151.465        4.270      -20.140       62.575       22.446       19.665     3915.639      503.820      386.694        1.409        0.240      151.525       14.072        0.009      336.406        7.686      861.728
01/09/2014  04:16:00     -122.193      -18.550       -4.699       53.907       51.801       30.896     2905.961     2683.298      954.572        1.092        0.327      123.593       24.406        0.039      336.418        7.706      861.729
01/09/2014  04:17:00     -130.082      -44.176      -21.024       42.286       43.297       22.723     1788.076     1874.648      516.321        1.175        0.209      137.378       18.218        0.018      336.377        7.639      861.743
01/09/2014  04:18:00      -82.977        5.491      -19.809       50.520       58.973       35.461     2552.246     3477.870     1257.463        0.730        0.364       83.159       35.920        0.187      336.391        7.662      861.743
01/09/2014  04:19:00     -122.564       -9.731       -4.280       67.661       67.404       33.231     4577.992     4543.355     1104.278        1.268        0.511      122.950       37.232        0.092      336.371        7.627      861.758
01/09/2014  04:20:00      -38.468        0.166        8.574       48.900       30.700       22.319     2391.225      942.489      498.145        0.269        0.192       38.469       16.994        0.195      336.324        7.549      861.800
01/09/2014  04:21:00      -86.299      -27.090       -2.969       42.049       30.903       18.250     1768.109      954.992      333.077        0.562        0.153       90.451       11.446        0.016      336.296        7.503      861.831
01/09/2014  04:22:00     -167.358      -26.192      -14.141       44.250       40.209       26.039     1958.036     1616.762      678.048        1.657        0.213      169.395       24.081        0.020      336.256        7.437      861.847
01/09/2014  04:23:00     -115.233      -16.386       -2.931       40.923       41.751       24.533     1674.674     1743.169      601.875        0.879        0.201      116.392       20.615        0.031      336.262        7.445      861.815
01/09/2014  04:24:00     -110.225      -30.981       -2.374       50.969       47.268       27.956     2597.845     2234.240      781.556        0.936        0.281      114.496       24.205        0.045      336.287        7.488      861.794
01/09/2014  04:25:00     -149.920      -36.398      -10.169       38.648       44.386       19.773     1493.694     1970.127      390.952        1.388        0.193      154.276       18.288        0.014      336.245        7.416      861.785
01/09/2014  04:26:00     -152.470      -78.207       -2.621       37.702       34.549       21.896     1421.446     1193.631      479.432        1.623        0.155      171.357       12.250        0.005      336.266        7.451      861.795
01/09/2014  04:27:00     -265.689      -77.596      -27.131       70.645       66.185       46.003     4990.680     4380.421     2116.268        4.442        0.574      276.788       43.354        0.025      336.292        7.491      861.836
01/09/2014  04:28:00     -160.200     -100.992        0.461       71.306       55.375       36.335     5084.569     3066.412     1320.208        2.267        0.474      189.376       37.802        0.040      336.295        7.498      861.881
01/09/2014  04:29:00     -208.181      -79.453      -18.128       43.898       52.449       35.091     1926.996     2750.882     1231.377        2.794        0.295      222.828       23.061        0.011      336.335        7.562      861.894
01/09/2014  04:30:00     -193.069      -87.006      -17.915       51.512       56.618       34.131     2653.492     3205.601     1164.925        2.609        0.351      211.768       21.283        0.010      336.230        7.388      861.900
01/09/2014  04:31:00     -140.326      -56.396       -1.660       86.585       58.484       37.069     7496.993     3420.322     1374.077        1.758        0.615      151.234       41.425        0.075      336.246        7.418      861.888
01/09/2014  04:32:00     -126.828       22.812      -16.984       44.776       58.960       29.531     2004.911     3476.227      872.092        1.162        0.318      128.864       27.346        0.045      336.223        7.379      861.864
01/09/2014  04:33:00     -145.953        0.903      -17.025       50.133       45.978       30.692     2513.327     2114.005      941.968        1.358        0.278      145.956       24.982        0.029      336.228        7.388      861.858
01/09/2014  04:34:00     -196.939      -32.090      -15.881       51.467       37.669       31.136     2648.810     1418.939      969.463        2.255        0.252      199.536       28.149        0.020      336.164        7.279      861.850
01/09/2014  04:35:00     -263.789      -96.830      -18.559       76.680       57.913       42.089     5879.807     3353.876     1771.498        4.515        0.550      281.000       24.701        0.008      336.277        7.466      861.843
01/09/2014  04:36:00     -246.428      -99.123      -11.491      132.660       97.498       46.942    17598.614     9505.804     2203.593        4.999        1.465      265.617       53.673        0.041      336.331        7.559      861.831
01/09/2014  04:37:00     -268.344      -80.410       -8.143       95.028       69.767       47.530     9030.405     4867.436     2259.082        4.735        0.808      280.132       47.421        0.029      336.294        7.496      861.818
01/09/2014  04:38:00     -182.135      -63.488       -0.918       74.916       69.507       40.449     5612.424     4831.183     1636.097        2.464        0.604      192.883       41.762        0.047      336.280        7.474      861.817
01/09/2014  04:39:00     -198.265      -69.174       -6.772       95.155       61.684       40.432     9054.548     3804.958     1634.760        2.931        0.725      209.985       47.927        0.052      336.290        7.488      861.830
01/09/2014  04:40:00     -188.373      -96.738       -7.049       82.437       87.021       44.534     6795.882     7572.638     1983.269        3.062        0.818      211.760       43.369        0.042      336.214        7.362      861.824
01/09/2014  04:41:00     -255.107      -66.213      -15.927      159.786       93.272       59.389    25531.490     8699.690     3527.110        5.373        1.888      263.559       70.334        0.071      336.296        7.500      861.819
01/09/2014  04:42:00     -151.576      -46.257       10.621      118.978       85.333       61.701    14155.757     7281.680     3807.033        2.523        1.262      158.477       59.624        0.142      336.334        7.564      861.827
01/09/2014  04:43:00     -176.536     -103.606        3.149      125.218      118.146       64.723    15679.450    13958.519     4189.031        3.786        1.691      204.693       70.927        0.120      336.357        7.601      861.845
01/09/2014  04:44:00     -274.093      -60.971      -35.701      142.859       75.327       55.873    20408.603     5674.182     3121.846        5.466        1.460      280.793       49.641        0.031      336.346        7.582      861.842
01/09/2014  04:45:00     -252.987      -33.784      -12.579      100.838       63.745       37.705    10168.359     4063.454     1421.642        4.048        0.783      255.233       35.642        0.020      336.310        7.522      861.835
01/09/2014  04:46:00     -244.172      -92.476       -7.742       63.607       62.380       40.455     4045.814     3891.272     1636.621        3.890        0.479      261.097       39.627        0.023      336.282        7.474      861.819
01/09/2014  04:47:00     -123.692      -52.747       -0.608       82.033       72.011       46.521     6729.411     5185.533     2164.213        1.608        0.704      134.469       37.386        0.077      336.288        7.486      861.801
01/09/2014  04:48:00     -203.532     -122.389       -7.005       76.793       76.728       38.408     5897.123     5887.141     1475.191        3.485        0.663      237.496       24.157        0.010      336.277        7.468      861.773
01/09/2014  04:49:00      -91.657      -80.997       -9.405      122.669       88.830       61.439    15047.643     7890.778     3774.749        2.088        1.336      122.317       66.440        0.295      336.268        7.454      861.732
01/09/2014  04:50:00     -204.774     -106.050       -2.823       96.124       86.639       56.529     9239.756     7506.231     3195.526        3.656        0.997      230.605       52.725        0.052      336.260        7.438      861.694
01/09/2014  04:51:00     -324.264      -57.464      -22.933       99.278       78.222       46.469     9856.160     6118.667     2159.332        6.355        0.907      329.316       54.725        0.028      336.240        7.406      861.681
01/09/2014  04:52:00     -364.792      -86.194      -14.051       82.049       71.338       43.700     6731.959     5089.081     1909.687        7.721        0.687      374.837       37.786        0.010      336.246        7.416      861.693
01/09/2014  04:53:00     -340.584      -70.553       -9.907      116.939       95.532       56.797    13674.713     9126.269     3225.943        7.355        1.301      347.815       60.056        0.030      336.244        7.412      861.711
01/09/2014  04:54:00     -285.935      -29.351       -6.529      141.594       89.729       61.723    20048.798     8051.247     3809.733        5.728        1.595      287.438       65.328        0.052      336.201        7.341      861.714
01/09/2014  04:55:00     -246.652      -98.928       -3.529       91.466      107.669       61.233     8365.972    11592.533     3749.483        4.717        1.185      265.752       54.094        0.041      336.224        7.380      861.705
01/09/2014  04:56:00     -279.170      -84.748      -22.423      119.237       99.821       47.429    14217.564     9964.211     2249.555        5.602        1.322      291.750       47.769        0.027      336.274        7.461      861.695
01/09/2014  04:57:00     -251.828      -73.170       -4.697      155.743      100.900       56.032    24255.946    10180.898     3139.572        5.318        1.879      262.243       63.606        0.059      336.236        7.399      861.718
01/09/2014  04:58:00     -262.206      -70.655       -7.477      145.449      102.524       56.010    21155.314    10511.177     3137.091        5.430        1.740      271.559       63.947        0.055      336.203        7.344      861.716
01/09/2014  04:59:00     -246.365      -60.907      -18.158      109.751       98.456       59.368    12045.193     9693.589     3524.586        4.499        1.263      253.782       52.325        0.043      336.199        7.336      861.692
01/09/2014  05:00:00     -374.160      -45.422      -23.328      152.274      102.261       66.998    23187.520    10457.326     4488.755        9.036        1.907      376.907       73.172        0.038      336.210        7.355      861.694
01/09/2014  05:01:00     -274.528     -121.467       -1.874      138.604       93.211       55.409    19211.181     8688.373     3070.198        6.054        1.548      300.199       60.534        0.041      336.184        7.312      861.690
01/09/2014  05:02:00     -356.546      -90.224       -2.251      139.072      110.816       65.819    19341.127    12280.175     4332.092        8.561        1.798      367.785       70.697        0.037      336.172        7.291      861.686
01/09/2014  05:03:00     -364.361      -46.295      -16.778      144.597      154.935       62.710    20908.361    24004.873     3932.554        9.201        2.442      367.290       62.782        0.029      336.219        7.371      861.658
01/09/2014  05:04:00     -372.634     -124.906      -14.733      145.248      129.180       66.416    21096.914    16687.592     4411.125        9.843        2.110      393.011       64.330        0.027      336.203        7.344      861.625
01/09/2014  05:05:00     -454.993     -185.714      -26.315      157.761      136.051       79.750    24888.583    18509.754     6360.049       14.597        2.488      491.435       75.486        0.024      336.246        7.415      861.558
01/09/2014  05:06:00     -300.375      -56.925       -6.337      153.162      134.594       80.383    23458.629    18115.573     6461.367        7.076        2.402      305.721       72.057        0.056      336.198        7.335      861.537
01/09/2014  05:07:00     -349.642      -64.707      -27.185      159.724      109.152       61.776    25511.663    11914.207     3816.225        8.420        2.062      355.579       56.916        0.026      336.146        7.250      861.508
01/09/2014  05:08:00     -354.624      -53.236      -17.054      138.519       87.134       61.724    19187.398     7592.311     3809.828        7.973        1.529      358.597       69.298        0.037      336.116        7.199      861.482
01/09/2014  05:09:00     -309.971      -32.402      -13.847      148.157      109.040       59.294    21950.380    11889.811     3515.756        6.733        1.868      311.660       64.257        0.043      336.045        7.080      861.451
01/09/2014  05:10:00     -374.660     -108.521        0.966      177.233      134.642       74.949    31411.543    18128.518     5617.285       10.364        2.758      390.061       79.727        0.042      336.118        7.202      861.382
01/09/2014  05:11:00     -436.312     -121.587      -22.023      164.923      106.273       67.838    27199.647    11293.911     4602.036       12.436        2.155      452.937       71.446        0.025      336.094        7.161      861.364
01/09/2014  05:12:00     -347.752      -89.057      -11.852      173.076      127.551       69.472    29955.389    16269.134     4826.376        9.002        2.553      358.974       74.044        0.043      336.059        7.103      861.337
01/09/2014  05:13:00     -412.370      -53.467      -32.141      201.072      132.845       63.618    40430.062    17647.749     4047.254       11.802        3.106      415.822       70.073        0.028      336.084        7.145      861.273
01/09/2014  05:14:00     -231.001      -90.470      -18.926      155.495      131.397       72.571    24178.603    17265.170     5266.539        5.430        2.336      248.086       75.161        0.092      336.052        7.093      861.250
01/09/2014  05:15:00     -236.869      -35.123       -1.218      111.948       97.952       61.878    12532.318     9594.556     3828.921        4.164        1.298      239.459       57.309        0.057      336.033        7.061      861.261
01/09/2014  05:16:00     -252.562      -33.601       -6.036      114.074       89.987       59.950    13012.899     8097.730     3594.024        4.482        1.235      254.787       59.540        0.055      336.031        7.056      861.255
01/09/2014  05:17:00     -243.352       40.024       -4.674      105.762       99.030       60.528    11185.667     9806.983     3663.656        4.275        1.233      246.622       46.157        0.035      336.027        7.051      861.259
01/09/2014  05:18:00     -310.397     -103.614       -9.662      152.216      129.380       69.294    23169.603    16739.299     4801.602        7.594        2.236      327.235       68.599        0.044      336.017        7.033      861.261
01/09/2014  05:19:00     -415.388      -66.497      -25.771      125.829      117.677       64.015    15832.841    13847.904     4097.919       10.570        1.689      420.677       63.859        0.023      336.043        7.077      861.275
01/09/2014  05:20:00     -347.726      -86.961      -17.630      135.077       97.183       61.777    18245.861     9444.548     3816.365        8.014        1.575      358.435       62.543        0.030      336.006        7.014      861.303
01/09/2014  05:21:00     -370.458      -85.285       -9.757      140.426       98.776       68.380    19719.398     9756.729     4675.845        8.937        1.708      380.148       73.253        0.037      336.012        7.025      861.307
01/09/2014  05:22:00     -295.238     -113.049        8.789      161.707      135.047       69.036    26149.007    18237.589     4765.991        7.458        2.458      316.142       63.649        0.041      336.001        7.007      861.317
01/09/2014  05:23:00     -334.381      -56.346      -17.701      121.259      120.076       67.602    14703.829    14418.158     4570.071        7.449        1.685      339.096       67.510        0.040      336.007        7.017      861.323
01/09/2014  05:24:00     -375.981      -60.041      -13.873      111.050      103.523       57.771    12332.184    10717.093     3337.506        8.577        1.319      380.745       61.344        0.026      335.971        6.957      861.374
01/09/2014  05:25:00     -347.524      -83.751       -8.890      119.474       93.995       58.193    14273.962     8835.127     3386.368        7.718        1.325      357.473       54.032        0.023      335.958        6.935      861.417
01/09/2014  05:26:00     -329.149      -86.779      -11.873      126.800       86.762       55.737    16078.291     7527.619     3106.611        7.136        1.336      340.396       51.572        0.023      335.932        6.892      861.465
01/09/2014  05:27:00     -332.880      -81.331       -9.982       93.982      102.439       52.318     8832.608    10493.704     2737.123        6.979        1.103      342.671       47.221        0.019      335.898        6.835      861.543
01/09/2014  05:28:00     -415.524     -119.799      -19.409      127.569      100.417       59.172    16273.839    10083.586     3501.363       10.862        1.493      432.449       49.767        0.013      335.931        6.890      861.595
01/09/2014  05:29:00     -335.314      -91.833      -16.947      153.451      106.144       60.923    23547.125    11266.544     3711.593        7.983        1.926      347.662       74.941        0.046      335.927        6.884      861.624
01/09/2014  05:30:00     -291.159      -59.868      -15.334      129.051       96.276       57.179    16654.034     9269.071     3269.428        5.889        1.460      297.251       64.051        0.046      335.923        6.876      861.627
01/09/2014  05:31:00     -338.986     -131.840      -10.222      139.588      106.402       66.947    19484.759    11321.280     4481.923        8.384        1.764      363.721       64.884        0.032      335.951        6.924      861.615
01/09/2014  05:32:00     -234.348      -85.736        0.734      133.345       97.163       56.757    17780.992     9440.661     3221.365        4.635        1.522      249.539       69.534        0.078      335.933        6.895      861.644
01/09/2014  05:33:00     -317.040      -54.219      -23.529      140.523      113.346       63.451    19746.716    12847.381     4026.047        7.031        1.831      321.643       71.194        0.049      335.924        6.878      861.680
01/09/2014  05:34:00     -521.123        3.049      -51.690      149.468      113.922       65.675    22340.554    12978.122     4313.168       15.693        1.982      521.132       63.315        0.015      335.958        6.935      861.692
01/09/2014  05:35:00     -346.274      -49.206      -18.881      103.379       89.557       53.616    10687.275     8020.475     2874.729        7.213        1.079      349.752       47.639        0.019      335.946        6.914      861.703
01/09/2014  05:36:00     -380.193      -93.053      -21.326      143.063      110.691       58.434    20467.130    12252.575     3414.558        9.489        1.807      391.415       61.930        0.025      335.973        6.960      861.752
01/09/2014  05:37:00     -248.780     -112.789        2.112      123.680       99.535       60.089    15296.767     9907.134     3610.677        5.171        1.441      273.153       54.798        0.040      335.937        6.899      861.775
01/09/2014  05:38:00     -269.844      -73.998      -11.176      115.100      118.670       67.805    13248.024    14082.683     4597.535        5.517        1.596      279.806       59.001        0.044      335.933        6.893      861.766
01/09/2014  05:39:00     -404.885       -4.455      -39.368      122.611      120.370       64.132    15033.500    14488.994     4112.859        9.956        1.682      404.910       58.980        0.021      335.940        6.905      861.745
01/09/2014  05:40:00     -422.495      -49.155      -23.400      164.206      157.189       78.026    26963.498    24708.448     6088.099       11.960        2.888      425.345       82.225        0.037      335.957        6.933      861.743
01/09/2014  05:41:00     -324.950      -85.044      -25.026      136.718       88.663       59.800    18691.879     7861.160     3575.980        7.179        1.506      335.895       61.081        0.033      335.972        6.958      861.735
01/09/2014  05:42:00     -333.109      -74.915      -23.119      136.512       92.560       51.421    18635.410     8567.324     2644.093        7.347        1.492      341.430       60.798        0.032      335.970        6.954      861.790
01/09/2014  05:43:00     -267.429       -4.126       -6.184      114.704      109.895       62.105    13157.027    12076.965     3857.089        5.033        1.455      267.461       55.419        0.043      335.957        6.934      861.820
01/09/2014  05:44:00     -434.579     -100.988      -21.557      146.341      155.881       69.560    21415.790    24298.808     4838.589       12.503        2.528      446.158       58.413        0.017      336.005        7.014      861.835
01/09/2014  05:45:00     -291.835      -75.607       12.202      197.468      121.003       80.306    38993.680    14641.608     6449.089        7.555        3.004      301.470       96.307        0.102      335.982        6.975      861.860
01/09/2014  05:46:00     -506.428      -17.426      -43.858      121.718      108.840       60.242    14815.339    11846.088     3629.136       14.449        1.515      506.727       61.942        0.015      336.008        7.019      861.880
01/09/2014  05:47:00     -242.718      -35.482       -9.635      193.210       88.099       53.758    37329.978     7761.492     2889.901        5.411        2.399      245.298       62.085        0.064      335.984        6.979      861.886
01/09/2014  05:48:00     -221.250     -108.697       -1.836      110.411       96.313       53.160    12190.514     9276.199     2825.986        4.253        1.215      246.509       52.649        0.046      335.954        6.930      861.880
01/09/2014  05:49:00     -168.422      -79.724       -7.845      104.316       95.426       58.871    10881.893     9106.192     3465.807        2.911        1.173      186.338       47.547        0.065      335.944        6.910      861.860
01/09/2014  05:50:00     -179.609      -66.646       10.654      133.498      124.184       64.777    17821.648    15421.563     4196.046        3.712        1.872      191.575       62.554        0.107      335.932        6.893      861.862
01/09/2014  05:51:00     -202.849      -37.301        2.792      118.682       95.250       59.024    14085.370     9072.504     3483.863        3.459        1.332      206.250       49.670        0.058      335.949        6.921      861.869
01/09/2014  05:52:00     -236.268      -69.121       -6.973      133.468       85.943       50.541    17813.607     7386.222     2554.420        4.420        1.388      246.171       55.285        0.050      335.948        6.919      861.855
01/09/2014  05:53:00     -399.096     -100.056      -27.275      141.571      124.681       69.162    20042.265    15545.292     4783.421       10.520        2.019      411.448       57.115        0.019      336.005        7.012      861.848
01/09/2014  05:54:00     -338.070      -43.316      -12.509      123.691      117.393       64.313    15299.360    13781.177     4136.137        7.476        1.661      340.834       59.145        0.030      335.993        6.994      861.870
01/09/2014  05:55:00     -276.156      -83.367       -8.404      164.917      124.289       60.511    27197.595    15447.676     3661.549        6.479        2.315      288.465       69.633        0.058      335.979        6.970      861.851
01/09/2014  05:56:00     -370.909      -34.893      -23.628      123.252      124.359       60.240    15191.053    15465.280     3628.860        8.681        1.714      372.547       56.394        0.023      335.997        6.999      861.859
01/09/2014  05:57:00     -235.104     -121.223      -17.823      136.396      102.088       64.797    18603.881    10422.042     4198.679        5.175        1.661      264.516       74.881        0.080      335.988        6.984      861.876
01/09/2014  05:58:00     -215.130      -86.018      -11.101       91.608       87.482       53.223     8392.066     7653.158     2832.690        3.634        0.944      231.689       44.780        0.037      335.960        6.938      861.886
01/09/2014  05:59:00     -276.379       -8.301      -12.543      123.396      128.796       64.267    15226.587    16588.482     4130.234        5.627        1.797      276.503       71.931        0.068      335.988        6.984      861.883
01/09/2014  06:00:00     -195.667       -4.875       -3.677       96.891       84.052       48.970     9387.881     7064.782     2398.075        2.858        0.943      195.728       47.349        0.059      335.963        6.946      861.896
01/09/2014  06:01:00     -245.318       17.611      -10.321      115.313       89.669       52.554    13297.138     8040.537     2761.888        4.234        1.205      245.949       44.809        0.033      335.953        6.927      861.906
01/09/2014  06:02:00     -280.675      -70.144      -13.367      105.090       90.676       58.790    11043.816     8222.222     3456.315        5.330        1.136      289.307       58.242        0.041      335.952        6.925      861.912
01/09/2014  06:03:00     -339.445      -63.879      -15.409      136.161      131.042       65.874    18539.872    17171.892     4339.338        7.979        2.003      345.404       63.851        0.034      335.997        7.000      861.897
01/09/2014  06:04:00     -426.978      -98.173      -34.143      135.962       99.512       60.453    18485.717     9902.636     3654.523       11.257        1.602      438.119       57.619        0.017      336.008        7.018      861.879
01/09/2014  06:05:00     -281.593      -83.471       -9.384      102.808       95.968       58.652    10569.582     9209.915     3440.076        5.478        1.161      293.704       56.998        0.038      335.968        6.950      861.877
01/09/2014  06:06:00     -311.974      -27.336      -22.100      124.943      101.402       60.239    15610.740    10282.379     3628.774        6.404        1.476      313.170       59.173        0.036      335.976        6.966      861.860
01/09/2014  06:07:00     -333.553      -59.574      -13.872      160.531      109.877       61.228    25770.099    12072.862     3748.921        7.829        2.080      338.832       79.246        0.055      335.995        6.996      861.843
01/09/2014  06:08:00     -298.859      -39.353      -21.823       85.514       83.862       47.460     7312.713     7032.836     2252.450        5.397        0.830      301.439       37.763        0.016      335.986        6.980      861.830
01/09/2014  06:09:00     -236.909      -25.865      -13.644      111.142       89.816       51.313    12352.637     8066.916     2632.986        4.001        1.153      238.316       54.077        0.051      335.932        6.893      861.822
01/09/2014  06:10:00     -249.613      -71.475      -12.760      157.700      101.768       59.139    24869.153    10356.639     3497.363        5.314        1.936      259.644       65.148        0.063      335.922        6.876      861.838
01/09/2014  06:11:00     -190.736      -32.011       -1.113      114.461       87.484       51.398    13101.413     7653.407     2641.754        3.040        1.170      193.404       49.451        0.065      335.900        6.839      861.856
01/09/2014  06:12:00     -330.383       -6.139      -23.387      112.396      126.175       48.271    12632.907    15920.063     2330.078        7.031        1.544      330.440       49.904        0.023      335.933        6.892      861.884
01/09/2014  06:13:00     -329.150     -108.860      -15.567      163.974      107.342       64.228    26887.597    11522.394     4125.287        8.148        2.127      346.685       75.965        0.048      335.936        6.897      861.883
01/09/2014  06:14:00     -328.966      -85.108      -12.869      119.134      106.967       52.273    14192.940    11441.985     2732.479        7.199        1.418      339.797       51.463        0.023      335.909        6.852      861.886
01/09/2014  06:15:00     -268.086      -93.537       -6.701      102.264       92.092       48.097    10457.900     8481.022     2313.295        5.095        1.063      283.935       44.574        0.025      335.881        6.806      861.862
01/09/2014  06:16:00     -302.028      -44.331      -21.916      101.381      101.437       55.616    10278.203    10289.470     3093.117        5.866        1.183      305.265       54.059        0.031      335.855        6.763      861.820
01/09/2014  06:17:00     -182.664      -83.604      -10.974      101.278       99.046       57.060    10257.229     9810.087     3255.852        3.190        1.166      200.888       56.947        0.080      335.829        6.720      861.819
01/09/2014  06:18:00     -295.503        8.079      -13.504       78.686       79.181       42.583     6191.541     6269.595     1813.270        5.092        0.714      295.613       42.398        0.021      335.796        6.664      861.857
01/09/2014  06:19:00     -292.576      -77.406       -2.030      129.618      103.007       54.400    16800.738    10610.501     2959.359        6.098        1.519      302.643       58.366        0.037      335.789        6.654      861.868
01/09/2014  06:20:00     -337.824       -2.247      -18.928      140.849      112.627       60.100    19838.353    12684.783     3612.036        7.531        1.807      337.831       55.002        0.027      335.818        6.701      861.849
01/09/2014  06:21:00     -382.253      -90.720      -12.978      131.605      103.758       52.372    17319.745    10765.803     2742.860        9.267        1.541      392.871       54.026        0.019      335.814        6.696      861.869
01/09/2014  06:22:00     -304.497      -75.010      -13.707      115.004      104.949       50.007    13225.924    11014.222     2500.741        6.263        1.337      313.600       46.094        0.022      335.814        6.694      861.891
01/09/2014  06:23:00     -348.364      -55.345      -23.415      147.917      114.870       60.963    21879.446    13195.150     3716.516        8.187        1.940      352.733       70.927        0.040      335.848        6.753      861.898
01/09/2014  06:24:00     -303.595        6.807      -17.869      101.076       99.196       53.972    10216.343     9839.838     2912.996        5.775        1.148      303.672       45.841        0.023      335.819        6.704      861.894
01/09/2014  06:25:00     -178.525      -72.019        1.583      127.333       77.306       43.573    16213.696     5976.210     1898.627        3.057        1.204      192.504       48.320        0.063      335.783        6.647      861.916
01/09/2014  06:26:00     -165.443        8.025       -4.888       84.593       81.137       40.685     7156.031     6583.198     1655.233        2.142        0.770      165.637       32.251        0.038      335.756        6.601      861.945
01/09/2014  06:27:00     -247.070      -29.334      -14.967       93.343      101.560       53.867     8713.001    10314.509     2901.707        4.202        1.096      248.805       53.535        0.046      335.779        6.636      861.943
01/09/2014  06:28:00     -231.025      -11.498       -8.099      136.414       92.351       63.648    18608.874     8528.770     4051.009        4.237        1.559      231.311       66.949        0.084      335.776        6.631      861.963
01/09/2014  06:29:00     -212.942      -35.372       -3.560      120.391       87.072       52.866    14493.952     7581.514     2794.833        3.574        1.244      215.860       56.266        0.068      335.778        6.636      861.981
01/09/2014  06:30:00     -185.541      -11.947       -6.155      139.138      104.077       43.975    19359.278    10831.992     1933.810        3.336        1.606      185.925       59.895        0.104      335.798        6.669      861.984
01/09/2014  06:31:00     -221.054      -68.411       10.328      113.023      122.438       70.542    12774.191    14991.043     4976.185        4.319        1.637      231.397       65.588        0.080      335.786        6.648      862.006
01/09/2014  06:32:00     -246.203       21.629      -20.254      145.651       99.733       58.526    21214.251     9946.573     3425.296        4.803        1.729      247.151       64.444        0.068      335.763        6.612      862.030
01/09/2014  06:33:00     -274.617      -40.368      -19.781      120.199       82.388       56.374    14447.867     6787.789     3178.063        5.092        1.221      277.568       53.136        0.037      335.782        6.642      862.039
01/09/2014  06:34:00     -179.360      -55.289       -1.166      115.326       80.460       46.176    13300.120     6473.771     2132.223        2.856        1.095      187.688       53.543        0.081      335.759        6.605      862.036
01/09/2014  06:35:00     -216.661      -81.308      -17.112      110.923      113.934       58.321    12303.995    12980.923     3401.300        4.126        1.434      231.415       62.568        0.073      335.772        6.624      862.028
01/09/2014  06:36:00     -215.229      -42.871       -8.147       80.061       69.235       44.526     6409.805     4793.436     1982.588        3.070        0.659      219.457       30.941        0.020      335.752        6.592      862.060
01/09/2014  06:37:00     -173.126       -2.533        3.834       92.918       63.057       41.026     8633.843     3976.169     1683.100        2.214        0.715      173.144       47.476        0.075      335.730        6.555      862.102
01/09/2014  06:38:00     -120.489      -34.662      -11.560       87.922       56.752       40.529     7730.342     3220.789     1642.625        1.422        0.630      125.376       25.444        0.041      335.746        6.583      862.121
01/09/2014  06:39:00     -191.067      -70.113       -4.740       84.714       70.487       46.947     7176.459     4968.379     2204.028        2.789        0.717      203.525       29.648        0.021      335.738        6.569      862.130
01/09/2014  06:40:00     -183.157      -25.138       -8.849       95.517       63.817       40.767     9123.504     4072.571     1661.911        2.455        0.743      184.874       46.167        0.062      335.724        6.546      862.112
01/09/2014  06:41:00     -187.938      -75.981       -8.998       88.884       73.501       39.665     7900.450     5402.464     1573.335        2.802        0.744      202.716       37.942        0.035      335.733        6.563      862.080
01/09/2014  06:42:00     -163.263     -117.095        4.800      138.372       87.003       49.541    19146.690     7569.519     2454.284        3.477        1.459      200.913       67.796        0.114      335.725        6.547      862.074
01/09/2014  06:43:00     -142.402        8.356       -6.153      121.960       80.174       52.271    14874.293     6427.904     2732.260        2.221        1.202      142.647       58.354        0.167      335.703        6.511      862.092
01/09/2014  06:44:00     -128.826     -105.545       -8.864       76.677       58.657       42.829     5879.314     3440.663     1834.312        1.948        0.558      166.541       42.743        0.066      335.751        6.591      862.133
01/09/2014  06:45:00     -228.298     -110.241       -1.317      124.651       92.047       58.803    15537.977     8472.640     3457.785        4.587        1.373      253.522       34.521        0.019      335.744        6.580      862.162
01/09/2014  06:46:00     -178.254      -43.324       -4.754      126.708       90.395       53.249    16054.811     8171.267     2835.505        3.036        1.353      183.443       56.729        0.096      335.727        6.551      862.161
01/09/2014  06:47:00     -170.385      -44.658      -12.486      100.278       71.770       39.266    10055.775     5150.991     1541.812        2.396        0.837      176.140       48.881        0.077      335.758        6.602      862.151
01/09/2014  06:48:00      -31.261      -52.766        8.406       50.702       66.406       31.868     2570.644     4409.776     1015.589        0.591        0.400       61.331       27.112        0.195      335.736        6.570      862.109
01/09/2014  06:49:00      -60.231     -115.159        1.127      101.334       81.074       57.631    10268.666     6573.026     3321.306        1.852        1.008      129.959       49.301        0.144      335.784        6.647      862.073
01/09/2014  06:50:00     -132.026      -63.482       -6.951       94.055       91.765       55.364     8846.407     8420.816     3065.202        2.092        1.017      146.495       57.170        0.152      335.782        6.643      862.050
01/09/2014  06:51:00     -138.863       -1.764        3.806       92.716       68.405       37.525     8596.233     4679.291     1408.109        1.699        0.734      138.874       44.783        0.104      335.762        6.611      862.014
01/09/2014  06:52:00      -20.104      -32.127       28.762      109.890       77.914       50.162    12075.824     6070.611     2516.208        1.146        1.033       37.899       55.911        2.176      335.736        6.569      861.977
01/09/2014  06:53:00      -92.754       19.704       12.063       80.949       68.303       63.267     6552.679     4665.311     4002.735        1.218        0.761       94.824       58.523        0.381      335.771        6.628      861.952
01/09/2014  06:54:00      -43.030     -102.595       18.687       87.295       71.934       56.887     7620.404     5174.475     3236.183        1.438        0.802      111.254       54.698        0.242      335.793        6.663      861.969
01/09/2014  06:55:00      -41.698      -42.789        7.281       67.452       44.771       32.131     4549.711     2004.483     1032.424        0.560        0.379       59.747       39.634        0.440      335.794        6.665      861.961
01/09/2014  06:56:00      -24.628      -31.566        0.780       38.505       29.772       26.634     1482.601      886.399      709.357        0.234        0.154       40.037       22.958        0.329      335.825        6.716      861.965
01/09/2014  06:57:00       -3.109      -35.762        6.274       44.720       21.759       15.903     1999.909      473.470      252.910        0.203        0.136       35.897       13.482        0.141      335.828        6.723      861.990
01/09/2014  06:58:00       14.284      -13.556       16.743       34.815       36.161       30.520     1212.088     1307.639      931.495        0.206        0.173       19.692       29.483        2.242      335.778        6.638      862.028
01/09/2014  06:59:00      123.218       47.976       28.965       28.070       33.397       30.139      787.911     1115.340      908.342        1.057        0.141      132.228       12.644        0.009      335.718        6.539      862.049
01/09/2014  07:00:00       90.422       35.398       21.303       53.674       38.624       34.124     2880.899     1491.851     1164.469        0.771        0.277       97.104       29.434        0.092      335.692        6.495      862.093
01/09/2014  07:01:00       64.162       50.190       43.530       57.667       30.043       31.559     3325.524      902.567      995.976        0.688        0.261       81.461       26.285        0.104      335.619        6.374      862.113
01/09/2014  07:02:00      126.554       72.957       39.912       52.617       33.337       42.896     2768.496     1111.334     1840.061        1.432        0.286      146.078       30.930        0.045      335.555        6.268      862.123
01/09/2014  07:03:00       86.024       51.964       26.763       43.659       37.919       34.913     1906.114     1437.862     1218.923        0.769        0.228      100.500       22.910        0.052      335.472        6.129      862.128
01/09/2014  07:04:00      119.278       90.074       12.533       43.801       41.219       34.753     1918.484     1699.044     1207.770        1.366        0.241      149.468       28.841        0.037      335.418        6.038      862.069
01/09/2014  07:05:00      115.258       91.300       39.225       48.041       32.864       41.872     2307.902     1080.047     1753.277        1.415        0.257      147.038       34.757        0.056      335.434        6.066      861.999
01/09/2014  07:06:00      109.641       93.908       58.304       46.833       27.583       42.663     2193.342      760.805     1820.124        1.451        0.239      144.360       34.088        0.056      335.414        6.030      861.922
01/09/2014  07:07:00      104.396       56.167       37.055       34.865       34.156       27.436     1215.599     1166.626      752.707        0.928        0.157      118.546       14.188        0.014      335.408        6.023      861.864
01/09/2014  07:08:00       72.913       28.415       54.114       40.175       33.255       30.702     1614.031     1105.899      942.641        0.636        0.183       78.255       30.479        0.152      335.408        6.021      861.835
01/09/2014  07:09:00       63.588        5.284       36.624       50.091       28.786       28.777     2509.148      828.646      828.123        0.479        0.208       63.807       18.513        0.084      335.437        6.070      861.807
01/09/2014  07:10:00       70.103       23.434       38.343       37.065       31.704       28.656     1373.793     1005.131      821.193        0.507        0.160       73.916       15.410        0.043      335.465        6.116      861.804
01/09/2014  07:11:00       34.790       55.528       60.453       33.090       36.945       30.995     1094.946     1364.967      960.715        0.568        0.171       65.527       29.139        0.198      335.497        6.169      861.812
01/09/2014  07:12:00       18.604      -58.210       11.212       27.142       52.166       26.031      736.689     2721.264      677.631        0.400        0.207       61.110       29.506        0.233      335.527        6.222      861.846
01/09/2014  07:13:00       14.375       -7.228       19.672       15.257       34.986       16.842      232.790     1224.033      283.638        0.119        0.087       16.090       18.670        1.346      335.469        6.124      861.860
01/09/2014  07:14:00       14.865       32.375       52.912       29.998       41.098       30.258      899.857     1689.060      915.566        0.379        0.175       35.624       19.524        0.300      335.456        6.102      861.805
01/09/2014  07:15:00        8.560       37.020       77.839       33.571       44.989       31.776     1126.988     2023.999     1009.740        0.583        0.208       37.997       24.522        0.416      335.456        6.102      861.734
01/09/2014  07:16:00       18.810        9.984       60.514       34.284       61.125       36.449     1175.422     3736.264     1328.507        0.518        0.312       21.295       38.274        3.230      335.489        6.157      861.688
01/09/2014  07:17:00       13.887      -25.535       32.964       23.998       50.987       32.465      575.925     2599.723     1053.952        0.308        0.211       29.066       34.573        1.415      335.478        6.140      861.701
01/09/2014  07:18:00       85.185      -99.775       -8.447       26.163       26.937       17.215      684.509      725.614      296.365        0.949        0.085      131.192       12.263        0.009      335.472        6.129      861.771
01/09/2014  07:19:00       75.915     -100.579       -5.265       32.286       27.275       15.850     1042.368      743.914      251.207        0.897        0.102      126.013       16.492        0.017      335.560        6.276      861.847
01/09/2014  07:20:00       88.882      -94.907       -9.418       31.275       29.656       23.203      978.149      879.508      538.380        0.970        0.120      130.029       19.477        0.022      335.682        6.478      861.914
01/09/2014  07:21:00      103.054      -91.742        1.192       52.897       46.910       36.024     2798.049     2200.581     1297.717        1.267        0.315      137.973       38.989        0.080      335.657        6.438      861.941
01/09/2014  07:22:00       91.576      104.744       98.558       90.143       85.544       58.383     8125.849     7317.717     3408.519        2.396        0.943      139.131       62.011        0.199      335.560        6.274      861.907
01/09/2014  07:23:00       84.392      139.865      109.521       76.770       63.730       59.978     5893.563     4061.562     3597.302        2.611        0.678      163.353       58.075        0.126      335.482        6.144      861.900
01/09/2014  07:24:00      123.388       72.861       33.135       77.879       41.517       47.053     6065.159     1723.689     2214.001        1.582        0.500      143.295       16.683        0.014      335.346        5.916      861.948
01/09/2014  07:25:00      102.785       86.355        4.955       70.095       45.128       40.747     4913.320     2036.510     1660.354        1.333        0.431      134.246       34.537        0.066      335.285        5.817      862.015
01/09/2014  07:26:00       33.413      158.375      -22.625       50.472       52.857       28.045     2547.410     2793.886      786.519        1.642        0.306      161.861       28.028        0.030      335.250        5.757      862.111
01/09/2014  07:27:00       14.764      131.288      -12.305       47.024       66.574       33.970     2211.215     4432.147     1153.929        1.270        0.390      132.116       37.856        0.082      335.414        6.031      862.168
01/09/2014  07:28:00       11.946      117.973       -1.270       66.049       71.402       38.272     4362.435     5098.271     1464.752        1.249        0.546      118.576       45.095        0.145      335.440        6.075      862.170
01/09/2014  07:29:00       81.798      109.379       -3.462       72.252       49.543       40.585     5220.339     2454.539     1647.172        1.399        0.466      136.582       33.785        0.061      335.629        6.390      862.122
01/09/2014  07:30:00       84.614       54.436        4.131       26.146       33.761       27.020      683.607     1139.802      730.089        0.635        0.128      100.612       17.830        0.031      335.679        6.473      862.074
01/09/2014  07:31:00       53.375       16.158       21.526       30.099       21.725       25.842      905.970      471.960      667.804        0.281        0.102       55.767       14.127        0.064      335.595        6.334      862.044
01/09/2014  07:32:00       53.516       51.087       14.680       28.248       15.915       20.606      797.958      253.297      424.599        0.358        0.074       73.986        7.167        0.009      335.612        6.363      862.022
01/09/2014  07:33:00       43.103       69.371        6.916       48.801       33.163       26.041     2381.581     1099.772      678.123        0.544        0.208       81.672       27.534        0.114      335.612        6.363      862.018
01/09/2014  07:34:00      -42.645      165.892      -22.053       28.147       75.343       28.778      792.281     5676.512      828.191        1.856        0.365      171.285       37.718        0.048      335.531        6.224      862.024
01/09/2014  07:35:00      -38.676      188.410      -17.770       33.019       26.677       19.742     1090.223      711.665      389.748        1.975        0.110      192.338        9.612        0.002      335.430        6.057      862.013
01/09/2014  07:36:00      -73.446      103.236      -16.627       43.680       63.864       30.683     1907.926     4078.556      941.438        1.163        0.346      126.697       29.876        0.056      335.569        6.290      861.991
01/09/2014  07:37:00      -55.712      137.989      -17.841       43.347       53.713       28.749     1878.995     2885.103      826.497        1.403        0.280      148.811       27.093        0.033      335.714        6.533      861.965
01/09/2014  07:38:00      -40.470      103.944       -8.277       31.340       32.458       21.822      982.179     1053.525      476.203        0.751        0.126      111.544       16.032        0.021      335.864        6.782      861.944
01/09/2014  07:39:00        2.603      143.779      -18.081       14.458       22.536       14.601      209.038      507.890      213.197        1.097        0.047      143.803        9.255        0.004      335.829        6.722      861.958
01/09/2014  07:40:00       50.783       89.283       -5.944       43.220       58.541       32.476     1867.953     3427.031     1054.690        0.847        0.317      102.715       32.093        0.098      335.613        6.363      861.994
01/09/2014  07:41:00       80.348       99.171        9.045       87.692       64.807       53.818     7689.884     4199.972     2896.329        1.558        0.739      127.635       41.311        0.105      335.457        6.102      862.043
01/09/2014  07:42:00       77.436      145.138       -7.330      101.622       84.672       59.945    10327.088     7169.427     3593.388        2.410        1.054      164.504       54.433        0.109      335.683        6.478      862.106
01/09/2014  07:43:00      -51.008      209.041      -31.723       54.742       41.977       27.774     2996.667     1762.031      771.416        2.642        0.277      215.174       19.680        0.008      335.528        6.219      862.161
01/09/2014  07:44:00      -45.403      166.053      -23.894       62.801       75.880       31.631     3943.995     5757.746     1000.512        2.045        0.535      172.148       38.146        0.049      335.665        6.449      862.182
01/09/2014  07:45:00      -57.178      144.260      -16.100       32.964       90.613       36.730     1086.608     8210.639     1349.071        1.749        0.532      155.179       47.443        0.093      335.797        6.668      862.185
01/09/2014  07:46:00      -84.162       70.174      -14.772       31.088       45.487       29.565      966.490     2069.045      874.119        0.807        0.195      109.580       27.596        0.063      335.662        6.446      862.227
01/09/2014  07:47:00     -129.685      108.185      -28.141       35.946       53.938       31.872     1292.103     2909.261     1015.807        1.726        0.261      168.885       30.716        0.033      335.759        6.606      862.255
01/09/2014  07:48:00      -77.751       96.715      -25.906       43.318       45.382       26.176     1876.460     2059.533      685.175        1.034        0.231      124.093       25.804        0.043      335.772        6.629      862.288
01/09/2014  07:49:00      -64.069       98.796      -14.177       36.444       56.318       26.151     1328.182     3171.721      683.873        0.962        0.259      117.752       30.267        0.066      335.805        6.683      862.292
01/09/2014  07:50:00      -31.015      121.816      -13.043       62.640       45.480       28.114     3923.828     2068.427      790.377        1.138        0.339      125.702       27.149        0.047      335.823        6.713      862.300
01/09/2014  07:51:00       14.848      145.401      -16.761       50.343       83.054       41.199     2534.394     6898.016     1697.340        1.638        0.556      146.157       45.978        0.099      335.685        6.484      862.328
01/09/2014  07:52:00      -46.520       43.687      -14.591       64.413       56.930       31.697     4149.031     3241.062     1004.696        0.634        0.420       63.817       21.142        0.110      335.692        6.496      862.361
01/09/2014  07:53:00     -129.498       52.869       -7.249       45.326       54.948       30.053     2054.406     3019.259      903.170        1.280        0.299      139.875       26.388        0.036      335.709        6.523      862.430
01/09/2014  07:54:00     -125.102        8.570      -10.544       47.048       35.980       30.702     2213.484     1294.579      942.587        1.014        0.223      125.395       27.023        0.046      335.737        6.570      862.499
01/09/2014  07:55:00      -53.777       86.600      -15.635       47.581       89.973       30.389     2263.971     8095.126      923.466        1.096        0.564      101.939       33.649        0.109      335.821        6.709      862.538
01/09/2014  07:56:00      -49.715      125.401      -11.083       43.172       43.987       24.348     1863.843     1934.888      592.846        1.135        0.220      134.896       18.956        0.020      335.785        6.652      862.557
01/09/2014  07:57:00      -45.019      143.004      -15.714       42.925       44.230       19.558     1842.549     1956.333      382.532        1.345        0.209      149.923       15.218        0.010      335.870        6.791      862.589
01/09/2014  07:58:00       12.654      114.428      -17.455       32.591       44.680       19.260     1062.183     1996.271      370.950        0.849        0.171      115.125       23.128        0.040      335.819        6.707      862.648
01/09/2014  07:59:00       27.372       61.958       -3.997       64.418       27.416       19.196     4149.734      751.634      368.494        0.494        0.263       67.735       21.293        0.099      335.731        6.561      862.694
01/09/2014  08:00:00      -86.176        4.538       -1.649       43.962       44.986       24.924     1932.620     2023.707      621.228        0.601        0.229       86.296       20.885        0.059      335.758        6.607      862.754
01/09/2014  08:01:00     -106.910       45.233      -12.840       19.438       25.077       20.783      377.839      628.872      431.922        0.754        0.072      116.085       11.928        0.011      335.755        6.601      862.804
01/09/2014  08:02:00      -81.010       91.285       -8.547       40.843       45.649       27.765     1668.146     2083.844      770.922        0.975        0.226      122.047       26.732        0.048      335.780        6.642      862.838
01/09/2014  08:03:00     -113.587      138.762      -24.646       63.923       59.949       38.322     4086.092     3593.907     1468.586        2.095        0.457      179.323       39.118        0.048      335.829        6.722      862.860
01/09/2014  08:04:00       -3.937      148.663      -11.680       66.333       62.738       31.827     4400.055     3936.078     1012.976        1.580        0.467      148.715       37.157        0.062      335.781        6.642      862.833
01/09/2014  08:05:00       -1.292      138.203      -21.734       37.537       30.963       20.199     1409.047      958.733      408.007        1.117        0.139      138.209        7.232        0.003      335.735        6.566      862.815
01/09/2014  08:06:00     -100.683       17.645      -29.408       44.281       33.724       17.120     1960.836     1137.324      293.094        0.735        0.170      102.217       16.523        0.026      335.778        6.638      862.809
01/09/2014  08:07:00     -112.778       22.540      -15.480       32.653       24.756       17.919     1066.225      612.860      321.079        0.773        0.100      115.008       14.404        0.016      335.714        6.532      862.795
01/09/2014  08:08:00     -151.620       99.677      -41.433       55.012       43.053       28.402     3026.273     1853.546      806.672        2.016        0.284      181.450       28.781        0.025      335.803        6.679      862.772
01/09/2014  08:09:00     -111.619       48.402        0.538       71.430       48.446       45.557     5102.261     2347.008     2075.465        1.216        0.476      121.662       42.705        0.123      335.726        6.552      862.741
01/09/2014  08:10:00     -140.614      -48.202       -1.360       99.444       50.668       29.239     9889.177     2567.226      854.900        1.770        0.666      148.647       36.626        0.061      335.685        6.482      862.732
01/09/2014  08:11:00     -235.210       18.505      -19.238       70.963       47.607       33.836     5035.726     2266.453     1144.891        3.224        0.422      235.936       38.845        0.027      335.651        6.424      862.718
01/09/2014  08:12:00     -158.355      -40.135       -5.036       52.804       49.100       32.243     2788.284     2410.762     1039.587        1.647        0.312      163.362       27.009        0.027      335.656        6.433      862.697
01/09/2014  08:13:00     -147.338      -63.356      -13.812       39.821       52.948       29.133     1585.722     2803.490      848.751        1.557        0.262      160.382       11.572        0.005      335.697        6.504      862.675
01/09/2014  08:14:00     -213.506       46.271      -30.713      129.695       61.772       37.164    16820.796     3815.724     1381.189        3.534        1.101      218.463       39.135        0.032      335.706        6.516      862.649
01/09/2014  08:15:00     -329.160       -0.711      -24.997      135.183       77.808       48.894    18274.545     6054.082     2390.625        6.784        1.336      329.160       65.311        0.039      335.779        6.638      862.660
01/09/2014  08:16:00     -246.480      -43.964      -25.363       65.051       63.816       38.285     4231.670     4072.523     1465.741        3.655        0.488      250.370       40.979        0.027      335.768        6.618      862.743
01/09/2014  08:17:00     -221.914      -77.155      -10.243       44.770       39.000       27.304     2004.341     1520.991      745.482        2.979        0.214      234.945       16.540        0.005      335.792        6.657      862.830
01/09/2014  08:18:00     -198.590      -80.389      -13.266       45.546       40.711       26.397     2074.407     1657.369      696.811        2.525        0.221      214.244       15.484        0.005      335.819        6.703      862.891
01/09/2014  08:19:00     -180.446      -87.781       -5.154       58.282       60.977       32.805     3396.759     3718.242     1076.179        2.424        0.410      200.664       24.747        0.015      335.815        6.696      862.931
01/09/2014  08:20:00     -264.777      -47.281      -21.446       64.806       59.380       36.658     4199.765     3526.024     1343.783        4.093        0.453      268.965       30.442        0.013      335.751        6.589      862.949
01/09/2014  08:21:00     -183.881      -48.355       -0.902      132.887       76.122       45.840    17658.956     5794.592     2101.275        3.085        1.278      190.132       65.398        0.118      335.869        6.786      862.942
01/09/2014  08:22:00     -212.027      -40.267       -8.713       92.075       72.236       44.084     8477.824     5217.984     1943.437        3.114        0.782      215.817       39.631        0.034      335.895        6.831      862.914
01/09/2014  08:23:00     -128.425      -28.455        1.596       63.698       55.432       33.578     4057.389     3072.677     1127.503        1.278        0.413      131.540       33.772        0.066      335.932        6.893      862.918
01/09/2014  08:24:00     -251.649      -43.854      -18.737       99.081       77.639       43.427     9817.098     6027.832     1885.918        4.166        0.887      255.441       42.764        0.028      335.917        6.867      862.920
01/09/2014  08:25:00     -300.291       66.810      -20.181       67.515       68.543       48.169     4558.230     4698.147     2320.288        5.331        0.579      307.633       33.821        0.012      335.932        6.890      862.909
01/09/2014  08:26:00     -273.254        1.761      -19.782      106.467       97.773       47.164    11335.230     9559.557     2224.484        4.909        1.156      273.259       48.300        0.031      335.953        6.926      862.921
01/09/2014  08:27:00     -260.649      -83.809      -12.079       68.493       71.237       42.757     4691.275     5074.722     1828.128        4.335        0.580      273.791       42.561        0.024      335.988        6.984      862.924
01/09/2014  08:28:00     -283.084      -58.151      -22.139      109.424       84.029       43.054    11973.688     7060.929     1853.612        5.244        1.044      288.995       43.432        0.023      336.020        7.038      862.952
01/09/2014  08:29:00     -344.434       17.012      -29.902      100.052       86.729       55.035    10010.494     7522.003     3028.878        7.019        1.028      344.854       38.115        0.012      335.985        6.980      862.963
01/09/2014  08:30:00     -154.633      -93.360       -2.862      123.236       76.973       43.898    15187.005     5924.896     1927.047        2.783        1.152      180.631       47.894        0.070      336.050        7.091      862.959
01/09/2014  08:31:00     -280.020       21.944       -8.816      139.710      102.626       59.869    19518.847    10532.113     3584.255        5.630        1.682      280.878       69.900        0.062      336.043        7.076      862.959
01/09/2014  08:32:00     -370.518       13.576      -39.647      112.774       82.524       51.505    12718.060     6810.291     2652.769        8.061        1.109      370.767       52.011        0.020      336.025        7.046      862.970
01/09/2014  08:33:00     -343.041      -68.574      -15.405      115.259       81.635       58.087    13284.598     6664.291     3374.088        7.297        1.166      349.828       59.584        0.029      336.065        7.113      863.039
01/09/2014  08:34:00     -309.732      -35.120      -21.317       98.672       92.127       52.221     9736.180     8487.401     2726.982        5.928        1.048      311.717       53.163        0.029      336.109        7.185      863.078
01/09/2014  08:35:00     -293.372      -76.011       -8.512      166.162      101.097       59.420    27609.883    10220.684     3530.795        6.663        2.068      303.059       60.393        0.040      336.170        7.290      863.079
01/09/2014  08:36:00     -192.827      -83.260       18.391      167.075      110.727       73.488    27914.130    12260.419     5400.440        4.501        2.279      210.035       83.677        0.159      336.224        7.380      863.063
01/09/2014  08:37:00     -251.736       43.540      -13.723      118.960       97.263       54.095    14151.415     9460.067     2926.293        4.599        1.327      255.473       54.186        0.045      336.223        7.379      863.039
01/09/2014  08:38:00     -334.488      -17.376       -6.344      117.576       72.609       52.759    13824.128     5272.055     2783.485        6.705        1.094      334.939       54.163        0.026      336.183        7.311      863.031
01/09/2014  08:39:00     -352.865      -27.961      -23.545       91.916       63.741       48.371     8448.639     4062.869     2339.786        7.035        0.743      353.971       49.701        0.020      336.175        7.298      863.042
01/09/2014  08:40:00     -237.559      -11.626       -5.565       73.070       98.462       59.419     5339.258     9694.710     3530.618        3.758        0.928      237.843       45.112        0.036      336.249        7.419      863.084
01/09/2014  08:41:00     -241.581      -98.987      -23.306      109.874      116.601       59.490    12072.242    13595.694     3539.113        4.895        1.460      261.074       42.603        0.027      336.216        7.366      863.103
01/09/2014  08:42:00     -306.923      -38.595      -22.198      116.690      103.218       63.519    13616.539    10653.881     4034.689        6.224        1.415      309.340       59.905        0.038      336.209        7.353      863.114
01/09/2014  08:43:00     -351.177      -87.248      -14.450      102.875       83.628       54.285    10583.274     6993.560     2946.819        7.583        1.026      361.852       48.384        0.018      336.221        7.375      863.095
01/09/2014  08:44:00     -323.454      -46.800      -18.504       75.094      119.763       49.717     5639.156    14343.144     2471.737        6.480        1.123      326.822       36.424        0.012      336.240        7.405      863.073
01/09/2014  08:45:00     -342.016      -63.863      -15.242      113.799       89.583       62.949    12950.276     8025.035     3962.583        7.311        1.247      347.928       62.487        0.032      336.253        7.428      863.049
01/09/2014  08:46:00     -308.440     -142.211      -13.317      143.939       79.578       54.236    20718.448     6332.650     2941.597        7.276        1.500      339.646       58.774        0.030      336.299        7.505      863.033
01/09/2014  08:47:00     -273.765      -90.524      -15.341       97.247      100.385       63.498     9456.950    10077.207     4032.059        5.347        1.178      288.343       52.146        0.033      336.353        7.593      863.039
01/09/2014  08:48:00     -294.068      -97.208       -9.568      121.865      105.707       54.928    14851.050    11173.942     3017.068        6.252        1.452      309.718       63.831        0.042      336.362        7.610      863.040
01/09/2014  08:49:00     -312.319       -8.060      -14.464      152.502       83.378       53.905    23256.755     6951.920     2905.759        6.546        1.656      312.423       65.770        0.044      336.374        7.629      863.027
01/09/2014  08:50:00     -339.201        0.696      -18.883      101.323       92.410       57.002    10266.438     8539.636     3249.257        6.873        1.103      339.202       59.813        0.031      336.328        7.551      862.972
01/09/2014  08:51:00     -138.199      -56.484        3.441      108.647       85.885       51.009    11804.222     7376.185     2601.913        2.204        1.089      149.296       49.325        0.109      336.511        7.859      862.939
01/09/2014  08:52:00     -208.171      -32.268      -13.335       96.678       77.167       48.827     9346.604     5954.757     2384.093        3.112        0.884      210.657       46.293        0.048      336.423        7.710      862.931
01/09/2014  08:53:00     -334.266      -35.734      -27.127      108.145       90.876       50.901    11695.252     8258.441     2590.903        6.814        1.127      336.170       43.117        0.016      336.340        7.571      862.964
01/09/2014  08:54:00     -298.841      -50.161      -19.280      243.786      132.345       85.730    59431.849    17515.308     7349.559        8.823        4.215      303.022      121.306        0.160      336.353        7.594      862.969
01/09/2014  08:55:00     -344.577       28.342      -29.749      154.276      113.860       73.037    23801.058    12964.211     5334.431        8.125        2.105      345.741       72.339        0.044      336.324        7.545      862.992
01/09/2014  08:56:00     -278.127      -35.724      -10.413      121.902      106.020       60.586    14860.206    11240.219     3670.684        5.425        1.489      280.412       56.976        0.041      336.284        7.478      862.988
01/09/2014  08:57:00     -360.655      -54.564      -10.781      113.372      102.627       57.088    12853.288    10532.364     3259.036        7.990        1.332      364.759       56.841        0.024      336.295        7.496      862.993
01/09/2014  08:58:00     -250.077      -53.224        1.099      209.935      120.855       69.046    44072.898    14606.003     4767.293        6.440        3.172      255.678       75.622        0.087      336.357        7.602      862.981
01/09/2014  08:59:00     -276.690     -121.368       -0.045      182.653      148.120       65.510    33362.185    21939.643     4291.554        7.543        2.980      302.138       82.264        0.074      336.245        7.413      862.951
01/09/2014  09:00:00     -416.202     -169.272       -5.473      209.321      157.145       98.027    43815.463    24694.570     9609.343       14.000        3.906      449.308       96.791        0.046      336.211        7.357      862.914
01/09/2014  09:01:00     -424.284      -19.466      -29.060      157.625      110.669       68.726    24845.756    12247.613     4723.281       11.152        2.091      424.730       65.471        0.024      336.234        7.395      862.907
01/09/2014  09:02:00     -436.755      -63.557      -34.991      184.314      146.057       74.626    33971.656    21332.767     5569.110       12.844        3.044      441.355       80.738        0.033      336.192        7.325      862.868
01/09/2014  09:03:00     -470.079      -22.787      -39.808      120.838      117.364       60.424    14601.907    13774.392     3651.120       12.755        1.601      470.630       59.307        0.016      336.179        7.304      862.861
01/09/2014  09:04:00     -320.081        6.355       -6.188      178.155      114.098       74.035    31739.300    13018.364     5481.243        7.638        2.512      320.144       86.375        0.073      336.238        7.402      862.873
01/09/2014  09:05:00     -396.662      -21.860       -5.842      262.968       89.547       81.242    69151.957     8018.753     6600.297       12.080        4.189      397.264      119.806        0.091      336.238        7.403      862.873
01/09/2014  09:06:00     -333.875      -69.385      -18.487      130.766       93.520       54.596    17099.649     8746.080     2980.777        7.272        1.441      341.008       55.162        0.026      336.212        7.358      862.872
01/09/2014  09:07:00     -302.294      -67.013       -5.188      251.434      136.273       82.612    63218.830    18570.391     6824.816        9.224        4.431      309.632      105.365        0.116      336.232        7.391      862.869
01/09/2014  09:08:00     -319.097      -31.835       10.186      207.522      118.760       94.363    43065.427    14103.960     8904.413        8.450        3.304      320.681      126.658        0.156      336.262        7.441      862.879
01/09/2014  09:09:00     -462.595     -133.532      -22.132      165.975      156.194       74.506    27547.719    24396.613     5551.168       14.490        2.875      481.482       70.582        0.021      336.196        7.332      862.903
01/09/2014  09:10:00     -299.185      -35.692       -3.919      161.968      123.143       69.439    26233.634    15164.126     4821.788        6.850        2.311      301.307       75.580        0.063      336.224        7.379      862.972
01/09/2014  09:11:00     -365.854      -23.879      -17.392      198.868      131.825       59.654    39548.633    17377.732     3558.586        9.759        3.024      366.633       72.633        0.039      336.217        7.368      863.019
01/09/2014  09:12:00     -418.120      -45.937      -25.101      117.641      150.052       69.499    13839.310    22515.478     4830.045       10.937        2.059      420.636       51.252        0.015      336.200        7.339      863.073
01/09/2014  09:13:00     -337.681      -48.178      -15.744      134.309      137.255       67.208    18038.823    18838.893     4516.932        7.899        2.070      341.101       63.458        0.035      336.216        7.364      863.100
01/09/2014  09:14:00     -362.416      -40.620      -10.432      150.524      152.423       64.267    22657.587    23232.840     4130.286        9.155        2.501      364.685       70.616        0.037      336.234        7.395      863.151
01/09/2014  09:15:00     -415.558      -77.327      -24.983      169.739      103.045       65.625    28811.356    10618.247     4306.629       11.151        2.187      422.692       71.316        0.028      336.229        7.387      863.196
01/09/2014  09:16:00     -361.388      -67.996       -1.224      124.176       96.787       61.102    15419.660     9367.700     3733.421        8.187        1.426      367.729       69.529        0.036      336.298        7.502      863.259
01/09/2014  09:17:00     -374.835       -9.016      -30.702      154.161       97.791       60.386    23765.664     9563.091     3646.422        8.924        1.849      374.944       63.527        0.029      336.344        7.578      863.325
01/09/2014  09:18:00     -243.273      -48.472      -18.280      120.060       81.216       47.483    14414.460     6596.116     2254.590        4.256        1.163      248.055       48.017        0.037      336.419        7.703      863.382
01/09/2014  09:19:00     -345.656      -82.652      -27.291      108.451      134.280       56.070    11761.725    18031.204     3143.792        7.999        1.647      355.400       43.560        0.015      336.431        7.723      863.423
01/09/2014  09:20:00     -253.052      -32.817      -40.037      107.251      104.650       53.292    11502.771    10951.706     2840.057        4.600        1.265      255.171       44.926        0.031      336.490        7.823      863.462
01/09/2014  09:21:00     -295.545      -75.790      -25.267      103.583       61.705       48.150    10729.346     3807.561     2318.429        5.529        0.843      305.108       39.794        0.017      336.551        7.927      863.477
01/09/2014  09:22:00     -217.809      -19.109       -3.271       83.380       92.937       47.595     6952.155     8637.372     2265.299        3.283        0.893      218.645       43.015        0.039      336.625        8.049      863.523
01/09/2014  09:23:00     -320.623      -77.729      -14.369      137.379      107.129       63.893    18873.029    11476.613     4082.338        7.173        1.722      329.911       67.886        0.042      336.624        8.048      863.565
01/09/2014  09:24:00     -464.416      -27.635      -35.923      163.345      143.968       71.121    26681.689    20726.710     5058.231       13.509        2.623      465.238       83.973        0.033      336.530        7.891      863.605
01/09/2014  09:25:00     -500.021      -36.673      -35.869      153.622      142.908       74.693    23599.721    20422.676     5579.018       15.112        2.480      501.364       76.877        0.024      336.525        7.883      863.648
01/09/2014  09:26:00     -423.041      -93.725      -12.781      233.373      148.134       91.231    54462.872    21943.815     8323.033       13.631        4.236      433.300      121.746        0.079      336.509        7.854      863.672
01/09/2014  09:27:00     -373.014     -113.955       -4.363      184.054      160.749       62.645    33875.904    25840.333     3924.380       10.788        3.182      390.033       65.365        0.028      336.580        7.975      863.693
01/09/2014  09:28:00     -188.656       -4.666        2.810      159.574      116.719       66.182    25463.736    13623.364     4380.063        3.954        2.173      188.714       69.638        0.136      336.835        8.402      863.722
01/09/2014  09:29:00     -287.433      -76.098      -22.408      130.754      136.662       66.676    17096.570    18676.544     4445.639        6.456        2.011      297.336       72.641        0.060      336.776        8.303      863.732
01/09/2014  09:30:00     -188.536      -89.901       -6.544      122.321      122.665       70.143    14962.445    15046.656     4920.026        3.929        1.746      208.873       72.566        0.121      336.806        8.352      863.709
01/09/2014  09:31:00     -129.238      -51.786       25.924      179.796      125.236       86.413    32326.565    15684.100     7467.293        3.776        2.774      139.228       84.471        0.368      336.853        8.431      863.688
01/09/2014  09:32:00     -321.665     -147.912       -2.679      129.445       87.895       57.832    16755.907     7725.615     3344.568        7.659        1.391      354.043       55.157        0.024      336.626        8.052      863.679
01/09/2014  09:33:00     -230.180     -169.312       -4.449      112.218      121.477       65.494    12592.809    14756.637     4289.419        5.665        1.582      285.743       55.732        0.038      336.585        7.983      863.632
01/09/2014  09:34:00     -189.761     -168.279       -5.987      118.722      102.390       69.026    14094.888    10483.694     4764.567        4.685        1.467      253.628       54.987        0.047      336.813        8.362      863.597
01/09/2014  09:35:00     -221.747      -61.558       11.061      135.624       92.292       57.201    18393.877     8517.898     3271.983        4.163        1.509      230.133       64.230        0.078      336.973        8.631      863.602
01/09/2014  09:36:00     -175.965      -44.017        0.446       85.578       69.660       45.990     7323.642     4852.564     2115.067        2.359        0.715      181.387       30.767        0.029      336.912        8.531      863.631
01/09/2014  09:37:00     -111.658      -17.613       -1.405       81.891       90.801       41.592     6706.158     8244.834     1729.890        1.473        0.834      113.038       38.784        0.118      337.060        8.778      863.650
01/09/2014  09:38:00     -130.990     -108.092       -1.342       90.289       76.990       46.840     8152.026     5927.410     2193.992        2.256        0.814      169.830       40.517        0.057      336.943        8.581      863.682
01/09/2014  09:39:00      -93.081      -69.228        3.171       65.185       62.888       41.149     4249.116     3954.944     1693.280        1.168        0.495      116.003       27.881        0.058      337.002        8.681      863.687
01/09/2014  09:40:00     -136.085      -20.065      -10.353       43.933       49.874       30.338     1930.130     2487.451      920.367        1.218        0.267      137.557       16.158        0.014      337.054        8.768      863.703
01/09/2014  09:41:00     -174.511       17.965      -15.444       83.955       94.736       43.295     7048.410     8974.828     1874.461        2.445        0.895      175.434       42.977        0.060      336.977        8.638      863.695
01/09/2014  09:42:00     -287.411      -47.574      -15.291      119.411       74.046       58.266    14258.973     5482.815     3394.909        5.412        1.157      291.322       62.711        0.046      336.839        8.406      863.655
01/09/2014  09:43:00     -287.377      -11.364      -24.113       91.997      108.884       47.633     8463.462    11855.737     2268.937        5.294        1.129      287.602       44.444        0.024      336.647        8.086      863.616
01/09/2014  09:44:00     -258.813      -97.747      -16.897      108.409       78.247       48.708    11752.437     6122.658     2372.434        4.853        1.012      276.657       34.740        0.016      336.619        8.041      863.587
01/09/2014  09:45:00     -331.309     -113.684      -21.119       91.106       97.535       45.530     8300.325     9513.110     2072.978        7.151        0.994      350.271       25.294        0.005      336.816        8.369      863.594
01/09/2014  09:46:00     -195.291       -2.245        9.360       87.532      101.938       58.954     7661.917    10391.266     3475.606        2.988        1.076      195.304       47.346        0.059      337.102        8.846      863.623
01/09/2014  09:47:00     -176.758      -43.547        9.416      126.667       62.484       52.196    16044.449     3904.200     2724.384        2.795        1.134      182.043       69.072        0.144      337.186        8.988      863.630
01/09/2014  09:48:00      -26.525      -46.569       12.743       57.583       47.721       36.828     3315.799     2277.275     1356.333        0.499        0.347       53.594       33.969        0.402      337.395        9.339      863.625
01/09/2014  09:49:00     -239.983       -5.634      -31.963      100.103       83.979       37.183    10020.619     7052.492     1382.545        3.855        0.923      240.049       38.687        0.026      336.905        8.519      863.635
01/09/2014  09:50:00     -150.922        0.042       -3.807       81.493       99.156       45.340     6641.113     9831.937     2055.732        2.066        0.926      150.922       41.983        0.077      337.182        8.982      863.654
01/09/2014  09:51:00     -304.566       38.363      -38.060      153.113      148.151       69.060    23443.666    21948.852     4769.342        7.291        2.508      306.972       64.077        0.044      337.003        8.681      863.604
01/09/2014  09:52:00     -386.171      -54.378      -28.346      216.300      120.322       63.197    46785.619    14477.424     3993.893       10.906        3.263      389.981       88.295        0.051      336.905        8.517      863.564
01/09/2014  09:53:00     -344.935      -90.780       -5.659      159.457      113.146       73.240    25426.544    12801.954     5364.038        8.542        2.180      356.681       81.494        0.052      337.151        8.929      863.572
01/09/2014  09:54:00     -427.207     -115.794      -43.661      153.405      139.605       71.982    23533.158    19489.635     5181.369       12.300        2.410      442.622       78.594        0.032      336.934        8.565      863.558
01/09/2014  09:55:00     -320.763      -27.235       -5.496      130.662      117.999       67.418    17072.670    13923.744     4545.152        6.960        1.777      321.917       64.041        0.040      337.042        8.746      863.541
01/09/2014  09:56:00     -377.870      -49.732       -5.359      198.239      121.248       70.311    39298.638    14701.004     4943.610       10.211        2.947      381.128       77.803        0.042      337.279        9.142      863.538
01/09/2014  09:57:00     -213.434      -63.666        3.176      198.953      131.553       85.158    39582.283    17306.256     7251.945        5.687        3.207      222.727      102.053        0.210      337.297        9.174      863.529
01/09/2014  09:58:00     -503.045      -79.407      -37.752      175.045      135.152       71.424    30640.852    18265.933     5101.334       15.739        2.700      509.274       74.679        0.022      336.751        8.261      863.535
01/09/2014  09:59:00     -261.434      -70.122        3.676      187.871      120.374       70.458    35295.352    14490.001     4964.282        6.400        2.737      270.675       86.532        0.102      336.952        8.595      863.541
01/09/2014  10:00:00     -300.758      -67.760        3.366      199.259      150.140       64.022    39704.325    22542.060     4098.820        8.069        3.317      308.297       76.584        0.062      337.014        8.701      863.547
01/09/2014  10:01:00     -379.650       17.775      -35.598      142.590      116.734       60.406    20331.809    13626.880     3648.834        9.166        1.880      380.066       59.278        0.024      336.923        8.546      863.564
01/09/2014  10:02:00     -393.632     -200.536      -16.139      133.583       96.250       69.043    17844.526     9264.031     4766.988       11.364        1.594      441.770       49.401        0.013      336.850        8.424      863.530
01/09/2014  10:03:00     -332.160     -140.877      -11.828      138.825      109.921       57.727    19272.441    12082.533     3332.455        8.250        1.734      360.800       63.427        0.031      337.098        8.838      863.523
01/09/2014  10:04:00     -449.449     -147.614      -16.008      151.720      104.586       66.990    23018.945    10938.165     4487.627       13.124        1.922      473.069       66.292        0.020      336.739        8.241      863.472
01/09/2014  10:05:00     -339.624      -94.986       -3.662      143.170      133.785       78.248    20497.506    17898.296     6122.684        8.444        2.226      352.657       74.186        0.044      336.899        8.507      863.436
01/09/2014  10:06:00     -266.056      -26.261        8.724      136.575       95.639       64.571    18652.712     9146.834     4169.461        5.175        1.598      267.348       74.237        0.077      336.969        8.624      863.407
01/09/2014  10:07:00      -93.170       28.492        2.392       84.488       58.184       51.523     7138.215     3385.346     2654.641        1.134        0.659       97.429       40.459        0.172      337.279        9.146      863.343
01/09/2014  10:08:00     -277.747      -97.707      -16.919      106.364      131.578       54.773    11313.212    17312.852     3000.042        5.930        1.581      294.432       61.039        0.043      336.791        8.327      863.312
01/09/2014  10:09:00     -196.221      -69.391        2.577      106.122       76.047       46.725    11261.883     5783.088     2183.200        3.127        0.961      208.129       42.495        0.042      336.903        8.514      863.264
01/09/2014  10:10:00     -100.134      -58.717        7.091       89.595       85.226       42.808     8027.197     7263.411     1832.520        1.532        0.856      116.080       47.440        0.167      337.148        8.925      863.233
01/09/2014  10:11:00     -270.188      -64.089      -14.351      197.977      153.167       68.128    39194.812    23460.094     4641.408        7.229        3.365      277.685       76.134        0.075      336.974        8.632      863.208
01/09/2014  10:12:00     -423.222     -259.004      -21.091      170.259      184.633       85.481    28987.992    34089.313     7307.072       15.850        3.519      496.185       85.275        0.030      336.813        8.364      863.200
01/09/2014  10:13:00     -358.802     -175.573      -12.285      134.585      146.005       72.408    18113.077    21317.577     5242.933       10.219        2.234      399.456       68.922        0.030      336.867        8.453      863.242
01/09/2014  10:14:00     -350.423     -160.884      -19.095      191.493      134.170       80.350    36669.397    18001.672     6456.148       10.508        3.056      385.591       95.952        0.062      336.916        8.535      863.277
01/09/2014  10:15:00     -239.748      -32.948        0.362      168.880      104.769       77.454    28520.395    10976.625     5999.061        5.202        2.275      242.002       91.514        0.143      337.050        8.758      863.285
01/09/2014  10:16:00     -288.307      -57.559       -8.620      129.973      129.815       67.874    16892.893    16852.036     4606.916        6.242        1.918      293.996       58.155        0.039      336.859        8.440      863.274
01/09/2014  10:17:00     -362.391     -173.130      -10.745      193.784      122.554       65.158    37552.355    15019.423     4245.607       10.911        2.841      401.623       88.277        0.048      336.863        8.448      863.223
01/09/2014  10:18:00     -159.014      -34.185        8.858      147.771      110.357       71.503    21836.281    12178.614     5112.721        3.282        1.956      162.647       76.707        0.222      337.139        8.909      863.233
01/09/2014  10:19:00     -385.897      -18.582      -18.332      159.589      149.057       76.295    25468.492    22218.118     5820.979       10.154        2.675      386.344       84.859        0.048      336.977        8.638      863.233
01/09/2014  10:20:00     -324.559      -79.038       -5.714      137.610      138.997       59.139    18936.560    19320.130     3497.479        7.668        2.088      334.044       58.957        0.031      336.980        8.641      863.221
01/09/2014  10:21:00     -354.594     -113.933      -29.890      191.500      140.510       67.965    36672.189    19743.105     4619.219       10.031        3.052      372.448       86.357        0.054      336.976        8.634      863.212
01/09/2014  10:22:00     -113.827      -33.581       12.349      116.702       98.177       53.147    13619.342     9638.784     2824.595        2.016        1.304      118.677       54.269        0.209      337.113        8.867      863.232
01/09/2014  10:23:00     -120.016      -34.468       21.724      131.449       96.859       58.040    17278.857     9381.618     3368.696        2.304        1.501      124.867       69.991        0.314      337.100        8.845      863.204
01/09/2014  10:24:00     -287.803       41.996      -19.957       99.369      128.521       52.460     9874.276    16517.688     2752.084        5.706        1.457      290.851       45.598        0.025      336.793        8.329      863.180
01/09/2014  10:25:00     -175.224      -53.567      -10.423      137.265      103.086       55.934    18841.765    10626.654     3128.633        3.313        1.630      183.229       68.852        0.141      336.824        8.384      863.172
01/09/2014  10:26:00     -336.267     -101.474      -28.029      115.919       95.496       61.892    13437.144     9119.437     3830.660        7.527        1.319      351.244       51.543        0.022      336.669        8.123      863.226
01/09/2014  10:27:00     -283.102      -59.667      -16.071      110.256      115.369       60.194    12156.292    13309.937     3623.282        5.652        1.454      289.321       57.648        0.040      336.682        8.145      863.325
01/09/2014  10:28:00     -180.659       54.103      -37.705       72.350       89.155       47.351     5234.586     7948.556     2242.158        2.620        0.771      188.586       34.221        0.033      336.748        8.257      863.443
01/09/2014  10:29:00     -174.921      144.219      -25.361      101.555      139.395       56.344    10313.378    19430.942     3174.606        4.247        1.646      226.708       60.277        0.071      336.652        8.095      863.502
01/09/2014  10:30:00     -219.650      163.860      -43.622       70.296      113.841       51.438     4941.523    12959.777     2645.835        4.877        1.027      274.037       51.912        0.036      336.626        8.051      863.555
01/09/2014  10:31:00     -189.642       44.961      -22.084      124.676      106.800       54.952    15544.036    11406.226     3019.699        3.422        1.498      194.899       54.988        0.080      336.711        8.194      863.620
01/09/2014  10:32:00     -131.545       98.567       -7.960      114.685       98.161       58.532    13152.585     9635.575     3425.947        2.664        1.311      164.377       62.079        0.143      336.762        8.279      863.665
01/09/2014  10:33:00     -214.780      -28.920      -36.566       81.491       97.681       40.899     6640.853     9541.598     1672.700        3.308        0.893      216.718       31.108        0.021      336.756        8.268      863.717
01/09/2014  10:34:00     -101.288       59.998        8.261       92.231       81.436       65.181     8506.526     6631.859     4248.617        1.665        0.969      117.724       55.284        0.221      337.013        8.699      863.783
01/09/2014  10:35:00      -69.311       89.440      -10.073       75.336      133.550       52.734     5675.585    17835.591     2780.823        1.959        1.315      113.153       50.647        0.200      336.990        8.660      863.813
01/09/2014  10:36:00     -141.770       77.854      -17.250       72.505       77.342       46.455     5256.969     5981.801     2158.093        1.992        0.670      161.741       44.286        0.075      337.032        8.731      863.844
01/09/2014  10:37:00     -119.780        8.768       -6.454       91.528       85.752       52.350     8377.465     7353.486     2740.570        1.647        0.924      120.101       51.014        0.180      336.941        8.580      863.841
01/09/2014  10:38:00     -335.803       86.487      -33.295      120.599      102.552       60.233    14544.234    10516.932     3628.054        7.502        1.434      346.762       56.918        0.027      336.715        8.201      863.833
01/09/2014  10:39:00     -213.397        3.100      -26.052      115.364       98.004       45.091    13308.931     9604.764     2033.197        3.558        1.247      213.419       36.070        0.029      336.753        8.265      863.809
01/09/2014  10:40:00     -176.575       52.670      -25.326      101.028       86.483       51.440    10206.709     7479.381     2646.116        2.746        1.017      184.263       57.619        0.098      336.733        8.230      863.794
01/09/2014  10:41:00     -310.051      -84.980      -38.663       85.922      123.511       57.936     7382.523    15255.066     3356.561        6.542        1.300      321.486       26.964        0.007      336.815        8.367      863.809
01/09/2014  10:42:00     -235.675      -96.677      -26.772      144.317      122.879       68.997    20827.306    15099.244     4760.639        5.314        2.034      254.734       64.958        0.065      336.928        8.555      863.831
01/09/2014  10:43:00     -304.864      -71.497      -21.121      174.563       93.747       62.156    30472.237     8788.484     3863.425        7.080        2.156      313.136       56.272        0.032      336.853        8.430      863.823
01/09/2014  10:44:00     -392.056      -83.520      -14.708      138.262      101.134       61.568    19116.405    10228.074     3790.601        9.701        1.657      400.854       72.149        0.032      336.870        8.458      863.827
01/09/2014  10:45:00     -289.203       21.138      -22.795      162.164       81.071       54.520    26297.168     6572.494     2972.459        6.022        1.792      289.975       72.646        0.063      336.920        8.542      863.787
01/09/2014  10:46:00     -256.939      -21.233      -19.329       97.235      110.184       60.080     9454.671    12140.589     3609.624        4.602        1.260      257.815       38.390        0.022      336.964        8.616      863.700
01/09/2014  10:47:00     -295.299      -73.236      -27.496      137.012      112.155       61.068    18772.192    12578.646     3729.241        6.419        1.754      304.245       65.476        0.046      336.952        8.595      863.584
01/09/2014  10:48:00     -167.937      -61.323       11.914      157.511       93.080       61.430    24809.822     8663.973     3773.700        3.467        1.862      178.783       84.778        0.225      337.023        8.716      863.466
01/09/2014  10:49:00     -139.231      -21.541       10.526      146.772      103.661       50.459    21542.052    10745.551     2546.106        2.739        1.742      140.887       60.306        0.183      337.193        9.001      863.390
01/09/2014  10:50:00      -92.680        3.220        6.706       90.828       62.608       49.489     8249.761     3919.803     2449.139        1.163        0.731       92.736       41.910        0.204      337.148        8.925      863.355
01/09/2014  10:51:00     -270.603       40.917      -31.590      137.652       64.138       58.781    18948.145     4113.646     3455.192        5.120        1.326      273.679       64.052        0.055      336.828        8.389      863.348
01/09/2014  10:52:00     -124.865      191.406      -24.830       88.104       98.286       53.838     7762.350     9660.209     2898.561        3.658        1.016      228.533       54.660        0.057      336.862        8.446      863.338
01/09/2014  10:53:00     -142.581       52.050      -12.635       63.019       43.659       35.025     3971.351     1906.099     1226.770        1.515        0.355      151.785       32.761        0.047      336.760        8.277      863.317
01/09/2014  10:54:00     -146.925      -14.957       24.775       92.811       81.640       56.051     8613.824     6665.123     3141.756        2.042        0.921      147.684       50.601        0.117      336.958        8.606      863.297
01/09/2014  10:55:00     -239.601     -102.262      -11.624      145.926       76.813       56.629    21294.307     5900.195     3206.870        4.920        1.520      260.512       60.619        0.054      336.718        8.205      863.320
01/09/2014  10:56:00     -174.413      -30.644       -1.239       75.333       86.756       49.879     5675.036     7526.561     2487.900        2.352        0.784      177.085       44.115        0.062      336.760        8.276      863.370
01/09/2014  10:57:00     -175.280      -14.265      -36.831       94.217       96.538       39.036     8876.905     9319.563     1523.830        2.600        0.986      175.860       32.610        0.034      336.668        8.123      863.427
01/09/2014  10:58:00      -88.279       34.831        2.432       87.237       45.329       45.250     7610.339     2054.706     2047.557        1.036        0.586       94.902       50.085        0.279      336.891        8.498      863.436
01/09/2014  10:59:00     -124.426      124.032      -14.035      102.817       57.631       56.077    10571.270     3321.343     3144.656        2.405        0.852      175.686       61.837        0.124      336.940        8.577      863.435
01/09/2014  11:00:00      -84.012       67.367      -15.268       44.465      100.957       33.570     1977.130    10192.276     1126.943        1.256        0.665      107.686       13.917        0.017      336.968        8.624      863.449
01/09/2014  11:01:00      -78.799       49.353       -7.279       50.703       53.781       33.141     2570.793     2892.375     1098.320        0.763        0.328       92.978       27.738        0.089      336.997        8.675      863.455
01/09/2014  11:02:00      -61.043      -33.433      -12.913       89.771       74.856       41.254     8058.758     5603.451     1701.933        1.018        0.768       69.599       40.865        0.345      336.851        8.430      863.446
01/09/2014  11:03:00      -39.736       41.948       19.003       81.281      107.382       41.270     6606.600    11530.816     1703.238        1.177        0.992       57.780       52.828        0.836      336.962        8.614      863.416
01/09/2014  11:04:00      -80.926      214.575      -31.759       64.807       76.568       35.212     4199.968     5862.669     1239.856        3.245        0.565      229.329       18.347        0.006      336.792        8.329      863.359
01/09/2014  11:05:00      -59.473       89.473        5.002       74.925       79.547       46.907     5613.745     6327.752     2200.273        1.285        0.707      107.436       53.844        0.251      336.977        8.641      863.274
01/09/2014  11:06:00      -36.211       74.138       10.985       55.151       41.744       42.753     3041.595     1742.594     1827.830        0.677        0.331       82.509       37.448        0.206      337.155        8.939      863.219
01/09/2014  11:07:00      -79.705      160.838      -18.477       86.822       87.806       58.090     7538.135     7709.934     3374.393        2.559        0.931      179.504       50.444        0.079      336.947        8.589      863.171
01/09/2014  11:08:00      -73.278      166.739       -0.091       92.791      133.858       61.913     8610.219    17917.886     3833.159        3.176        1.518      182.131       63.076        0.120      336.975        8.636      863.123
01/09/2014  11:09:00     -119.473      -47.504       -7.598       66.796       54.305       41.474     4461.743     2949.074     1720.097        1.286        0.457      128.571       32.572        0.064      336.785        8.320      863.113
01/09/2014  11:10:00     -142.445       77.453      -16.922       93.294       58.549       37.411     8703.824     3427.958     1399.550        2.005        0.677      162.140       35.286        0.047      336.830        8.393      863.106
01/09/2014  11:11:00      -24.296      225.044      -18.534       61.780      158.992       37.881     3816.783    25278.301     1434.983        4.105        1.527      226.352       62.831        0.077      336.782        8.313      863.109
01/09/2014  11:12:00      -46.598      210.367      -14.008       54.246       91.072       41.393     2942.662     8294.130     1713.363        2.978        0.648      215.466       51.781        0.058      336.750        8.259      863.135
01/09/2014  11:13:00      -64.148      219.154      -15.259       73.909       97.377       42.398     5462.599     9482.361     1797.615        3.456        0.837      228.350       49.533        0.047      336.741        8.244      863.186
01/09/2014  11:14:00      -32.571      206.131      -22.954       52.717       83.343       33.930     2779.086     6946.057     1151.270        2.748        0.544      208.689       39.750        0.036      336.812        8.364      863.260
01/09/2014  11:15:00      -93.775      205.212      -21.615      103.628       86.115       44.995    10738.850     7415.754     2024.521        3.577        1.009      225.623       35.897        0.025      336.850        8.425      863.306
01/09/2014  11:16:00     -101.809      224.040      -22.237       46.213       80.046       40.400     2135.649     6407.303     1632.171        3.561        0.509      246.087       42.553        0.030      336.734        8.232      863.303
01/09/2014  11:17:00      -55.308      131.206       -3.906       45.988       68.996       34.971     2114.887     4760.465     1223.002        1.419        0.405      142.387       35.939        0.064      336.922        8.546      863.257
01/09/2014  11:18:00      -18.090       70.290       -2.656       27.039       36.065       23.504      731.123     1300.684      552.447        0.393        0.129       72.581       12.049        0.028      337.000        8.679      863.217
01/09/2014  11:19:00      -32.935      191.499      -22.817       48.726       91.649       29.624     2374.265     8399.552      877.603        2.496        0.583      194.311       31.092        0.026      336.858        8.439      863.199
01/09/2014  11:20:00      -41.261      238.096      -20.398       43.735      113.651       39.382     1912.789    12916.493     1550.981        3.759        0.819      241.644       42.379        0.031      336.792        8.329      863.201
01/09/2014  11:21:00      -76.497      264.752      -22.328       66.701       65.415       44.882     4449.033     4279.104     2014.387        4.359        0.537      275.582       33.384        0.015      336.760        8.275      863.210
01/09/2014  11:22:00      -56.703      303.152      -34.346       32.256       70.049       29.631     1040.457     4906.885      877.982        5.156        0.341      308.409       30.669        0.010      336.651        8.094      863.218
01/09/2014  11:23:00      -11.185      154.393       -4.755       55.851       64.003       40.765     3119.361     4096.360     1661.786        1.643        0.444      154.797       42.594        0.076      336.848        8.425      863.213
01/09/2014  11:24:00        0.322      192.960      -19.921       41.801       77.874       37.145     1747.328     6064.291     1379.779        2.341        0.460      192.960       35.206        0.033      336.819        8.374      863.189
01/09/2014  11:25:00      -40.066      319.099      -29.512       57.042      123.170       43.253     3253.785    15170.926     1870.837        6.229        1.015      321.605       53.963        0.028      336.720        8.210      863.197
01/09/2014  11:26:00      -88.081      393.098      -39.328       56.589       66.275       34.196     3202.329     4392.319     1169.363        8.630        0.438      402.845       28.010        0.005      336.589        7.991      863.215
01/09/2014  11:27:00      -22.507      258.029      -28.770       46.097      105.418       40.860     2124.898    11112.920     1669.521        4.141        0.745      259.009       52.393        0.041      336.731        8.227      863.207
01/09/2014  11:28:00      -50.365      251.864      -22.621       54.634       70.269       32.663     2984.883     4937.662     1066.901        3.774        0.449      256.850       26.188        0.010      336.786        8.317      863.211
01/09/2014  11:29:00      -56.854      166.438      -18.783       60.905       87.398       43.213     3709.380     7638.396     1867.375        2.225        0.661      175.880       39.546        0.051      336.798        8.340      863.236
01/09/2014  11:30:00      -15.574      236.481      -38.594       69.767       45.332       25.795     4867.447     2054.997      665.395        3.262        0.379      236.993       20.743        0.008      336.772        8.295      863.243
01/09/2014  11:31:00      -57.101      172.571      -20.251       52.671       43.906       25.405     2774.259     1927.711      645.422        1.940        0.267      181.772       22.271        0.015      336.894        8.501      863.229
01/09/2014  11:32:00      -24.337      186.251      -14.316       58.004       76.107       36.951     3364.412     5792.342     1365.413        2.300        0.526      187.835       41.537        0.049      336.865        8.451      863.231
01/09/2014  11:33:00       43.976      240.456      -33.124       51.399       71.867       45.260     2641.881     5164.875     2048.484        3.535        0.493      244.445       45.793        0.035      336.860        8.441      863.239
01/09/2014  11:34:00       12.719      118.190       -1.167       57.806       77.883       42.515     3341.527     6065.742     1807.550        1.267        0.561      118.873       47.083        0.157      336.958        8.607      863.263
01/09/2014  11:35:00      -14.287      167.809      -20.431       52.298       70.403       42.135     2735.029     4956.544     1775.356        1.912        0.473      168.416       38.636        0.053      336.952        8.597      863.289
01/09/2014  11:36:00      -25.029      265.300      -38.015       37.370       46.737       17.932     1396.534     2184.312      321.564        3.818        0.195      266.478        9.628        0.001      336.729        8.222      863.304
01/09/2014  11:37:00      -67.227      191.972      -28.154       69.966       61.984       29.563     4895.253     3841.962      873.992        2.589        0.481      203.403       22.283        0.012      336.880        8.475      863.335
01/09/2014  11:38:00      -79.376      144.783      -21.754       50.978       71.210       39.757     2598.778     5070.857     1580.639        1.849        0.463      165.114       39.691        0.058      336.934        8.567      863.373
01/09/2014  11:39:00      -85.976      213.251      -20.852       92.103      109.271       48.820     8483.018    11940.068     2383.388        3.805        1.140      229.930       61.889        0.072      336.939        8.574      863.391
01/09/2014  11:40:00      -39.605      275.045      -24.602       74.609      137.069       59.247     5566.450    18787.994     3510.233        5.284        1.393      277.882       67.435        0.059      336.882        8.478      863.383
01/09/2014  11:41:00      -52.191      365.089      -40.495       55.103       80.383       34.468     3036.360     6461.368     1188.032        7.417        0.534      368.801       23.849        0.004      336.843        8.413      863.360
01/09/2014  11:42:00      -44.924      290.473      -32.803       73.049       97.911       43.562     5336.185     9586.550     1897.668        5.214        0.841      293.927       38.508        0.017      336.936        8.568      863.322
01/09/2014  11:43:00     -144.031      286.692      -39.028       79.543      117.017       50.397     6327.105    13692.881     2539.817        6.351        1.128      320.838       58.535        0.033      336.886        8.483      863.309
01/09/2014  11:44:00     -106.202      263.610      -30.045      100.527      101.943       48.378    10105.736    10392.422     2340.389        5.225        1.142      284.198       60.788        0.046      336.896        8.501      863.275
01/09/2014  11:45:00      -56.673      168.825      -17.840       46.678       71.505       35.732     2178.835     5112.925     1276.808        2.030        0.428      178.083       33.435        0.035      336.967        8.623      863.235
01/09/2014  11:46:00      -74.749      107.049      -10.482       43.807       67.042       32.952     1919.057     4494.596     1085.817        1.233        0.375      130.564       23.495        0.032      337.017        8.707      863.231
01/09/2014  11:47:00      -74.655      150.036       -9.352       52.013       66.009       41.102     2705.339     4357.184     1689.377        1.846        0.438      167.583       34.062        0.041      337.028        8.725      863.227
01/09/2014  11:48:00     -194.644      349.698      -61.732      112.139       90.530       61.125    12575.227     8195.689     3736.291        9.424        1.225      400.219       69.320        0.030      336.863        8.447      863.240
01/09/2014  11:49:00      -52.110      214.935      -29.692       60.978      102.484       40.594     3718.278    10502.972     1647.872        3.283        0.793      221.161       39.102        0.031      336.972        8.630      863.270
01/09/2014  11:50:00      -99.050      194.026      -15.723      105.966      120.873       51.544    11228.802    14610.341     2656.802        3.810        1.425      217.846       45.737        0.044      336.998        8.671      863.288
01/09/2014  11:51:00      -81.945      310.395      -38.046       77.980       98.106       49.172     6080.919     9624.714     2417.917        6.131        0.906      321.030       53.508        0.028      336.889        8.490      863.286
01/09/2014  11:52:00      -89.224      245.020      -21.886       65.275      103.769       47.919     4260.830    10767.997     2296.226        4.290        0.866      260.760       48.397        0.034      336.936        8.569      863.232
01/09/2014  11:53:00      -64.350      270.768      -24.843       82.378      106.273       52.005     6786.120    11293.986     2704.569        4.943        1.039      278.310       51.113        0.034      336.950        8.592      863.174
01/09/2014  11:54:00      -42.083      261.193      -25.175       46.620       75.821       45.392     2173.391     5748.862     2060.467        4.030        0.499      264.561       45.837        0.030      336.869        8.455      863.165
01/09/2014  11:55:00      -23.363      237.231      -13.210       55.631      115.275       52.067     3094.773    13288.404     2710.963        3.804        0.955      238.379       57.719        0.059      336.892        8.494      863.125
01/09/2014  11:56:00      -70.701      326.913      -24.383       94.257      112.089       64.187     8884.469    12563.856     4119.927        6.901        1.278      334.471       61.831        0.034      336.822        8.379      863.125
01/09/2014  11:57:00       19.249      251.269       -9.305       85.349      122.062       66.458     7284.466    14899.060     4416.627        4.509        1.330      252.006       69.993        0.077      336.861        8.444      863.108
01/09/2014  11:58:00       13.792      329.283      -30.192       66.033      155.116       69.911     4360.316    24061.049     4887.584        7.141        1.665      329.572       87.311        0.070      336.810        8.359      863.098
01/09/2014  11:59:00        3.794      243.604      -24.687       84.850      108.755       64.765     7199.526    11827.583     4194.543        4.159        1.161      243.633       70.245        0.083      336.842        8.412      863.088
01/09/2014  12:00:00      -29.471      310.346      -39.529       55.344       84.201       38.270     3062.940     7089.805     1464.581        5.518        0.581      311.742       27.424        0.008      336.812        8.360      863.091
01/09/2014  12:01:00      -65.189      244.521      -18.248       72.457       98.185       44.638     5249.955     9640.301     1992.587        4.063        0.844      253.062       47.128        0.035      336.930        8.559      863.067
01/09/2014  12:02:00      -41.528      237.133      -20.184       62.445       93.103       45.070     3899.375     8668.155     2031.306        3.648        0.730      240.742       44.282        0.034      336.982        8.644      863.025
01/09/2014  12:03:00     -100.855      326.023      -38.516       61.281      100.037       43.408     3755.398    10007.327     1884.280        6.679        0.782      341.267       43.173        0.016      336.896        8.501      863.040
01/09/2014  12:04:00      -36.290      259.171      -28.076       67.324      130.971       45.462     4532.462    17153.386     2066.835        4.651        1.188      261.700       48.199        0.034      336.929        8.557      863.056
01/09/2014  12:05:00      -77.406      220.828      -33.192       56.164       54.822       37.471     3154.404     3005.486     1404.063        3.171        0.378      234.002       32.673        0.019      336.964        8.613      863.010
01/09/2014  12:06:00       14.505      330.246      -26.091      107.362      196.597       80.955    11526.678    38650.569     6553.677        8.333        2.837      330.564      101.073        0.093      336.892        8.496      862.940
01/09/2014  12:07:00      -94.850      305.100      -28.159       94.033      138.538       66.720     8842.241    19192.800     4451.547        6.768        1.624      319.503       59.969        0.035      337.084        8.818      862.904
01/09/2014  12:08:00      -45.765      237.638      -22.428       68.114      114.781       44.111     4639.507    13174.570     1945.779        3.941        0.988      242.004       47.944        0.039      336.940        8.575      862.909
01/09/2014  12:09:00      -44.968      321.813      -36.085       62.766      105.577       50.369     3939.563    11146.536     2537.007        6.225        0.881      324.939       13.467        0.002      336.903        8.513      862.876
01/09/2014  12:10:00     -119.780      179.149      -28.681       60.012      100.463       42.455     3601.498    10092.725     1802.400        3.138        0.775      215.503       38.530        0.032      336.873        8.464      862.827
01/09/2014  12:11:00      -83.058      135.941      -17.080       54.439       85.143       30.026     2963.555     7249.352      901.588        1.839        0.556      159.307       16.682        0.011      336.922        8.548      862.802
01/09/2014  12:12:00      -86.974      150.748      -20.892       42.064       82.014       27.319     1769.389     6726.377      746.351        1.998        0.462      174.038       20.178        0.013      336.958        8.607      862.770
01/09/2014  12:13:00     -104.240       14.688      -13.500       55.584       53.890       27.928     3089.618     2904.094      779.960        0.902        0.339      105.270       24.864        0.056      336.981        8.645      862.725
01/09/2014  12:14:00     -174.516      292.287      -34.995       79.165      109.382       52.622     6267.126    11964.434     2769.044        6.905        1.050      340.423       57.534        0.029      336.926        8.552      862.754
01/09/2014  12:15:00      -95.750      223.087      -23.611       48.740       96.505       39.581     2375.606     9313.217     1566.655        3.637        0.663      242.767       39.374        0.026      336.885        8.483      862.735
01/09/2014  12:16:00     -123.123      238.579      -27.974       83.172       82.703       52.477     6917.635     6839.745     2753.846        4.468        0.826      268.476       47.943        0.032      336.927        8.554      862.725
01/09/2014  12:17:00     -163.276      271.126      -44.685       80.214      134.578       47.879     6434.225    18111.299     2292.364        6.450        1.342      316.494       60.691        0.037      336.844        8.415      862.717
01/09/2014  12:18:00     -111.781      149.110      -20.907       52.175       69.186       39.025     2722.180     4786.668     1522.944        2.210        0.452      186.356       32.486        0.030      336.967        8.620      862.706
01/09/2014  12:19:00      -67.596      129.439      -15.231       69.339       73.605       36.323     4807.866     5417.766     1319.356        1.655        0.577      146.026       29.217        0.040      337.050        8.761      862.713
01/09/2014  12:20:00      -69.296      194.253      -32.424       76.467      108.215       47.991     5847.260    11710.541     2303.105        3.172        0.993      206.243       35.168        0.029      336.971        8.627      862.705
01/09/2014  12:21:00      -41.565      211.145      -14.377       46.106       98.476       45.107     2125.721     9697.566     2034.658        3.018        0.693      215.198       40.913        0.036      337.033        8.730      862.723
01/09/2014  12:22:00      -96.441       93.316      -16.931       73.153      100.725       42.313     5351.345    10145.490     1790.406        1.779        0.864      134.196       39.614        0.087      337.123        8.884      862.766
01/09/2014  12:23:00     -182.005       -1.118       -4.842      177.358       99.041       65.769    31455.952     9809.061     4325.523        3.936        2.280      182.008       92.358        0.257      336.999        8.675      862.782
01/09/2014  12:24:00     -200.913       29.296      -15.971      115.585      103.104       52.596    13359.832    10630.384     2766.289        3.411        1.338      203.037       61.248        0.091      337.000        8.676      862.769
01/09/2014  12:25:00     -168.088      -78.928       -1.398       90.534       69.487       54.114     8196.398     4828.464     2928.354        2.522        0.798      185.697       49.030        0.070      336.977        8.638      862.739
01/09/2014  12:26:00      -65.043       90.827        1.278       60.285      100.612       52.311     3634.333    10122.756     2736.488        1.448        0.825      111.714       51.880        0.216      336.940        8.578      862.745
01/09/2014  12:27:00      -26.920      199.176       -5.085       62.688       91.272       40.496     3929.776     8330.527     1639.953        2.716        0.695      200.987       38.839        0.037      336.934        8.566      862.727
01/09/2014  12:28:00      -38.161       13.573       10.459       71.968       60.890       43.555     5179.430     3707.573     1897.046        0.627        0.539       40.503       31.845        0.618      337.055        8.769      862.702
01/09/2014  12:29:00      -42.836       33.846       -7.146       29.177       41.072       20.530      851.281     1686.888      421.500        0.300        0.148       54.594       13.160        0.058      337.019        8.709      862.702
01/09/2014  12:30:00      -84.711      125.071      -17.247       57.495       78.074       41.470     3305.657     6095.618     1719.740        1.712        0.556      151.059       45.560        0.091      336.958        8.606      862.724
01/09/2014  12:31:00      -81.247       75.127       -9.837       66.111       98.563       38.853     4370.682     9714.689     1509.558        1.397        0.780      110.658       17.905        0.026      336.874        8.468      862.729
01/09/2014  12:32:00      -52.988      218.149      -31.209       43.650      103.277       44.042     1905.290    10666.105     1939.702        3.294        0.726      224.492       47.458        0.045      336.932        8.563      862.734
01/09/2014  12:33:00      -34.508      322.213      -40.783       63.452       79.987       42.589     4026.198     6397.898     1813.838        5.945        0.612      324.055       31.941        0.010      336.878        8.470      862.718
01/09/2014  12:34:00       10.896      256.707      -19.446       62.047       84.737       56.543     3849.797     7180.285     3197.121        4.031        0.711      256.938       57.306        0.050      336.908        8.521      862.710
01/09/2014  12:35:00     -106.139      391.877      -44.862       77.876       78.544       45.734     6064.707     6169.204     2091.553        9.058        0.716      405.997       40.919        0.010      336.779        8.307      862.707
01/09/2014  12:36:00      -68.744      300.775      -38.498       65.939      111.094       47.269     4347.897    12341.948     2234.336        5.780        0.946      308.531       49.170        0.025      336.815        8.367      862.733
01/09/2014  12:37:00      -50.000      207.722      -12.331       65.871       97.796       50.339     4338.967     9563.961     2534.031        3.112        0.822      213.655       56.279        0.069      336.938        8.572      862.747
01/09/2014  12:38:00      -53.253      113.708       -4.740       37.654       63.050       37.815     1417.800     3975.297     1429.968        1.130        0.341      125.560       29.767        0.056      337.002        8.681      862.747
01/09/2014  12:39:00      -76.407      181.289      -17.691       79.747       88.595       42.921     6359.613     7849.003     1842.205        2.753        0.803      196.732       42.675        0.047      337.014        8.700      862.737
01/09/2014  12:40:00      -70.168      209.405      -15.401       67.214      115.535       54.960     4517.763    13348.372     3020.554        3.495        1.044      220.848       59.428        0.072      336.960        8.610      862.704
01/09/2014  12:41:00        4.829      239.564      -23.950       86.471       87.771       57.222     7477.254     7703.767     3274.374        3.822        0.923      239.613       45.448        0.036      336.909        8.524      862.668
01/09/2014  12:42:00      -41.337       34.849       -3.017       63.877       47.118       38.812     4080.243     2220.069     1506.366        0.537        0.390       54.066       36.874        0.465      337.023        8.716      862.626
01/09/2014  12:43:00      -12.433      138.579      -17.663       75.927       99.775       49.381     5764.937     9955.033     2438.497        1.891        0.908      139.136       39.856        0.082      337.025        8.718      862.600
01/09/2014  12:44:00      -28.627      305.558      -25.488       75.842      127.935       58.202     5751.982    16367.306     3387.497        6.017        1.275      306.896       57.075        0.035      336.900        8.509      862.575
01/09/2014  12:45:00      -87.859      229.016      -28.613       66.035      100.122       54.528     4360.639    10024.500     2973.326        3.917        0.868      245.291       57.913        0.056      336.938        8.573      862.570
01/09/2014  12:46:00        7.586      358.205      -39.128       78.616       78.055       51.328     6180.432     6092.656     2634.613        7.240        0.745      358.285       34.088        0.009      336.887        8.485      862.561
01/09/2014  12:47:00       -7.405      232.390      -16.047       83.075      104.512       59.738     6901.517    10922.761     3568.592        3.785        1.070      232.508       63.581        0.075      336.998        8.671      862.563
01/09/2014  12:48:00       75.586      119.694       30.991       84.463       71.705       62.263     7133.996     5141.615     3876.711        1.857        0.808      141.562       54.906        0.150      337.000        8.678      862.576
01/09/2014  12:49:00       42.262      151.282        2.450       93.482      117.759       54.017     8738.840    13867.096     2917.873        2.510        1.276      157.074       55.593        0.125      337.048        8.757      862.600
01/09/2014  12:50:00      -20.883      180.717      -20.311       72.942       93.650       63.496     5320.477     8770.254     4031.680        2.581        0.906      181.919       62.728        0.119      337.119        8.875      862.613
01/09/2014  12:51:00     -119.628      327.428      -34.474       95.887       91.481       57.546     9194.378     8368.820     3311.583        7.179        1.044      348.597       49.941        0.021      337.075        8.800      862.615
01/09/2014  12:52:00      -17.263      266.213      -31.306       68.993       86.330       52.624     4760.055     7452.792     2769.304        4.356        0.749      266.772       49.438        0.034      337.148        8.923      862.595
01/09/2014  12:53:00       15.184      123.919       10.478       67.168       85.127       57.836     4511.568     7246.574     3345.016        1.540        0.755      124.846       53.318        0.182      337.248        9.093      862.573
01/09/2014  12:54:00       51.301      101.892        7.806       59.397       55.757       43.349     3527.951     3108.851     1879.159        1.079        0.426      114.078       29.510        0.067      337.219        9.046      862.542
01/09/2014  12:55:00       55.124       90.895        2.682       61.999       53.281       46.847     3843.905     2838.897     2194.664        1.009        0.444      106.304       38.922        0.134      337.207        9.026      862.535
01/09/2014  12:56:00      -17.722       99.160      -11.101       47.913       65.921       22.183     2295.617     4345.519      492.102        0.870        0.357      100.731       27.674        0.075      337.233        9.069      862.518
01/09/2014  12:57:00       14.565      121.079       -5.003       49.717       66.677       43.860     2471.809     4445.825     1923.676        1.187        0.442      121.952       28.416        0.054      337.274        9.138      862.483
01/09/2014  12:58:00      -48.293      225.468      -34.704       70.165       93.706       36.500     4923.123     8780.884     1332.249        3.470        0.752      230.582       35.781        0.024      337.341        9.248      862.449
01/09/2014  12:59:00      -98.745      195.335      -26.695       87.146      115.838       44.953     7594.430    13418.517     2020.750        3.582        1.152      218.875       37.684        0.030      337.378        9.310      862.419
01/09/2014  13:00:00     -126.657      145.333       -3.112       86.942      118.609       59.304     7558.873    14068.032     3516.985        3.115        1.257      192.779       56.162        0.085      337.379        9.311      862.389
01/09/2014  13:01:00     -114.102      117.682      -26.248       74.403      105.356       47.508     5535.747    11099.859     2257.006        2.322        0.945      163.916       51.558        0.099      337.441        9.415      862.407
01/09/2014  13:02:00      -95.803       99.062       -9.980       95.220       83.589       53.161     9066.772     6987.116     2826.078        1.898        0.944      137.809       42.534        0.095      337.494        9.503      862.386
01/09/2014  13:03:00      -93.153       84.934      -15.654       46.024       76.206       33.047     2118.225     5807.353     1092.119        1.258        0.451      126.061       33.912        0.072      337.505        9.524      862.318
01/09/2014  13:04:00      -84.959      225.096      -13.899       95.752      176.956       59.182     9168.498    31313.473     3502.534        5.102        2.199      240.596       53.295        0.049      337.502        9.516      862.264
01/09/2014  13:05:00      -80.146      295.943      -14.607       86.252      158.092       71.914     7439.354    24993.203     5171.576        6.591        1.880      306.603       69.978        0.052      337.461        9.447      862.209
01/09/2014  13:06:00     -151.289      332.398      -35.645      102.411      131.056       68.278    10488.085    17175.658     4661.819        8.348        1.616      365.208       68.516        0.035      337.364        9.284      862.185
01/09/2014  13:07:00      -64.329      219.455      -20.604       78.143      111.607       50.088     6106.274    12456.187     2508.762        3.689        1.054      228.689       48.308        0.045      337.508        9.527      862.185
01/09/2014  13:08:00     -114.247      175.075      -16.844       81.559       80.808       55.042     6651.918     6529.941     3029.650        3.010        0.811      209.054       50.592        0.059      337.508        9.528      862.171
01/09/2014  13:09:00     -136.938      262.982      -35.451       97.497      109.287       57.187     9505.680    11943.616     3270.335        5.694        1.236      296.499       47.475        0.026      337.452        9.432      862.145
01/09/2014  13:10:00     -144.510      243.270      -33.501       99.172      138.569       73.118     9835.056    19201.479     5346.245        5.778        1.719      282.954       80.234        0.080      337.448        9.426      862.120
01/09/2014  13:11:00     -181.589      319.153      -38.348       92.826      148.319       54.851     8616.684    21998.577     3008.612        8.496        1.681      367.197       44.054        0.014      337.439        9.408      862.101
01/09/2014  13:12:00     -174.359      317.967      -46.608      105.434      114.566       63.303    11116.432    13125.407     4007.260        8.096        1.412      362.635       68.645        0.036      337.358        9.274      862.101
01/09/2014  13:13:00     -117.750      217.950      -13.734       80.552      149.678       59.970     6488.636    22403.391     3596.387        4.702        1.624      247.724       50.534        0.042      337.428        9.393      862.036
01/09/2014  13:14:00      -83.857      122.661      -15.231       70.966       64.220       41.120     5036.237     4124.244     1690.855        1.658        0.543      148.586       36.307        0.060      337.509        9.529      861.993
01/09/2014  13:15:00      -67.206      196.291      -15.680       55.270       82.982       43.780     3054.788     6886.076     1916.728        2.757        0.593      207.477       39.740        0.037      337.546        9.589      861.932
01/09/2014  13:16:00      -98.628      177.846       -9.281       72.460      111.901       58.155     5250.417    12521.809     3381.953        3.130        1.058      203.364       55.691        0.075      337.525        9.555      861.894
01/09/2014  13:17:00     -157.475      208.142      -33.513      100.849      106.096       50.876    10170.605    11256.420     2588.403        4.663        1.201      261.000       60.915        0.054      337.383        9.318      861.873
01/09/2014  13:18:00     -170.416      167.409      -36.573       77.368       88.112       49.429     5985.880     7763.694     2443.181        3.730        0.810      238.888       42.697        0.032      337.395        9.339      861.859
01/09/2014  13:19:00     -104.711      282.716      -27.739       85.649      101.431       68.050     7335.825    10288.342     4630.751        5.695        1.113      301.484       66.787        0.049      337.414        9.368      861.830
01/09/2014  13:20:00     -149.964      214.473      -33.163       92.509      104.459       53.058     8557.854    10911.704     2815.148        4.593        1.114      261.702       59.010        0.051      337.479        9.477      861.822
01/09/2014  13:21:00     -127.011       59.493      -13.067       71.581       95.644       34.577     5123.840     9147.783     1195.542        1.765        0.773      140.254       22.765        0.026      337.507        9.527      861.805
01/09/2014  13:22:00      -50.110       99.658       -4.638       83.105       73.245       47.398     6906.475     5364.871     2246.535        1.349        0.726      111.547       54.236        0.236      337.667        9.796      861.761
01/09/2014  13:23:00      -66.029       46.214       -3.293       58.558       59.365       38.031     3429.045     3524.252     1446.391        0.745        0.420       80.596       38.210        0.225      337.737        9.912      861.714
01/09/2014  13:24:00     -109.413      192.718      -23.686       90.538      129.588       48.475     8197.068    16793.154     2349.799        3.850        1.367      221.611       67.501        0.093      337.691        9.835      861.690
01/09/2014  13:25:00     -117.770      206.779      -26.320      118.299      109.624       55.358    13994.767    12017.450     3064.523        4.319        1.454      237.965       53.153        0.050      337.741        9.918      861.664
01/09/2014  13:26:00     -168.892      200.297      -44.389       96.083       76.956       53.912     9232.009     5922.198     2906.557        4.433        0.903      261.999       45.662        0.030      337.701        9.848      861.637
01/09/2014  13:27:00      -58.829      346.451      -30.569       83.149      117.620       56.618     6913.759    13834.402     3205.599        7.418        1.198      351.410       47.312        0.018      337.669        9.796      861.583
01/09/2014  13:28:00      -86.561      285.560      -25.084       90.529      132.398       61.039     8195.567    17529.240     3725.799        5.955        1.473      298.392       50.545        0.029      337.716        9.875      861.544
01/09/2014  13:29:00     -116.146      263.737      -30.891       89.923      124.445       55.667     8086.063    15486.563     3098.775        5.533        1.334      288.179       38.493        0.018      337.791       10.001      861.520
01/09/2014  13:30:00      -85.973      175.512       -0.068       90.277      104.554       64.884     8149.985    10931.587     4209.914        3.074        1.165      195.437       53.728        0.076      338.002       10.357      861.519
01/09/2014  13:31:00     -108.461       50.198       -3.378       58.452       49.880       42.415     3416.607     2488.001     1799.067        1.100        0.385      119.514       35.633        0.089      338.061       10.456      861.485
01/09/2014  13:32:00     -131.460        3.653      -13.234       91.363       82.291       43.071     8347.201     6771.838     1855.094        1.722        0.849      131.510       51.163        0.151      338.104       10.527      861.467
01/09/2014  13:33:00     -128.121      125.247      -21.145       60.017      113.223       43.207     3601.996    12819.516     1866.811        2.542        0.914      179.170       34.101        0.036      338.016       10.380      861.496
01/09/2014  13:34:00     -206.898      312.767      -37.208       80.357      111.887       55.683     6457.231    12518.744     3100.563        8.204        1.104      375.007       37.205        0.010      337.933       10.238      861.536
01/09/2014  13:35:00     -182.433      187.577      -31.398      107.425      125.994       50.896    11540.183    15874.538     2590.394        4.972        1.500      261.662       54.232        0.043      338.005       10.360      861.612
01/09/2014  13:36:00     -136.433      207.942      -28.713       93.307      109.317       55.157     8706.111    11950.203     3042.252        4.318        1.185      248.704       55.088        0.049      337.961       10.285      861.642
01/09/2014  13:37:00     -102.657      223.346      -20.873       85.546      131.527       56.395     7318.181    17299.257     3180.341        4.432        1.390      245.809       51.808        0.044      337.963       10.290      861.631
01/09/2014  13:38:00     -217.414      170.341      -50.394      110.085      105.587       50.818    12118.601    11148.514     2582.512        5.233        1.292      276.197       46.291        0.028      337.808       10.030      861.639
01/09/2014  13:39:00     -191.685       13.235      -25.748       96.538       64.864       28.396     9319.666     4207.359      806.340        2.595        0.717      192.142       27.000        0.020      337.785        9.992      861.657
01/09/2014  13:40:00     -131.310      160.062      -28.780       92.331      108.118       56.100     8525.069    11689.599     3147.261        3.352        1.168      207.031       47.122        0.052      337.980       10.318      861.710
01/09/2014  13:41:00     -159.667      162.352      -25.394       93.414      106.552       58.557     8726.123    11353.324     3428.974        3.800        1.175      227.710       46.349        0.041      338.084       10.494      861.730
01/09/2014  13:42:00     -204.599      307.720      -52.212      120.251      156.229       70.883    14460.250    24407.383     5024.360        9.158        2.195      369.530       70.525        0.036      337.832       10.069      861.723
01/09/2014  13:43:00     -201.649      320.637      -52.386      122.273      135.111       66.109    14950.726    18254.969     4370.456        9.189        1.879      378.775       74.209        0.038      337.821       10.052      861.683
01/09/2014  13:44:00      -98.561      352.730      -47.077      119.056      179.951       70.930    14174.395    32382.520     5031.023        9.396        2.579      366.241       62.116        0.029      337.910       10.199      861.648
01/09/2014  13:45:00     -183.661      210.463      -22.463      132.070      118.864       73.781    17442.422    14128.606     5443.690        5.777        1.851      279.331       77.314        0.077      337.931       10.234      861.669
01/09/2014  13:46:00     -230.761      320.916      -46.488      135.294      167.180       72.043    18304.396    27949.166     5190.133       10.491        2.572      395.269       82.504        0.044      337.819       10.048      861.704
01/09/2014  13:47:00     -215.391      236.488      -40.349      128.528      109.757       72.387    16519.333    12046.695     5239.885        6.887        1.690      319.875       73.987        0.053      337.810       10.032      861.722
01/09/2014  13:48:00     -195.871      344.719      -43.095      108.964      125.521       64.944    11873.166    15755.484     4217.778        9.544        1.592      396.480       64.812        0.027      337.750        9.932      861.728
01/09/2014  13:49:00      -76.002      400.604      -43.878      107.637      134.820       62.074    11585.749    18176.509     3853.160       10.089        1.681      407.750       57.248        0.020      337.782        9.986      861.723
01/09/2014  13:50:00     -181.724      231.118      -40.373      110.229      102.975       67.449    12150.376    10603.793     4549.338        5.768        1.365      294.005       60.897        0.043      337.868       10.130      861.779
01/09/2014  13:51:00      -98.873      235.567      -20.238       78.953       98.784       60.470     6233.499     9758.346     3656.607        4.266        0.982      255.475       59.226        0.054      337.947       10.263      861.832
01/09/2014  13:52:00      -88.542      215.028      -22.408       66.117      125.950       41.165     4371.490    15863.288     1694.555        3.825        1.096      232.544       38.138        0.027      337.954       10.276      861.834
01/09/2014  13:53:00      -83.699      431.377      -42.857       96.235      155.684       73.878     9261.156    24237.415     5457.898       11.694        1.948      439.422       79.776        0.033      337.794       10.006      861.837
01/09/2014  13:54:00      -99.818      476.589      -47.859       87.222      152.684       65.626     7607.684    23312.346     4306.828       13.730        1.761      486.930       70.766        0.021      337.651        9.765      861.815
01/09/2014  13:55:00       -9.735      319.079      -27.429       87.892      125.602       66.438     7725.042    15775.916     4414.058        6.528        1.396      319.228       64.829        0.041      337.758        9.945      861.763
01/09/2014  13:56:00      -31.345      478.805      -38.794       90.135      149.987       72.200     8124.314    22496.250     5212.796       13.378        1.792      479.830       73.773        0.024      337.647        9.759      861.701
01/09/2014  13:57:00     -103.540      294.680      -35.862       90.797      148.808       55.902     8244.138    22143.842     3125.009        6.617        1.676      312.340       57.180        0.034      337.712        9.868      861.630
01/09/2014  13:58:00       -3.460      283.285      -29.652       82.238      113.118       55.483     6763.095    12795.765     3078.380        5.189        1.132      283.306       56.957        0.040      337.794       10.005      861.558
01/09/2014  13:59:00      -95.473      292.185      -36.123       94.868      168.257       52.763     9000.017    28310.478     2783.888        6.794        2.005      307.388       54.453        0.031      337.805       10.024      861.532
01/09/2014  14:00:00      -65.099      154.515       -6.485       77.342       84.180       52.623     5981.757     7086.313     2769.159        2.199        0.792      167.668       42.266        0.064      337.902       10.188      861.520
01/09/2014  14:01:00      -37.967      198.846      -16.084       76.569       87.407       47.682     5862.875     7639.968     2273.572        2.851        0.789      202.439       40.254        0.040      337.972       10.304      861.586
01/09/2014  14:02:00     -191.009      217.567      -25.846      130.314      137.660       65.382    16981.839    18950.142     4274.758        6.234        2.010      289.517       82.836        0.082      337.915       10.210      861.669
01/09/2014  14:03:00      -72.255      311.963      -38.188      100.554      145.801       63.664    10111.124    21257.997     4053.150        6.971        1.771      320.221       74.634        0.054      337.786        9.992      861.707
01/09/2014  14:04:00      -78.919      229.520      -17.932       68.165      106.704       54.736     4646.402    11385.688     2996.041        3.913        0.951      242.709       40.282        0.028      337.925       10.227      861.708
01/09/2014  14:05:00      -80.788      225.217      -21.534       93.050      177.711       63.260     8658.346    31581.201     4001.829        5.097        2.212      239.269       64.323        0.072      337.854       10.108      861.734
01/09/2014  14:06:00      -82.621      250.113      -16.422       67.731      102.480       49.767     4587.469    10502.086     2476.724        4.361        0.878      263.406       49.017        0.035      337.895       10.174      861.771
01/09/2014  14:07:00      -93.833      390.989      -41.818       90.728      171.990       71.808     8231.658    29580.700     5156.383       10.319        2.148      402.091       84.229        0.044      337.609        9.695      861.811
01/09/2014  14:08:00      -38.427      392.250      -36.149       76.160      147.754       61.058     5800.334    21831.334     3728.050        9.400        1.568      394.128       72.289        0.034      337.570        9.630      861.828
01/09/2014  14:09:00      -19.399      398.201      -33.658      131.182      176.008       93.045    17208.754    30978.683     8657.425       10.845        2.842      398.673       92.484        0.054      337.614        9.705      861.818
01/09/2014  14:10:00      -43.914      454.575      -52.090      123.397      117.304       70.013    15226.888    13760.182     4901.818       12.258        1.694      456.691       67.697        0.022      337.625        9.722      861.796
01/09/2014  14:11:00      -45.581      488.257      -65.865       97.319      124.301       58.495     9471.000    15450.840     3421.619       13.657        1.417      490.380       44.193        0.008      337.662        9.785      861.803
01/09/2014  14:12:00     -124.032      401.149      -49.805      107.382      146.189       51.251    11530.856    21371.145     2626.713       10.715        1.776      419.886       46.999        0.013      337.671        9.797      861.814
01/09/2014  14:13:00      -41.921      205.508      -15.797       77.180      109.270       54.366     5956.819    11940.036     2955.612        3.254        1.043      209.740       54.797        0.068      337.936       10.246      861.819
01/09/2014  14:14:00       30.231      248.017      -31.504      107.245      145.981       64.019    11501.504    21310.398     4098.453        5.016        1.846      249.853       65.992        0.070      337.825       10.058      861.802
01/09/2014  14:15:00      -85.242      217.254      -20.242       69.299      101.436       48.519     4802.357    10289.289     2354.120        3.616        0.872      233.378       35.748        0.023      338.013       10.371      861.825
01/09/2014  14:16:00     -111.600      213.726      -19.604       78.432      126.182       56.117     6151.525    15921.827     3149.118        4.187        1.261      241.108       50.918        0.045      337.838       10.080      861.853
01/09/2014  14:17:00     -101.584      154.901      -21.337       54.617      114.261       43.404     2983.071    13055.600     1883.915        2.634        0.896      185.239       24.599        0.018      337.966       10.296      861.852
01/09/2014  14:18:00      -36.918       46.636       13.522       75.366       72.280       49.009     5680.071     5224.331     2401.872        0.851        0.665       59.480       53.678        0.814      338.142       10.592      861.863
01/09/2014  14:19:00     -106.142      134.108      -28.715      101.587      173.055       53.633    10319.909    29948.093     2876.551        3.660        2.157      171.029       75.463        0.195      337.985       10.327      861.858
01/09/2014  14:20:00      -87.618      144.505      -15.553       93.798       79.240       51.081     8798.113     6279.046     2609.276        2.324        0.884      168.993       44.480        0.069      337.867       10.129      861.868
01/09/2014  14:21:00      -23.721      240.464      -22.421       72.665       91.689       56.148     5280.193     8406.946     3152.584        3.786        0.842      241.632       51.844        0.046      337.876       10.142      861.875
01/09/2014  14:22:00      -72.535      186.686      -22.652       82.501       78.069       48.894     6806.439     6094.697     2390.642        2.796        0.765      200.282       40.547        0.041      337.892       10.170      861.915
01/09/2014  14:23:00      -10.285      425.332      -47.886       76.005      113.333       65.739     5776.832    12844.368     4321.605       10.312        1.147      425.456       56.410        0.018      337.609        9.695      861.947
01/09/2014  14:24:00      -43.617      284.963      -37.507       88.843       99.438       54.612     7893.063     9887.954     2982.475        5.263        1.038      288.282       51.229        0.032      337.765        9.956      861.970
01/09/2014  14:25:00      -59.383      271.626      -38.580       63.449      139.638       45.114     4025.798    19498.824     2035.285        5.217        1.278      278.041       45.152        0.026      337.872       10.136      862.010
01/09/2014  14:26:00      -64.413      355.173      -21.908      106.592      180.804       84.872    11361.889    32689.988     7203.254        9.101        2.563      360.966      100.082        0.077      337.825       10.057      862.028
01/09/2014  14:27:00      -57.606      368.375      -23.984      106.431      134.545       77.104    11327.631    18102.257     5945.045        8.748        1.769      372.852       69.465        0.035      337.720        9.881      862.011
01/09/2014  14:28:00     -136.931      274.634      -31.788      120.477      134.899       70.105    14514.632    18197.708     4914.770        6.640        1.881      306.878       63.818        0.043      337.787        9.993      862.018
01/09/2014  14:29:00     -165.998      466.879      -58.733       89.779      140.711       70.649     8060.192    19799.606     4991.266       14.091        1.643      495.511       58.763        0.014      337.566        9.623      862.084
01/09/2014  14:30:00      -78.922      333.928      -32.242      116.030      182.182       76.542    13462.869    33190.372     5858.685        8.564        2.626      343.128       95.184        0.077      337.689        9.829      862.080
01/09/2014  14:31:00      -82.031      421.244      -51.437       98.810      112.145       55.684     9763.321    12576.542     3100.730       10.613        1.272      429.156       50.095        0.014      337.682        9.818      862.075
01/09/2014  14:32:00      -41.357      360.958      -44.052      103.881      125.860       63.416    10791.336    15840.625     4021.623        8.229        1.533      363.319       62.196        0.029      337.790        9.997      862.109
01/09/2014  14:33:00      -96.625      339.107      -39.316      101.552      180.657       65.488    10312.854    32636.974     4288.645        8.655        2.362      352.604       63.789        0.033      337.821       10.050      862.163
01/09/2014  14:34:00     -102.712      291.498      -18.927      105.522      146.049       78.951    11134.963    21330.209     6233.239        6.728        1.935      309.065       72.770        0.055      337.915       10.209      862.111
01/09/2014  14:35:00      -94.519      422.327      -40.940      117.096      154.459       69.927    13711.486    23857.533     4889.807       11.571        2.123      432.775       68.727        0.025      337.825       10.056      862.094
01/09/2014  14:36:00     -202.867      213.971      -48.714       73.763      135.668       50.915     5441.043    18405.700     2592.304        5.787        1.322      294.854       49.579        0.028      337.918       10.215      862.106
01/09/2014  14:37:00      -76.278       93.771       -8.863       73.085       75.404       51.563     5341.365     5685.695     2658.743        1.419        0.684      120.878       48.498        0.161      338.036       10.413      862.078
01/09/2014  14:38:00      -53.527      236.318      -17.775       91.132      101.683       53.930     8305.104    10339.407     2908.495        4.029        1.078      242.304       36.759        0.023      337.953       10.273      862.032
01/09/2014  14:39:00      -29.485      231.870      -14.407      114.405      138.122       67.758    13088.568    19077.795     4591.152        4.579        1.838      233.737       67.649        0.084      337.885       10.158      861.991
01/09/2014  14:40:00      -95.775      119.354      -24.747       74.617      113.926       42.846     5567.660    12979.101     1835.783        2.220        1.019      153.030       21.936        0.021      337.999       10.350      861.946
01/09/2014  14:41:00     -140.786      142.279      -28.652       59.602       95.091       35.799     3552.407     9042.251     1281.584        2.738        0.694      200.160       32.194        0.026      338.001       10.354      861.958
01/09/2014  14:42:00     -103.998       15.094       -8.213       74.414       59.083       41.137     5537.403     3490.789     1692.292        1.091        0.536      105.087       39.684        0.143      338.141       10.591      861.945
01/09/2014  14:43:00      -68.928      103.679       12.941       95.309      105.948       64.512     9083.819    11224.902     4161.861        2.007        1.224      124.501       61.618        0.245      338.255       10.780      861.875
01/09/2014  14:44:00      -56.131      172.576      -23.504       54.835       77.413       32.300     3006.865     5992.792     1043.309        2.176        0.502      181.475       29.073        0.026      338.237       10.750      861.839
01/09/2014  14:45:00      -41.939      163.591      -15.994       52.582       66.356       39.537     2764.842     4403.154     1563.183        1.875        0.437      168.881       28.390        0.028      338.302       10.861      861.815
01/09/2014  14:46:00      -65.261      125.284       -3.977       58.210       85.761       38.335     3388.363     7354.951     1469.553        1.609        0.611      141.262       40.997        0.084      338.310       10.872      861.789
01/09/2014  14:47:00     -109.143       64.770       -0.063       69.805       87.438       36.148     4872.780     7645.412     1306.681        1.496        0.691      126.915       33.572        0.070      338.393       11.014      861.780
01/09/2014  14:48:00     -110.579       24.915       -7.317       91.460       60.375       43.599     8365.010     3645.179     1900.873        1.340        0.696      113.351       54.915        0.235      338.526       11.236      861.804
01/09/2014  14:49:00     -109.003       65.555        5.714      164.736      129.104       78.953    27137.989    16667.812     6233.607        3.312        2.502      127.197       89.551        0.496      338.301       10.857      861.830
01/09/2014  14:50:00     -126.988      145.746      -13.587      107.562       70.953       52.864    11569.490     5034.270     2794.624        2.847        0.970      193.308       47.286        0.060      338.332       10.910      861.878
01/09/2014  14:51:00      -45.591      113.491        7.301       77.334       71.085       43.668     5980.500     5053.012     1906.905        1.397        0.647      122.306       35.083        0.082      338.412       11.045      861.866
01/09/2014  14:52:00      -65.905      179.774       -9.850       62.577       88.020       54.735     3915.938     7747.489     2995.908        2.571        0.733      191.474       56.479        0.087      338.390       11.005      861.845
01/09/2014  14:53:00     -128.814      225.356      -29.689       99.002      115.755       56.408     9801.477    13399.120     3181.819        4.732        1.319      259.574       62.334        0.058      338.313       10.876      861.874
01/09/2014  14:54:00     -117.931      119.942      -15.715       70.612       88.439       47.987     4986.123     7821.526     2302.764        2.182        0.756      168.207       52.748        0.098      338.424       11.065      861.980
01/09/2014  14:55:00        4.241      -16.736       19.273       48.444       54.368       34.429     2346.817     2955.871     1185.333        0.358        0.324       17.265       37.983        4.840      338.865       11.808      862.050
01/09/2014  14:56:00      -83.249       36.081       -4.114       79.260       75.774       50.574     6282.201     5741.647     2557.772        1.141        0.729       90.732       42.123        0.216      338.762       11.634      862.078
01/09/2014  14:57:00     -266.982      -52.745      -17.119      133.188      104.316       62.246    17739.024    10881.930     3874.533        5.342        1.625      272.142       76.959        0.080      338.787       11.671      862.119
01/09/2014  14:58:00     -308.659      -61.111      -10.971      150.006       76.833       58.778    22501.724     5903.300     3454.869        6.549        1.593      314.651       61.763        0.039      338.909       11.878      862.138
01/09/2014  14:59:00     -288.049      -65.598      -11.761      137.075       99.736       57.622    18789.458     9947.314     3320.243        5.973        1.603      295.424       61.395        0.043      338.844       11.768      862.181
01/09/2014  15:00:00     -244.845      -16.679      -14.723      109.737      156.452       67.117    12042.191    24477.303     4504.667        5.073        2.051      245.412       69.209        0.080      338.762       11.632      862.147
01/09/2014  15:01:00     -351.628      123.753      -30.259      202.831      118.965       72.718    41140.214    14152.782     5287.892       10.022        3.029      372.770       89.737        0.058      338.790       11.678      862.106
01/09/2014  15:02:00     -189.980      -81.696      -14.975      116.683       94.647       59.587    13614.982     8958.044     3550.635        3.455        1.306      206.801       57.552        0.077      338.817       11.724      862.043
01/09/2014  15:03:00     -128.621     -140.051       -3.197      133.315       83.989       64.529    17772.815     7054.205     4164.044        3.257        1.450      190.152       68.207        0.129      338.722       11.564      862.030
01/09/2014  15:04:00     -176.883     -184.825        5.222      161.857      103.522       69.830    26197.792    10716.862     4876.268        5.363        2.090      255.828       71.958        0.079      338.758       11.624      862.039
01/09/2014  15:05:00     -184.401     -149.665       -3.145      127.490       69.856       42.129    16253.656     4879.846     1774.814        3.966        1.145      237.494       44.938        0.036      338.716       11.553      862.063
01/09/2014  15:06:00     -171.076     -122.894      -17.352       78.023      124.993       44.446     6087.652    15623.259     1975.448        3.417        1.184      210.642       39.450        0.035      338.605       11.367      862.076
01/09/2014  15:07:00     -151.827      -53.014       -0.183      113.887       86.102       64.248    12970.244     7413.638     4127.860        2.518        1.226      160.816       63.742        0.157      338.865       11.805      862.129
01/09/2014  15:08:00     -203.914     -108.907        0.271      139.404      116.164       61.143    19433.510    13494.134     3738.499        4.505        1.833      231.174       68.059        0.087      338.798       11.694      862.135
01/09/2014  15:09:00     -225.214      -65.587      -19.276      104.400      100.160       56.667    10899.405    10032.104     3211.140        3.976        1.207      234.570       53.426        0.052      338.650       11.444      862.145
01/09/2014  15:10:00     -170.234     -162.115       11.661      144.260      103.200       87.889    20810.872    10650.203     7724.556        4.728        1.959      235.076       89.096        0.144      338.718       11.557      862.131
01/09/2014  15:11:00     -316.179     -146.979        4.968      208.458      142.389       88.319    43454.553    20274.564     7800.229        9.655        3.576      348.671       95.250        0.075      338.588       11.337      862.141
01/09/2014  15:12:00     -441.254      -47.771      -34.106      161.577      141.118       72.898    26107.181    19914.328     5314.091       12.473        2.567      443.832       77.628        0.031      338.537       11.253      862.213
01/09/2014  15:13:00     -419.214      -50.640      -32.794      120.722      112.636       60.602    14573.725    12686.870     3672.571       10.515        1.547      422.262       57.873        0.019      338.475       11.149      862.264
01/09/2014  15:14:00     -390.363     -102.192      -30.432      132.671      121.510       63.330    17601.466    14764.613     4010.628       10.006        1.819      403.518       65.833        0.027      338.446       11.100      862.259
01/09/2014  15:15:00     -450.198     -141.936      -22.660      150.371       98.221       60.418    22611.557     9647.353     3650.283       12.962        1.795      472.043       63.816        0.018      338.381       10.990      862.225
01/09/2014  15:16:00     -395.185       19.695      -67.410      117.382       66.433       52.497    13778.441     4413.285     2755.888        9.102        1.047      395.675       52.865        0.018      338.347       10.933      862.244
01/09/2014  15:17:00     -246.332      -40.166      -25.845      112.054       95.798       54.843    12556.109     9177.255     3007.722        4.385        1.237      249.585       48.679        0.038      338.463       11.129      862.273
01/09/2014  15:18:00     -412.685      -52.961      -37.027      112.921      115.035       61.199    12751.099    13233.072     3745.327       10.210        1.486      416.069       53.146        0.016      338.357       10.951      862.274
01/09/2014  15:19:00     -125.203       21.347      -11.237       77.269       58.453       35.964     5970.462     3416.754     1293.387        1.347        0.534      127.010       32.561        0.066      338.432       11.079      862.253
01/09/2014  15:20:00      -90.937       -0.377        6.762      103.681       73.768       51.069    10749.705     5441.776     2608.017        1.355        0.940       90.938       55.980        0.379      338.408       11.039      862.202
01/09/2014  15:21:00     -177.540      -51.729       -2.423      153.659       89.385       48.992    23611.078     7989.730     2400.215        3.410        1.700      184.922       62.960        0.116      338.407       11.035      862.173
01/09/2014  15:22:00     -283.663       21.862      -22.326      106.057       81.754       49.946    11248.021     6683.776     2494.584        5.093        1.021      284.504       50.916        0.032      338.341       10.923      862.163
01/09/2014  15:23:00     -204.908      -13.015      -12.386       98.429       69.386       40.927     9688.295     4814.405     1675.027        2.924        0.809      205.321       42.568        0.043      338.407       11.034      862.181
01/09/2014  15:24:00     -238.181      -68.377        0.797      111.971       80.353       41.618    12537.452     6456.533     1732.055        4.106        1.036      247.802       33.907        0.019      338.424       11.064      862.223
01/09/2014  15:25:00     -284.300      -51.306       -6.059      181.011      147.494       59.178    32765.118    21754.571     3502.093        7.075        2.901      288.892       67.579        0.055      338.365       10.964      862.218
01/09/2014  15:26:00     -392.905       18.786      -35.223      154.977      107.583       54.470    24017.785    11574.209     2966.980        9.726        1.928      393.354       67.137        0.029      338.352       10.941      862.218
01/09/2014  15:27:00     -204.683      -75.217      -11.999      101.495      103.161       59.134    10301.266    10642.161     3496.829        3.606        1.222      218.065       52.928        0.059      338.420       11.056      862.189
01/09/2014  15:28:00     -374.802     -120.665      -21.534      102.619      114.912       63.526    10530.603    13204.729     4035.611        9.163        1.389      393.747       49.464        0.016      338.383       10.993      862.175
01/09/2014  15:29:00     -154.142      -49.284       -1.329      103.250       63.986       47.698    10660.489     4094.217     2275.097        2.161        0.851      161.829       52.225        0.104      338.429       11.072      862.198
01/09/2014  15:30:00     -185.752       19.973      -25.765       51.313       89.676       34.048     2632.979     8041.836     1159.252        2.370        0.592      186.823       24.925        0.018      338.380       10.989      862.268
01/09/2014  15:31:00     -102.649      -27.948        6.547       65.655       74.567       44.036     4310.594     5560.179     1939.169        1.158        0.590      106.385       45.054        0.179      338.445       11.101      862.292
01/09/2014  15:32:00     -148.052      -49.009       -5.630      134.008       84.345       52.382    17958.214     7114.001     2743.851        2.608        1.391      155.953       56.894        0.133      338.446       11.102      862.287
01/09/2014  15:33:00     -251.160      -27.930        3.969      101.407      113.300       58.475    10283.481    12836.912     3419.335        4.520        1.327      252.708       37.546        0.022      338.377       10.985      862.247
01/09/2014  15:34:00     -192.998      -98.215       -5.193       90.915       70.013       37.719     8265.500     4901.857     1422.706        3.075        0.730      216.552       31.017        0.021      338.377       10.986      862.221
01/09/2014  15:35:00     -113.956      -28.172       19.860      129.341      114.694       72.198    16729.116    13154.708     5212.600        2.463        1.755      117.387       79.392        0.457      338.439       11.089      862.215
01/09/2014  15:36:00     -201.410       13.964       -8.916      155.216      116.686       56.318    24091.855    13615.689     3171.711        4.085        2.044      201.893       63.516        0.099      338.380       10.990      862.220
01/09/2014  15:37:00     -360.421        4.805      -18.984       87.335      112.509       52.006     7627.489    12658.181     2704.613        7.663        1.150      360.453       45.519        0.016      338.299       10.854      862.210
01/09/2014  15:38:00     -177.900      -17.616       -3.591      110.294      101.273       53.367    12164.778    10256.301     2848.020        2.862        1.263      178.770       56.996        0.102      338.356       10.950      862.198
01/09/2014  15:39:00      -92.484       64.907       -1.348       64.798       77.529       43.112     4198.781     6010.731     1858.603        1.242        0.603      112.988       35.441        0.098      338.376       10.986      862.165
01/09/2014  15:40:00     -109.973      -66.868        7.607      140.562      121.920       65.792    19757.608    14864.410     4328.538        2.778        1.948      128.706       83.303        0.419      338.383       10.997      862.160
01/09/2014  15:41:00     -416.053     -131.786      -25.245      213.040      137.706       71.349    45385.931    18962.999     5090.650       13.026        3.472      436.426       95.801        0.048      338.291       10.841      862.148
01/09/2014  15:42:00     -181.264     -104.170       -1.440      164.091       93.380       54.831    26925.900     8719.794     3006.449        4.117        1.933      209.065       60.736        0.084      338.307       10.868      862.119
01/09/2014  15:43:00      -80.864      -20.814       -4.861       72.781       54.593       25.390     5297.121     2980.390      644.673        0.796        0.446       83.500       29.340        0.123      338.316       10.886      862.117
01/09/2014  15:44:00     -271.732       59.649      -24.949      193.328       82.665       51.359    37375.702     6833.468     2637.720        6.242        2.342      278.201       55.577        0.040      338.248       10.767      862.117
01/09/2014  15:45:00     -293.322      -68.127      -13.671      125.989      103.675       53.169    15873.186    10748.558     2826.966        6.015        1.472      301.130       59.223        0.039      338.274       10.813      862.169
01/09/2014  15:46:00     -256.549      -51.130      -11.051      125.107       95.757       49.633    15651.812     9169.455     2463.440        4.791        1.364      261.594       51.148        0.038      338.283       10.828      862.217
01/09/2014  15:47:00     -168.943      -53.612        0.448       77.482       57.818       28.723     6003.393     3342.912      825.027        2.079        0.509      177.245       28.593        0.026      338.289       10.837      862.271
01/09/2014  15:48:00     -255.358     -107.428      -14.732      115.574      101.670       54.293    13357.374    10336.777     2947.770        5.180        1.332      277.035       54.909        0.039      338.285       10.830      862.309
01/09/2014  15:49:00     -272.288     -123.065       -7.572      122.922       58.143       41.899    15109.696     3380.553     1755.558        5.479        1.012      298.807       40.146        0.018      338.278       10.818      862.311
01/09/2014  15:50:00     -225.665     -121.962        3.605       92.914       69.255       44.202     8633.099     4796.293     1953.857        4.060        0.769      256.514       44.190        0.030      338.293       10.843      862.348
01/09/2014  15:51:00     -241.591      -16.274      -17.914      135.538      107.086       52.214    18370.591    11467.452     2726.328        4.575        1.628      242.139       71.715        0.088      338.267       10.801      862.343
01/09/2014  15:52:00     -380.187      -80.043      -19.112      122.003      155.932       67.235    14884.658    24314.658     4520.562        9.751        2.186      388.522       62.800        0.026      338.224       10.726      862.347
01/09/2014  15:53:00     -242.408      -70.275      -14.627      140.107      104.944       53.264    19629.973    11013.278     2837.071        4.869        1.674      252.389       60.953        0.058      338.289       10.837      862.336
01/09/2014  15:54:00     -205.548       12.499       -3.410      106.738       88.906       43.340    11393.058     7904.298     1878.319        3.179        1.059      205.927       47.267        0.053      338.260       10.787      862.347
01/09/2014  15:55:00     -272.718       13.307      -24.475       91.542       79.914       45.810     8379.987     6386.262     2098.586        4.601        0.843      273.043       32.728        0.014      338.234       10.741      862.346
01/09/2014  15:56:00     -187.307        4.676       -9.414      111.407       91.250       42.032    12411.599     8326.531     1766.719        2.885        1.125      187.365       51.452        0.075      338.276       10.815      862.365
01/09/2014  15:57:00     -201.175      -31.963      -16.456      144.434      119.037       66.802    20861.154    14169.775     4462.488        4.062        1.975      203.698       86.803        0.182      338.165       10.628      862.366
01/09/2014  15:58:00     -290.214      -45.819      -24.515      137.340       78.986       53.149    18862.217     6238.723     2824.772        5.742        1.396      293.809       66.475        0.051      338.144       10.593      862.347
01/09/2014  15:59:00     -285.228      -31.704       -9.745      138.627       60.321       38.867    19217.332     3638.581     1510.632        5.341        1.218      286.984       45.259        0.025      338.138       10.582      862.339
01/09/2014  16:00:00     -227.651      -43.501      -11.701      101.991       84.675       47.031    10402.131     7169.882     2211.911        3.682        0.989      231.770       48.342        0.044      338.148       10.596      862.338
01/09/2014  16:01:00     -108.657      -59.078       -1.953       80.631       64.324       39.246     6501.389     4137.617     1540.242        1.374        0.609      123.679       31.985        0.067      338.180       10.655      862.353
01/09/2014  16:02:00     -161.602      -55.135       -2.036       84.125       77.283       41.570     7077.073     5972.644     1728.050        2.197        0.739      170.748       40.958        0.058      338.145       10.595      862.369
01/09/2014  16:03:00     -115.559      -49.045       10.262       92.307       96.056       49.017     8520.511     9226.811     2402.629        1.800        1.007      125.536       45.259        0.130      338.204       10.696      862.376
01/09/2014  16:04:00     -129.266        2.827      -17.593      114.614       85.568       65.884    13136.321     7321.953     4340.666        2.091        1.240      129.297       56.164        0.189      338.139       10.587      862.393
01/09/2014  16:05:00     -225.725      -12.687      -21.494      101.307      110.982       57.168    10263.116    12317.105     3268.182        3.871        1.292      226.081       54.211        0.057      338.084       10.492      862.411
01/09/2014  16:06:00     -227.810      -88.372      -28.333       94.911       59.867       41.706     9008.012     3584.064     1739.387        3.742        0.717      244.350       37.739        0.024      338.093       10.507      862.402
01/09/2014  16:07:00     -218.647       -9.450      -22.277      129.355      106.581       49.774    16732.597    11359.492     2477.463        3.948        1.528      218.851       47.073        0.046      338.088       10.500      862.401
01/09/2014  16:08:00     -196.679      -11.024      -16.959       57.076       85.854       48.735     3257.693     7370.955     2375.142        2.605        0.650      196.988       24.980        0.016      338.105       10.528      862.429
01/09/2014  16:09:00     -219.199       17.863      -18.048       63.901      100.294       45.035     4083.328    10058.901     2028.137        3.243        0.809      219.926       35.887        0.027      338.088       10.499      862.462
01/09/2014  16:10:00     -123.738       53.085      -10.902       73.250       56.172       39.305     5365.626     3155.244     1544.850        1.416        0.503      134.645       28.974        0.046      338.111       10.541      862.499
01/09/2014  16:11:00      -46.980       22.801       -4.045       42.270       60.849       37.036     1786.761     3702.581     1371.700        0.480        0.343       52.221       25.190        0.233      338.109       10.537      862.518
01/09/2014  16:12:00     -127.612       90.510      -10.018       98.266       68.317       42.828     9656.286     4667.228     1834.275        2.036        0.808      156.451       55.641        0.126      338.117       10.550      862.539
01/09/2014  16:13:00      -87.150       57.236      -13.503       53.632       62.968       31.783     2876.366     3964.977     1010.153        0.945        0.393      104.264       14.745        0.020      338.127       10.567      862.551
01/09/2014  16:14:00     -101.659        9.703       -9.934       69.098       72.943       34.080     4774.560     5320.732     1161.423        1.089        0.563      102.121       29.034        0.081      338.129       10.570      862.572
01/09/2014  16:15:00     -152.217       18.419      -17.345       74.328       44.010       24.638     5524.682     1936.878      607.009        1.594        0.403      153.328       19.221        0.016      338.120       10.554      862.603
01/09/2014  16:16:00      -46.793       22.796       -5.733       37.390       32.547       33.107     1398.034     1059.337     1096.050        0.315        0.178       52.050       14.795        0.081      338.127       10.567      862.627
01/09/2014  16:17:00     -126.216       90.579      -11.127       61.992       97.783       41.207     3843.003     9561.535     1698.022        1.968        0.755      155.355       36.459        0.055      338.074       10.478      862.653
01/09/2014  16:18:00     -108.853       -4.929       -4.997       61.748       60.431       33.132     3812.762     3651.867     1097.698        1.023        0.428      108.965       31.373        0.083      338.077       10.483      862.681
01/09/2014  16:19:00     -154.075        9.661      -21.747       68.111       75.062       41.759     4639.067     5634.354     1743.812        1.816        0.601      154.378       38.017        0.061      338.061       10.455      862.699
01/09/2014  16:20:00      -99.492       -9.899      -13.764       88.042       57.785       43.072     7751.460     3339.076     1855.164        1.156        0.647       99.983       38.442        0.148      338.084       10.493      862.729
01/09/2014  16:21:00      -62.166       56.506        9.165       82.724       99.488       57.554     6843.191     9897.844     3312.448        1.359        1.003       84.009       43.818        0.272      338.101       10.524      862.754
01/09/2014  16:22:00     -117.383       88.779      -31.653       80.991       55.648       43.045     6559.613     3096.691     1852.845        1.708        0.575      147.175       46.345        0.099      338.064       10.460      862.775
01/09/2014  16:23:00      -89.479       58.666      -13.105       36.930       85.160       21.947     1363.847     7252.301      481.676        1.036        0.455      106.996       18.293        0.029      338.070       10.472      862.792
01/09/2014  16:24:00     -147.206      -10.111      -21.443      107.797       50.426       31.865    11620.271     2542.770     1015.391        1.870        0.759      147.553       40.425        0.075      338.069       10.469      862.768
01/09/2014  16:25:00      -82.688       37.554       -3.720       58.027       53.624       38.457     3367.172     2875.536     1478.961        0.799        0.386       90.816       35.565        0.153      338.059       10.452      862.778
01/09/2014  16:26:00      -62.144       49.563        4.081       66.541       20.423       22.176     4427.747      417.092      491.763        0.583        0.267       79.488       30.335        0.146      338.070       10.472      862.815
01/09/2014  16:27:00      -68.431       64.231      -20.101       46.724       45.695       29.154     2183.113     2088.055      849.953        0.717        0.256       93.853       24.842        0.070      338.041       10.422      862.839
01/09/2014  16:28:00     -106.123       92.764      -20.731       61.631       59.284       34.232     3798.386     3514.565     1171.831        1.439        0.424      140.952       34.830        0.061      338.088       10.500      862.889
01/09/2014  16:29:00     -115.141      143.664      -25.012       71.151       83.590       38.666     5062.523     6987.250     1495.052        2.403        0.677      184.110       25.978        0.020      338.048       10.434      862.929
01/09/2014  16:30:00      -87.422      104.519      -13.120       42.567       94.350       35.895     1811.973     8901.936     1288.481        1.537        0.600      136.260       24.756        0.033      338.056       10.447      862.947
01/09/2014  16:31:00      -96.877       60.945      -10.783       42.561       78.260       26.684     1811.472     6124.626      712.037        1.093        0.432      114.453       25.196        0.048      338.074       10.478      862.978
01/09/2014  16:32:00      -52.212       56.268      -16.618       44.447       52.530       35.724     1975.565     2759.424     1276.186        0.609        0.301       76.761       28.829        0.141      338.057       10.451      862.969
01/09/2014  16:33:00      -85.847      -11.442       -1.449       22.802       21.134       19.907      519.944      446.666      396.298        0.443        0.068       86.606        7.798        0.008      338.019       10.387      862.950
01/09/2014  16:34:00      -41.672       30.543       -3.043       32.588       44.166       26.687     1061.957     1950.659      712.222        0.320        0.186       51.667       26.175        0.257      338.028       10.402      862.959
01/09/2014  16:35:00      -64.162      -52.469        5.418       72.513       57.790       31.623     5258.142     3339.682      999.996        0.825        0.480       82.884       33.516        0.164      337.991       10.339      862.940
01/09/2014  16:36:00      -79.593       57.495       -7.821       73.274       94.493       39.112     5369.060     8928.992     1529.712        1.276        0.791       98.187       36.358        0.137      338.003       10.359      862.946
01/09/2014  16:37:00     -162.560      -15.778      -21.253       51.716       68.519       44.460     2674.588     4694.902     1976.722        1.823        0.467      163.324       21.100        0.017      338.011       10.372      862.990
01/09/2014  16:38:00     -314.415      -82.956      -12.571      122.748       95.988       50.142    15066.985     9213.776     2514.175        6.634        1.340      325.175       48.942        0.023      337.999       10.350      862.988
01/09/2014  16:39:00     -301.256      -59.046      -21.387      101.154       90.752       43.270    10232.088     8236.009     1872.309        5.752        1.017      306.988       44.758        0.021      338.019       10.383      862.996
01/09/2014  16:40:00     -268.998      -29.436      -41.059       93.158      105.366       49.593     8678.474    11101.927     2459.466        4.857        1.112      270.604       52.237        0.037      338.009       10.366      863.023
01/09/2014  16:41:00     -133.388      -21.944       -8.790      112.852       88.568       43.226    12735.646     7844.377     1868.529        2.040        1.122      135.181       34.472        0.065      338.033       10.408      863.017
01/09/2014  16:42:00     -218.488      -43.939      -18.498      117.426       67.163       41.758    13788.943     4510.848     1743.770        3.502        1.002      222.862       51.005        0.052      338.019       10.386      863.021
01/09/2014  16:43:00     -164.845       -8.402       -5.255       67.737       71.557       29.738     4588.289     5120.379      884.341        1.893        0.530      165.059       27.937        0.029      338.007       10.367      863.040
01/09/2014  16:44:00     -242.700      -12.818       -7.180       95.984       58.138       44.692     9212.980     3380.022     1997.397        3.685        0.730      243.038       45.445        0.035      338.010       10.368      863.103
01/09/2014  16:45:00     -214.387      -12.842      -29.395       91.239       68.896       28.401     8324.565     4746.660      806.643        3.043        0.694      214.772       27.059        0.016      338.010       10.369      863.129
01/09/2014  16:46:00     -287.472       65.429      -34.647      124.051       97.595       55.248    15388.586     9524.816     3052.358        5.804        1.398      294.824       53.561        0.033      337.983       10.323      863.124
01/09/2014  16:47:00     -380.015       19.357      -32.488      113.885      108.576       55.321    12969.827    11788.702     3060.416        8.683        1.391      380.508       45.524        0.014      337.970       10.302      863.149
01/09/2014  16:48:00     -208.918     -110.945      -10.496      102.540       64.738       41.074    10514.473     4190.963     1687.044        3.623        0.820      236.549       50.766        0.046      337.970       10.300      863.148
01/09/2014  16:49:00     -176.082       11.794      -16.599       65.081       61.958       30.717     4235.491     3838.748      943.524        2.022        0.451      176.476       31.891        0.033      337.946       10.263      863.137
01/09/2014  16:50:00      -62.347      -34.039        2.952       55.750       67.556       30.471     3108.085     4563.868      928.503        0.683        0.430       71.034       27.649        0.152      337.937       10.250      863.125
01/09/2014  16:51:00      -76.887       32.470       -1.836       64.643       94.471       45.335     4178.660     8924.699     2055.301        1.106        0.758       83.462       35.676        0.183      337.937       10.249      863.097
01/09/2014  16:52:00     -107.907      -11.308      -12.833       33.732       38.527       25.001     1137.845     1484.336      625.031        0.759        0.162      108.498       20.125        0.034      337.910       10.201      863.117
01/09/2014  16:53:00      -57.122       44.627      -16.097       51.715       43.356       29.039     2674.412     1879.723      843.272        0.545        0.270       72.487       24.668        0.116      337.944       10.259      863.133
01/09/2014  16:54:00     -119.965       57.210      -10.474       72.545       63.383       38.766     5262.830     4017.415     1502.841        1.428        0.539      132.908       25.211        0.036      337.877       10.147      863.108
01/09/2014  16:55:00     -148.920      -26.122       -7.710       47.367       58.937       31.985     2243.597     3473.551     1023.032        1.483        0.337      151.194       25.948        0.029      337.858       10.114      863.096
01/09/2014  16:56:00     -127.838      -16.035       -2.636       53.773       58.682       33.480     2891.587     3443.595     1120.891        1.203        0.373      128.839       29.232        0.051      337.846       10.094      863.109
01/09/2014  16:57:00     -262.682      -99.017      -19.430      175.231       76.369       60.116    30706.046     5832.190     3613.946        5.966        2.008      280.724       77.055        0.075      337.868       10.129      863.097
01/09/2014  16:58:00     -193.443      -30.012      -35.138       59.631       55.872       42.361     3555.801     3121.680     1794.471        2.401        0.424      195.757       30.890        0.025      337.873       10.139      863.078
01/09/2014  16:59:00     -161.515       55.954      -12.415       82.383       50.061       36.051     6787.000     2506.055     1299.693        1.998        0.530      170.932       29.653        0.030      337.822       10.054      863.081
01/09/2014  17:00:00     -136.562      -11.471       -1.373       64.804       43.559       23.023     4199.593     1897.390      530.056        1.270        0.331      137.043       22.450        0.027      337.829       10.064      863.053
01/09/2014  17:01:00     -117.458       -2.689      -20.745       33.881       28.058       21.296     1147.889      787.248      453.527        0.831        0.119      117.489       20.094        0.029      337.820       10.053      863.026
01/09/2014  17:02:00     -155.302       -3.613      -21.575       88.072       46.862       25.318     7756.721     2196.024      640.983        1.759        0.530      155.344       24.923        0.026      337.835       10.075      863.022
01/09/2014  17:03:00     -149.569      -16.852       -8.796       79.273       76.872       33.189     6284.227     5909.293     1101.490        1.801        0.665      150.516       32.099        0.045      337.776        9.976      863.062
01/09/2014  17:04:00     -122.192      -45.709       -3.390       87.788       49.925       33.138     7706.770     2492.545     1098.108        1.416        0.565      130.461       36.281        0.077      337.765        9.960      863.112
01/09/2014  17:05:00      -85.720       -4.056       -4.388       80.972       44.445       29.262     6556.484     1975.369      856.247        0.838        0.469       85.815       43.451        0.256      337.794       10.008      863.146
01/09/2014  17:06:00       -3.153       -7.135        4.510       18.846       16.927       17.913      355.184      286.521      320.885        0.052        0.048        7.801        8.601        1.216      337.829       10.067      863.152
01/09/2014  17:07:00     -120.502       -8.732      -10.025       73.524       42.997       30.278     5405.826     1848.728      916.785        1.143        0.409      120.817       28.618        0.056      337.729        9.898      863.129
01/09/2014  17:08:00      -89.244       71.249      -11.604       63.617       70.781       32.407     4047.131     5009.964     1050.224        1.164        0.505      114.197       18.288        0.026      337.726        9.892      863.082
01/09/2014  17:09:00     -125.334      -13.155      -13.729       61.557       63.260       23.239     3789.210     4001.887      540.051        1.220        0.417      126.023       23.780        0.036      337.704        9.857      863.060
01/09/2014  17:10:00     -115.115      -37.960        9.015       77.972       79.661       41.404     6079.586     6345.861     1714.279        1.445        0.707      121.212       40.166        0.110      337.692        9.838      863.075
01/09/2014  17:11:00     -210.737      -92.303      -18.853      106.678       70.746       50.609    11380.275     5005.003     2561.308        3.611        0.947      230.066       52.112        0.051      337.726        9.892      863.056
01/09/2014  17:12:00     -202.431      -31.720       -4.696       54.226       64.002       34.273     2940.405     4096.217     1174.619        2.511        0.411      204.901       25.602        0.016      337.671        9.800      863.077
01/09/2014  17:13:00     -237.671      -82.260      -11.685       85.503       67.664       43.410     7310.684     4578.377     1884.466        3.858        0.689      251.503       38.923        0.024      337.668        9.794      863.081
01/09/2014  17:14:00     -220.020      -76.067       -1.516      117.437       73.569       49.480    13791.503     5412.347     2448.317        3.792        1.083      232.798       57.698        0.061      337.711        9.867      863.092
01/09/2014  17:15:00     -344.310      -10.056      -23.211      202.592       73.966       60.469    41043.711     5470.966     3656.445        8.467        2.509      344.457       83.162        0.058      337.695        9.840      863.151
01/09/2014  17:16:00     -288.012       15.932       -9.024      145.448       87.549       59.316    21155.251     7664.808     3518.354        5.781        1.617      288.452       67.109        0.054      337.711        9.868      863.168
01/09/2014  17:17:00     -278.253      -53.185       -5.379       94.498      112.127       61.726     8929.931    12572.432     3810.152        5.279        1.266      283.291       51.891        0.034      337.701        9.848      863.165
01/09/2014  17:18:00     -356.252       13.162      -26.030       94.769       89.495       51.541     8981.222     8009.319     2656.476        7.370        0.982      356.495       49.028        0.019      337.698        9.845      863.156
01/09/2014  17:19:00     -375.134      -51.498      -19.839      139.092       79.636       58.112    19346.486     6341.930     3377.012        8.641        1.453      378.653       59.752        0.025      337.698        9.846      863.149
01/09/2014  17:20:00     -361.047      -28.740       -4.428      117.073      105.333       55.006    13706.071    11095.053     3025.653        7.951        1.391      362.190       65.124        0.032      337.670        9.797      863.137
01/09/2014  17:21:00     -222.110        5.682       -2.279      137.870      111.888       66.816    19008.172    12519.025     4464.344        4.267        1.800      222.182       61.685        0.077      337.675        9.808      863.088
01/09/2014  17:22:00     -237.079     -117.357      -14.341      127.726      102.211       63.256    16313.947    10447.053     4001.282        5.047        1.538      264.535       65.032        0.060      337.671        9.801      863.046
01/09/2014  17:23:00     -188.835      -59.744       -2.431      104.647       76.255       47.495    10950.891     5814.799     2255.811        2.912        0.951      198.061       44.356        0.050      337.650        9.766      862.975
01/09/2014  17:24:00     -188.721      -26.009        3.262       78.347       56.365       48.862     6138.189     3176.966     2387.524        2.400        0.585      190.505       47.163        0.061      337.644        9.756      862.901
01/09/2014  17:25:00     -130.704      -76.889      -15.350      122.793       84.187       51.947    15078.188     7087.466     2698.463        2.404        1.243      151.643       46.741        0.095      337.674        9.806      862.861
01/09/2014  17:26:00     -351.148      -70.426      -26.125      193.686      102.389       56.417    37514.143    10483.486     3182.823        9.006        2.559      358.141       54.660        0.023      337.660        9.782      862.838
01/09/2014  17:27:00     -268.868      -62.875      -12.611      116.290       81.208       54.429    13523.355     6594.694     2962.570        4.974        1.154      276.122       48.592        0.031      337.635        9.739      862.824
01/09/2014  17:28:00     -101.697       -6.155        1.765       68.618       52.824       36.001     4708.461     2790.412     1296.073        0.959        0.440      101.883       36.760        0.130      337.609        9.698      862.822
01/09/2014  17:29:00     -168.148      -49.868      -15.629       68.785       42.997       30.972     4731.326     1848.761      959.274        1.927        0.377      175.387       21.247        0.015      337.623        9.722      862.822
01/09/2014  17:30:00     -151.377      -12.321       -6.604       95.307       62.077       42.181     9083.395     3853.522     1779.199        1.891        0.736      151.878       48.626        0.103      337.620        9.717      862.810
01/09/2014  17:31:00     -163.593      -47.940       -4.522       59.972       55.835       31.081     3596.623     3117.552      966.042        1.838        0.384      170.473       25.467        0.022      337.632        9.738      862.789
01/09/2014  17:32:00     -138.881      -80.967      -19.970       97.500       51.574       39.010     9506.230     2659.893     1521.753        1.996        0.684      160.759       24.091        0.022      337.640        9.748      862.754
01/09/2014  17:33:00     -226.646      -85.113       -5.876       96.113       79.899       45.839     9237.713     6383.779     2101.178        3.818        0.886      242.100       44.135        0.033      337.639        9.746      862.710
01/09/2014  17:34:00      -71.610      -26.723       15.164      105.828       52.524       41.883    11199.500     2758.812     1754.208        1.089        0.786       76.433       42.517        0.309      337.624        9.723      862.651
01/09/2014  17:35:00     -122.035      -53.162        5.010       69.045       53.353       31.253     4767.179     2846.552      976.765        1.317        0.430      133.112       32.978        0.061      337.611        9.702      862.647
01/09/2014  17:36:00      -90.661      -53.595       -8.355      106.509       55.487       35.471    11344.267     3078.780     1258.202        1.342        0.784      105.318       41.501        0.155      337.713        9.872      862.612
01/09/2014  17:37:00     -143.732      -13.703      -20.191      131.329      106.832       28.082    17247.195    11413.086      788.608        2.535        1.472      144.384       29.502        0.042      337.693        9.838      862.551
01/09/2014  17:38:00     -285.149      -32.595      -20.415      103.965       91.630       42.988    10808.801     8396.025     1847.938        5.192        1.053      287.006       48.629        0.029      337.625        9.722      862.578
01/09/2014  17:39:00     -203.725      -55.966      -17.032       78.113       83.162       37.922     6101.641     6915.870     1438.056        2.969        0.723      211.272       27.202        0.017      337.605        9.688      862.584
01/09/2014  17:40:00     -137.073        2.961       -7.750       95.986       82.864       38.649     9213.360     6866.414     1493.718        1.821        0.879      137.105       22.024        0.026      337.573        9.636      862.600
01/09/2014  17:41:00     -171.894      -31.137      -18.340      108.633       66.887       38.814    11801.085     4473.902     1506.526        2.431        0.889      174.691       43.652        0.062      337.580        9.648      862.588
01/09/2014  17:42:00     -180.422      -10.443      -23.075       71.165       39.555       31.080     5064.413     1564.595      965.942        2.039        0.380      180.724       35.282        0.038      337.574        9.636      862.647
01/09/2014  17:43:00     -189.982      -53.869      -16.114       86.985       57.265       31.810     7566.424     3279.241     1011.906        2.555        0.593      197.471       33.425        0.029      337.550        9.598      862.737
01/09/2014  17:44:00     -161.686       -9.220       -4.690       97.102       58.800       40.151     9428.802     3457.390     1612.091        2.037        0.725      161.948       34.193        0.045      337.547        9.592      862.762
01/09/2014  17:45:00     -129.546      -27.722       -8.459       35.179       33.270       22.928     1237.565     1106.899      525.706        1.025        0.144      132.479       11.576        0.008      337.550        9.598      862.775
01/09/2014  17:46:00     -168.513      -54.756       -5.105       63.912       57.438       31.289     4084.774     3299.163      979.010        1.989        0.418      177.186       28.402        0.026      337.523        9.553      862.748
01/09/2014  17:47:00     -324.065      -10.566      -40.019      128.778      109.833       62.568    16583.674    12063.342     3914.710        6.964        1.628      324.237       67.957        0.044      337.586        9.657      862.730
01/09/2014  17:48:00     -226.352      -65.378      -12.881      139.967       82.680       56.812    19590.854     6836.007     3227.565        4.266        1.483      235.604       52.060        0.049      337.556        9.609      862.745
01/09/2014  17:49:00     -320.397      -10.334      -31.924      116.084       87.845       51.793    13475.408     7716.789     2682.526        6.382        1.194      320.564       50.899        0.025      337.556        9.605      862.792
01/09/2014  17:50:00     -231.430      -15.774       -1.640      120.365       86.220       58.096    14487.644     7433.841     3375.100        3.955        1.265      231.967       59.791        0.066      337.567        9.624      862.788
01/09/2014  17:51:00     -225.328      -78.050       -1.046      123.043       97.947       54.674    15139.469     9593.701     2989.261        4.229        1.386      238.463       60.358        0.064      337.580        9.647      862.835
01/09/2014  17:52:00     -185.326       10.354      -17.089       96.773       88.684       50.359     9364.956     7864.881     2536.032        2.725        0.988      185.615       42.040        0.051      337.551        9.597      862.890
01/09/2014  17:53:00     -216.024        2.852      -35.619       80.062       94.063       45.758     6410.000     8847.805     2093.832        3.264        0.868      216.043       28.942        0.018      337.519        9.545      862.925
01/09/2014  17:54:00     -125.020      -42.145        7.100      110.714       79.878       52.689    12257.668     6380.542     2776.097        1.943        1.071      131.933       67.827        0.264      337.500        9.513      862.934
01/09/2014  17:55:00     -309.679      -97.211      -13.601       97.569      101.873       53.500     9519.796    10378.025     2862.233        6.414        1.138      324.578       46.972        0.021      337.535        9.570      862.948
01/09/2014  17:56:00     -323.152      -94.595      -46.496      135.235      109.298       59.991    18288.425    11946.015     3598.943        7.468        1.692      336.713       63.704        0.036      337.528        9.559      862.956
01/09/2014  17:57:00     -447.460      -56.961      -51.307      140.306       94.594       68.535    19685.668     8947.997     4697.019       11.971        1.667      451.071       70.231        0.024      337.563        9.618      862.974
01/09/2014  17:58:00     -388.903      -42.094      -41.399      119.642      152.551       65.500    14314.222    23271.693     4290.240        9.830        2.094      391.174       63.224        0.026      337.612        9.700      862.980
01/09/2014  17:59:00     -199.386      -74.404      -25.191      172.104      130.097       63.882    29619.793    16925.272     4080.848        4.827        2.531      212.816       73.487        0.119      337.619        9.714      862.950
01/09/2014  18:00:00     -226.844      -23.674      -13.112      106.336      107.348       52.174    11307.356    11523.658     2722.094        3.887        1.278      228.076       50.570        0.049      337.592        9.667      862.914
01/09/2014  18:01:00     -306.312      -26.756      -26.484       96.508      103.793       44.630     9313.799    10772.922     1991.828        5.866        1.104      307.478       45.051        0.021      337.588        9.658      862.908
01/09/2014  18:02:00     -217.335      -41.516        0.098      113.313      113.058       60.106    12839.907    12782.020     3612.750        3.909        1.462      221.265       63.032        0.081      337.606        9.691      862.908
01/09/2014  18:03:00     -267.197      -67.494      -16.681      103.957       91.231       50.446    10807.141     8323.029     2544.847        4.895        1.084      275.590       49.022        0.032      337.610        9.696      862.915
01/09/2014  18:04:00     -263.750      -98.541      -12.211       97.977       93.071       52.661     9599.550     8662.186     2773.177        5.023        1.052      281.557       54.911        0.038      337.595        9.672      862.925
01/09/2014  18:05:00     -201.264      -32.745       -2.667      105.211       71.101       57.704    11069.296     5055.341     3329.702        3.052        0.973      203.910       64.225        0.099      337.604        9.689      862.912
01/09/2014  18:06:00     -189.017      -38.747       -5.937       69.848       62.568       41.684     4878.680     3914.724     1737.590        2.390        0.527      192.948       32.325        0.028      337.611        9.699      862.921
01/09/2014  18:07:00     -212.821      -21.625      -23.352       67.201       46.514       34.889     4516.015     2163.561     1217.262        2.710        0.395      213.917       28.904        0.018      337.600        9.681      862.947
01/09/2014  18:08:00     -141.306      -68.166       -4.893       85.587       70.017       32.281     7325.152     4902.357     1042.043        1.895        0.663      156.888       15.279        0.009      337.565        9.621      862.949
01/09/2014  18:09:00     -198.540      -47.206      -13.229       91.015      101.162       45.234     8283.685    10233.752     2046.156        3.119        1.028      204.075       38.490        0.036      337.556        9.606      862.938
01/09/2014  18:10:00     -179.272      -61.217       -8.477       68.811       74.897       40.139     4734.991     5609.523     1611.162        2.395        0.598      189.436       30.796        0.026      337.610        9.699      862.915
01/09/2014  18:11:00     -196.155      -80.165       -9.712      132.151       76.092       49.682    17463.839     5790.067     2468.272        3.536        1.286      211.904       64.447        0.092      337.644        9.757      862.897
01/09/2014  18:12:00     -184.308      -55.796      -15.151       54.963       66.473       32.538     3020.958     4418.647     1058.747        2.290        0.425      192.569       24.656        0.016      337.592        9.669      862.926
01/09/2014  18:13:00      -82.866      -46.800        5.793       97.284       75.217       43.856     9464.161     5657.615     1923.355        1.307        0.852       95.169       49.114        0.266      337.589        9.665      862.928
01/09/2014  18:14:00     -173.557      -43.948       -6.605      103.281       71.883       41.238    10666.870     5167.158     1700.597        2.481        0.877      179.035       46.614        0.068      337.614        9.706      862.918
01/09/2014  18:15:00     -181.882       -4.683      -17.843       50.654       42.999       24.799     2565.782     1848.911      615.001        1.922        0.251      181.942       21.277        0.014      337.578        9.647      862.969
01/09/2014  18:16:00     -195.523      -28.416       -4.968      113.567       89.826       60.285    12897.434     8068.690     3634.301        3.183        1.230      197.577       57.041        0.083      337.616        9.709      863.012
01/09/2014  18:17:00     -203.109      -22.733      -17.602       71.289       63.997       44.885     5082.067     4095.623     2014.635        2.663        0.560      204.377       35.733        0.031      337.595        9.673      863.068
01/09/2014  18:18:00     -109.767       -6.906      -16.291       60.118       43.644       34.387     3614.206     1904.842     1182.456        0.953        0.335      109.984       24.109        0.048      337.590        9.668      863.123
01/09/2014  18:19:00     -109.690       46.332      -20.431       62.460       47.289       30.144     3901.224     2236.276      908.639        1.082        0.352      119.074       19.498        0.027      337.601        9.684      863.130
01/09/2014  18:20:00     -123.861       71.823      -20.819       98.174       75.484       36.184     9638.044     5697.892     1309.296        1.879        0.832      143.178       37.887        0.070      337.618        9.713      863.107
01/09/2014  18:21:00     -104.344      -44.946       -5.672       91.681       58.038       33.820     8405.376     3368.387     1143.769        1.293        0.646      113.613       27.690        0.059      337.551        9.600      863.074
01/09/2014  18:22:00     -206.557      -16.872      -13.901       94.004       68.370       49.067     8836.738     4674.516     2407.576        2.953        0.796      207.245       47.222        0.052      337.611        9.698      863.042
01/09/2014  18:23:00     -113.739       19.369        3.047      126.884       55.703       48.155    16099.459     3102.812     2318.882        1.742        1.076      115.376       57.670        0.250      337.616        9.709      863.035
01/09/2014  18:24:00     -214.048      -25.894      -22.900       68.988       70.042       37.553     4759.401     4905.863     1410.219        2.904        0.554      215.608       24.371        0.013      337.695        9.841      863.020
01/09/2014  18:25:00     -111.796       65.271      -33.393       39.649       50.859       21.690     1572.017     2586.661      470.436        1.125        0.231      129.456       17.136        0.018      337.639        9.750      863.023
01/09/2014  18:26:00      -56.145      -10.920       -4.923       36.981       28.036       21.355     1367.609      786.030      456.034        0.295        0.130       57.197       22.729        0.158      337.608        9.698      863.028
01/09/2014  18:27:00      -97.390       32.513      -17.766       60.952       40.310       24.381     3715.197     1624.867      594.420        0.840        0.297      102.674       22.351        0.047      337.626        9.728      863.033
01/09/2014  18:28:00     -160.909       17.838      -16.524       57.858       50.090       28.814     3347.538     2508.997      830.270        1.658        0.334      161.895       26.522        0.027      337.638        9.747      863.050
01/09/2014  18:29:00     -117.023       31.226        0.053       66.777       50.017       43.065     4459.101     2501.659     1854.623        1.174        0.441      121.118       47.182        0.152      337.651        9.770      863.077
01/09/2014  18:30:00        0.780       11.898       19.711       49.392       65.950       31.584     2439.589     4349.436      997.534        0.416        0.389       11.923       17.746        2.215      337.599        9.683      863.112
01/09/2014  18:31:00     -103.630      -24.271       -9.154       48.136       32.151       24.245     2317.104     1033.715      587.801        0.767        0.197      106.435       27.639        0.067      337.608        9.696      863.178
01/09/2014  18:32:00      -65.198       -0.307        5.128       59.197       40.148       27.511     3504.324     1611.866      756.876        0.507        0.294       65.199       35.003        0.288      337.567        9.628      863.183
01/09/2014  18:33:00      -53.225       37.877       -7.221       43.679       37.266       19.224     1907.854     1388.737      369.569        0.399        0.183       65.327       17.697        0.073      337.649        9.767      863.143
01/09/2014  18:34:00     -133.676      -35.999       -4.652       93.428       67.268       44.106     8728.833     4525.012     1945.330        1.719        0.760      138.438       33.267        0.058      337.658        9.781      863.125
01/09/2014  18:35:00      -47.708      -21.198        7.559       70.916       42.719       33.826     5029.080     1824.943     1144.193        0.539        0.400       52.206       42.897        0.675      337.624        9.725      863.117
01/09/2014  18:36:00      -59.093      -26.876      -12.335       36.104       46.426       25.428     1303.521     2155.347      646.591        0.424        0.205       64.918       15.439        0.057      337.640        9.752      863.121
01/09/2014  18:37:00      -48.509      -17.013        1.602       31.569       25.535       19.298      996.595      652.033      372.402        0.233        0.101       51.406       17.737        0.119      337.632        9.736      863.079
01/09/2014  18:38:00      -64.345       47.226       -4.646       54.001       63.712       32.310     2916.161     4059.280     1043.957        0.720        0.401       79.816       22.600        0.080      337.619        9.716      863.067
01/09/2014  18:39:00     -107.741      -39.115        3.622       87.399       64.618       35.177     7638.543     4175.540     1237.391        1.310        0.653      114.621       41.320        0.130      337.607        9.694      863.080
01/09/2014  18:40:00     -148.649      -18.089       -8.704       61.503       59.305       29.391     3782.630     3517.140      863.813        1.533        0.408      149.746       19.081        0.016      337.606        9.693      863.104
01/09/2014  18:41:00     -264.341        7.187      -22.917       88.300       63.840       44.289     7796.881     4075.510     1961.533        4.214        0.692      264.439       47.178        0.032      337.634        9.738      863.123
01/09/2014  18:42:00     -175.479      -46.287       -7.555      167.972       59.339       51.437    28214.536     3521.097     2645.767        3.368        1.719      181.481       79.273        0.191      337.647        9.761      863.128
01/09/2014  18:43:00     -198.677      -26.924       -7.487      149.482      106.037       53.363    22344.762    11243.786     2847.639        3.834        1.822      200.494       68.726        0.118      337.689        9.830      863.122
01/09/2014  18:44:00     -272.165      -37.613      -14.359      130.837      127.860       55.658    17118.212    16348.139     3097.812        5.612        1.828      274.752       60.513        0.049      337.726        9.892      863.102
01/09/2014  18:45:00     -182.101      -49.725      -11.438       67.197       58.065       35.391     4515.434     3371.577     1252.502        2.245        0.457      188.768       36.204        0.037      337.728        9.897      863.115
01/09/2014  18:46:00     -137.889      -48.922        2.445       84.207       94.756       35.904     7090.886     8978.714     1289.081        1.938        0.868      146.311       30.843        0.044      337.677        9.811      863.144
01/09/2014  18:47:00     -214.547      -50.790      -12.057       72.942       53.222       34.892     5320.501     2832.605     1217.474        2.906        0.469      220.476       32.458        0.022      337.697        9.844      863.179
01/09/2014  18:48:00     -174.297        4.216      -19.338       49.185       43.354       32.053     2419.138     1879.566     1027.385        1.805        0.266      174.348       28.660        0.027      337.707        9.862      863.191
01/09/2014  18:49:00      -68.865       89.302       -6.590       38.342       56.132       31.769     1470.079     3150.746     1009.291        0.919        0.282      112.771       23.718        0.044      337.663        9.790      863.229
01/09/2014  18:50:00     -113.702       70.776      -10.810       58.048       38.544       26.423     3369.578     1485.651      698.153        1.180        0.278      133.930       22.970        0.029      337.693        9.840      863.240
01/09/2014  18:51:00      -23.473       44.615      -11.320       37.117       45.770       20.151     1377.657     2094.929      406.062        0.327        0.194       50.413       14.856        0.087      337.725        9.892      863.224
01/09/2014  18:52:00      -15.725       33.254       20.497       70.637       39.176       35.951     4989.524     1534.749     1292.460        0.479        0.391       36.785       36.315        0.975      337.649        9.765      863.194
01/09/2014  18:53:00     -103.718       18.218       -2.987       88.905       52.667       22.785     7904.084     2773.773      519.176        1.115        0.560      105.305       26.967        0.066      337.637        9.745      863.214
01/09/2014  18:54:00      -68.694       13.991        4.045       71.860       82.835       28.532     5163.899     6861.633      814.095        0.888        0.642       70.104       31.512        0.202      337.641        9.751      863.230
01/09/2014  18:55:00      -85.249      -33.747        5.979       78.050       59.981       34.231     6091.843     3597.731     1171.767        0.965        0.543       91.686       48.352        0.278      337.627        9.729      863.245
01/09/2014  18:56:00      -73.700      -91.020        1.857       70.275       80.389       36.525     4938.629     6462.376     1334.104        1.323        0.637      117.117       33.624        0.082      337.713        9.872      863.253
01/09/2014  18:57:00      -81.932       36.520      -13.404       88.887       57.391       29.671     7900.836     3293.731      880.341        1.015        0.604       89.702       34.327        0.146      337.635        9.742      863.255
01/09/2014  18:58:00     -150.649      -80.388      -11.093       80.033       58.770       35.530     6405.210     3453.865     1262.369        2.020        0.556      170.756       21.125        0.015      337.695        9.840      863.261
01/09/2014  18:59:00     -154.594      -89.163        2.687       89.979       79.429       50.309     8096.178     6308.898     2530.976        2.439        0.847      178.464       48.112        0.073      337.687        9.826      863.254
01/09/2014  19:00:00     -236.838      -66.304      -30.793      100.409       87.534       43.830    10081.965     7662.144     1921.028        4.055        0.983      245.945       53.010        0.046      337.738        9.912      863.253
01/09/2014  19:01:00     -128.100      -25.842        2.987       75.185       68.419       37.320     5652.715     4681.123     1392.794        1.440        0.586      130.680       33.625        0.066      337.703        9.855      863.318
01/09/2014  19:02:00     -148.967      -27.215      -13.626       77.102       47.448       31.468     5944.661     2251.271      990.226        1.615        0.459      151.433       35.466        0.055      337.705        9.860      863.365
01/09/2014  19:03:00     -123.042      -48.879        5.173       78.966       73.894       39.514     6235.662     5460.268     1561.384        1.540        0.663      132.395       30.925        0.055      337.699        9.849      863.374
01/09/2014  19:04:00     -131.341       15.972        2.146       87.855       64.242       32.166     7718.561     4127.003     1034.651        1.519        0.644      132.309       21.626        0.027      337.694        9.841      863.376
01/09/2014  19:05:00     -161.342       -0.836       -5.094       76.742       56.996       34.585     5889.265     3248.522     1196.153        1.819        0.517      161.345       35.870        0.049      337.720        9.883      863.363
01/09/2014  19:06:00     -106.040     -140.977       -6.240       76.677       54.587       31.320     5879.405     2979.748      980.955        2.050        0.492      176.406       28.268        0.026      337.757        9.945      863.345
01/09/2014  19:07:00      -46.729      -17.231       -9.822       34.769       57.021       24.239     1208.910     3251.448      587.511        0.381        0.252       49.805       24.109        0.234      337.688        9.833      863.346
01/09/2014  19:08:00      -30.218       47.994       12.447       58.999       73.157       30.426     3480.882     5352.016      925.741        0.656        0.488       56.715       31.035        0.299      337.674        9.807      863.335
01/09/2014  19:09:00      -75.707      -57.959        8.860       77.454       61.996       38.741     5999.140     3843.539     1500.867        1.025        0.567       95.345       40.984        0.185      337.718        9.881      863.326
01/09/2014  19:10:00      -31.876      -28.254       12.187       56.402       32.796       28.392     3181.217     1075.580      806.110        0.351        0.253       42.595       29.255        0.472      337.705        9.859      863.329
01/09/2014  19:11:00      -84.872      -22.071        6.375       40.195       43.442       19.605     1615.631     1887.181      384.366        0.581        0.194       87.695       16.116        0.034      337.673        9.808      863.307
01/09/2014  19:12:00      -87.007      -19.709        2.147       57.172       54.253       31.577     3268.665     2943.352      997.093        0.759        0.360       89.212       30.763        0.119      337.663        9.789      863.275
01/09/2014  19:13:00     -128.392      -33.444      -15.478       30.286       40.838       21.733      917.240     1667.731      472.307        1.045        0.153      132.677       13.440        0.010      337.650        9.768      863.269
01/09/2014  19:14:00     -166.197      -32.694      -15.156       55.065       41.331       30.719     3032.187     1708.256      943.675        1.730        0.284      169.383       26.857        0.025      337.633        9.739      863.263
01/09/2014  19:15:00     -113.712       24.351      -10.101       41.083       36.284       26.306     1687.786     1316.550      692.021        0.866        0.185      116.290       20.266        0.030      337.671        9.801      863.230
01/09/2014  19:16:00     -167.938       17.764      -18.048       97.448       42.119       29.338     9496.115     1773.982      860.746        2.049        0.607      168.875       33.097        0.038      337.682        9.822      863.212
01/09/2014  19:17:00     -250.694      -34.790      -21.407       97.500       72.133       40.699     9506.209     5203.235     1656.409        4.044        0.818      253.096       47.395        0.035      337.656        9.774      863.210
01/09/2014  19:18:00     -216.714      -28.347       -6.026       94.410       45.295       37.406     8913.172     2051.612     1399.189        3.008        0.618      218.560       42.728        0.038      337.639        9.746      863.223
01/09/2014  19:19:00     -182.861      -81.448       -8.844       83.562       62.841       38.697     6982.684     3948.964     1497.464        2.629        0.621      200.180       36.329        0.033      337.658        9.778      863.222
01/09/2014  19:20:00     -134.166      -39.512       -8.617       45.668       55.691       31.858     2085.556     3101.525     1014.918        1.292        0.310      139.863       28.572        0.042      337.656        9.778      863.199
01/09/2014  19:21:00     -135.175       19.777       -6.878       57.459       64.304       30.608     3301.543     4135.010      936.869        1.354        0.419      136.614       26.070        0.036      337.640        9.751      863.182
01/09/2014  19:22:00     -157.623      -92.503        5.978      113.482       91.139       48.069    12878.237     8306.344     2310.651        2.846        1.175      182.762       55.238        0.091      337.617        9.711      863.173
01/09/2014  19:23:00     -166.769       -7.486        5.846      108.146       73.707       50.932    11695.553     5432.670     2594.104        2.381        0.986      166.937       63.229        0.143      337.569        9.629      863.159
01/09/2014  19:24:00     -152.265      -59.590       -1.420       81.722       66.201       38.547     6678.443     4382.545     1485.835        1.964        0.627      163.511       31.603        0.037      337.633        9.738      863.136
01/09/2014  19:25:00     -181.694       -0.928       -9.834       55.407       62.717       35.047     3069.989     3933.380     1228.276        2.067        0.412      181.696       20.303        0.012      337.650        9.767      863.134
01/09/2014  19:26:00      -67.890      -42.019        4.737       56.836       47.397       28.385     3230.346     2246.486      805.719        0.634        0.314       79.842       33.512        0.176      337.622        9.722      863.130
01/09/2014  19:27:00     -245.672      -62.041      -20.096       88.071       59.068       42.587     7756.511     3488.983     1813.645        3.883        0.653      253.385       43.107        0.029      337.656        9.775      863.109
01/09/2014  19:28:00     -296.049      -62.000      -11.738      107.314       97.861       52.852    11516.385     9576.764     2793.358        5.775        1.194      302.472       53.281        0.031      337.681        9.815      863.123
01/09/2014  19:29:00     -262.672      -20.026      -14.180       94.201       95.232       40.149     8873.907     9069.202     1611.972        4.457        0.978      263.435       35.819        0.018      337.641        9.749      863.195
01/09/2014  19:30:00     -354.271      -44.432      -17.694      118.707      112.613       54.764    14091.440    12681.595     2999.129        7.878        1.489      357.047       57.982        0.026      337.732        9.903      863.234
01/09/2014  19:31:00     -224.020      -12.199      -11.655      105.214       81.337       45.265    11070.046     6615.702     2048.890        3.510        0.987      224.352       50.864        0.051      337.638        9.745      863.235
01/09/2014  19:32:00     -168.087      -15.459      -12.877       97.947       78.139       40.718     9593.698     6105.747     1657.920        2.300        0.868      168.797       27.712        0.027      337.626        9.726      863.232
01/09/2014  19:33:00     -368.260      -34.267      -27.104      101.810       80.133       50.296    10365.315     6421.326     2529.665        7.842        0.966      369.851       54.663        0.022      337.673        9.803      863.226
01/09/2014  19:34:00     -128.963      -14.067        1.134       79.150       55.443       38.618     6264.695     3073.972     1491.364        1.383        0.542      129.728       44.561        0.118      337.619        9.715      863.232
01/09/2014  19:35:00     -128.590      -30.713        2.616       85.394       61.453       37.628     7292.213     3776.519     1415.855        1.498        0.624      132.207       36.733        0.077      337.595        9.676      863.238
01/09/2014  19:36:00     -214.564      -19.780      -14.156      114.385       90.841       33.564    13083.862     8252.065     1126.553        3.454        1.123      215.473       30.053        0.019      337.614        9.705      863.248
01/09/2014  19:37:00     -194.121      -76.724      -12.316       65.325       78.892       36.948     4267.411     6223.898     1365.137        2.779        0.593      208.733       34.097        0.027      337.606        9.691      863.257
01/09/2014  19:38:00     -215.221      -88.218       -6.815       98.796       86.991       46.106     9760.734     7567.453     2125.760        3.680        0.973      232.600       48.777        0.044      337.621        9.717      863.272
01/09/2014  19:39:00     -184.973      -37.179      -10.894      110.526       55.308       41.989    12215.920     3058.946     1763.094        2.637        0.852      188.672       46.746        0.061      337.597        9.677      863.266
01/09/2014  19:40:00     -225.420      -16.197       -7.549       75.689       75.488       39.145     5728.791     5698.466     1532.296        3.204        0.648      226.001       37.464        0.027      337.583        9.653      863.258
01/09/2014  19:41:00     -245.252      -14.240      -21.852      123.639       65.096       41.915    15286.525     4237.547     1756.876        4.105        1.064      245.665       59.423        0.059      337.607        9.694      863.273
01/09/2014  19:42:00     -189.605      -16.335       -2.252      105.351       63.443       37.709    11098.784     4025.061     1421.997        2.638        0.827      190.307       50.033        0.069      337.588        9.661      863.308
01/09/2014  19:43:00     -290.821      -69.858      -11.645       92.708       86.168       47.924     8594.811     7424.991     2296.741        5.395        0.916      299.094       46.591        0.024      337.611        9.700      863.333
01/09/2014  19:44:00     -240.297      -74.906       -7.268       88.384       69.259       42.461     7811.740     4796.753     1802.901        3.891        0.721      251.702       40.418        0.026      337.630        9.732      863.344
01/09/2014  19:45:00     -196.030      -15.823       -5.295      103.355       87.320       44.419    10682.293     7624.712     1973.022        2.949        1.014      196.668       56.468        0.082      337.604        9.687      863.350
01/09/2014  19:46:00     -209.268      -44.246      -23.545       94.584       93.897       50.436     8946.100     8816.584     2543.811        3.330        1.015      213.894       49.738        0.054      337.640        9.748      863.327
01/09/2014  19:47:00     -237.257      -80.723      -23.742      107.137       79.405       50.619    11478.334     6305.197     2562.278        4.185        1.017      250.613       22.357        0.008      337.650        9.763      863.322
01/09/2014  19:48:00     -160.587      -50.357      -17.482       53.969       51.338       33.579     2912.620     2635.595     1127.577        1.765        0.334      168.297       14.808        0.008      337.622        9.719      863.333
01/09/2014  19:49:00     -140.257      -56.417      -13.196       67.395       76.214       36.501     4542.023     5808.590     1332.328        1.735        0.584      151.179       36.307        0.058      337.599        9.683      863.370
01/09/2014  19:50:00     -177.751      -49.124      -20.710       58.140       45.521       35.952     3380.296     2072.129     1292.533        2.059        0.337      184.414       25.439        0.019      337.584        9.655      863.397
01/09/2014  19:51:00     -115.939        6.657      -23.045       62.589       71.145       34.901     3917.367     5061.675     1218.085        1.211        0.510      116.130       26.569        0.052      337.573        9.638      863.405
01/09/2014  19:52:00     -218.451       -9.316      -23.505       65.158       76.652       31.902     4245.612     5875.522     1017.720        2.975        0.557      218.650       27.764        0.016      337.563        9.619      863.413
01/09/2014  19:53:00     -204.713       69.319      -28.595       57.154       74.687       34.497     3266.600     5578.183     1190.027        2.878        0.502      216.130       30.788        0.020      337.566        9.623      863.418
01/09/2014  19:54:00      -83.584       25.029       -6.225       53.264       42.664       30.812     2837.099     1820.201      949.381        0.663        0.280       87.251       25.453        0.085      337.586        9.660      863.434
01/09/2014  19:55:00     -129.183      -10.870      -33.339       50.734       36.015       25.527     2573.952     1297.056      651.622        1.122        0.226      129.640       15.117        0.014      337.611        9.702      863.476
01/09/2014  19:56:00     -106.745      -45.425       -7.168       78.042       50.208       33.628     6090.562     2520.874     1130.864        1.162        0.487      116.008       35.014        0.091      337.567        9.627      863.491
01/09/2014  19:57:00     -246.393      -72.495      -23.955       68.732       89.459       46.388     4724.068     8002.921     2151.878        4.071        0.744      256.837       34.009        0.018      337.573        9.634      863.472
01/09/2014  19:58:00     -260.076       39.477      -17.846      132.244      126.221       68.263    17488.526    15931.683     4659.810        5.379        1.904      263.055       52.917        0.040      337.624        9.721      863.447
01/09/2014  19:59:00     -103.868      -30.269       -3.484       71.761       94.219       43.365     5149.670     8877.180     1880.547        1.381        0.795      108.189       40.099        0.137      337.585        9.658      863.440
01/09/2014  20:00:00     -109.985        8.307       11.709       94.933       87.262       53.709     9012.204     7614.637     2884.695        1.590        0.976      110.298       62.359        0.320      337.629        9.730      863.427
01/09/2014  20:01:00     -141.401       38.261      -17.397      106.651       60.833       44.799    11374.492     3700.691     2006.925        1.942        0.854      146.486       54.410        0.138      337.642        9.753      863.453
01/09/2014  20:02:00     -139.717       17.217      -21.473       84.538       72.759       41.335     7146.646     5293.812     1708.545        1.721        0.707      140.774       39.591        0.079      337.655        9.775      863.476
01/09/2014  20:03:00      -54.356       21.287       -9.972       41.153       33.806       23.308     1693.585     1142.879      543.257        0.344        0.169       58.376       17.005        0.085      337.651        9.768      863.514
01/09/2014  20:04:00      -85.704       73.354       -5.170       80.352      122.598       39.138     6456.505    15030.312     1531.819        1.788        1.151      112.809       52.879        0.220      337.657        9.779      863.533
01/09/2014  20:05:00     -177.712       52.864      -21.613       49.122       69.997       35.241     2412.959     4899.565     1241.944        2.170        0.428      185.408       20.558        0.012      337.604        9.688      863.548
01/09/2014  20:06:00     -124.397       31.059      -15.861       40.055       41.806       25.872     1604.412     1747.783      669.377        1.036        0.201      128.216       16.174        0.016      337.565        9.622      863.554
01/09/2014  20:07:00      -88.195       62.291       -4.096       57.088       85.331       32.111     3259.085     7281.443     1031.146        1.162        0.579      107.974       23.276        0.046      337.577        9.645      863.551
01/09/2014  20:08:00      -37.976       71.384       -0.093       41.804       58.480       24.328     1747.534     3419.858      591.864        0.615        0.288       80.857       29.583        0.134      337.565        9.624      863.554
01/09/2014  20:09:00      -98.077       43.793      -11.693       43.847       49.272       31.509     1922.531     2427.689      992.839        0.851        0.267      107.410       28.746        0.072      337.588        9.663      863.555
01/09/2014  20:10:00     -127.641      123.389      -25.410       85.845       63.187       41.927     7369.284     3992.567     1757.832        2.264        0.656      177.531       39.653        0.050      337.598        9.679      863.586
01/09/2014  20:11:00     -214.872       95.538      -30.566      126.970       87.554       58.836    16121.263     7665.731     3461.673        4.174        1.362      235.154       47.104        0.040      337.612        9.701      863.589
01/09/2014  20:12:00      -64.724      115.703       -3.243       67.942       74.867       53.379     4616.066     5605.005     2849.334        1.533        0.654      132.576       52.347        0.156      337.616        9.708      863.577
01/09/2014  20:13:00     -128.793       44.520       -0.394       79.825       60.819       34.366     6372.103     3698.939     1180.993        1.491        0.563      136.271       27.649        0.041      337.590        9.667      863.625
01/09/2014  20:14:00     -141.066       76.339      -17.281       85.777       48.643       38.106     7357.771     2366.148     1452.077        1.860        0.559      160.397       36.909        0.053      337.592        9.670      863.678
01/09/2014  20:15:00      -43.585      102.393       -3.556       40.088       60.331       41.304     1607.056     3639.865     1706.002        0.967        0.348      111.283       33.181        0.089      337.649        9.765      863.698
01/09/2014  20:16:00      -38.275      117.376        1.510       61.601       67.471       45.496     3794.680     4552.301     2069.888        1.283        0.521      123.459       28.610        0.054      337.578        9.646      863.702
01/09/2014  20:17:00      -28.836       84.053        2.089       29.412       56.017       33.039      865.043     3137.953     1091.550        0.650        0.255       88.861       24.373        0.075      337.590        9.667      863.704
01/09/2014  20:18:00      -60.111       61.242       -8.935       53.428       65.589       29.703     2854.542     4301.890      882.246        0.774        0.402       85.813       25.701        0.090      337.553        9.604      863.747
01/09/2014  20:19:00     -101.602      143.424       -8.313       58.833       87.564       41.051     3461.372     7667.505     1685.178        2.189        0.641      175.765       49.727        0.080      337.560        9.613      863.772
01/09/2014  20:20:00      -90.239       34.196       -9.153       62.632       59.937       32.348     3922.726     3592.439     1046.421        0.898        0.428       96.501       36.508        0.143      337.540        9.583      863.767
01/09/2014  20:21:00      -63.216      173.726      -15.641       41.372       58.678       33.511     1711.678     3443.149     1122.960        2.035        0.314      184.870       26.455        0.020      337.535        9.572      863.757
01/09/2014  20:22:00     -115.903       92.475      -22.796       70.496       82.843       35.303     4969.657     6862.943     1246.271        1.779        0.654      148.274       37.718        0.065      337.578        9.645      863.751
01/09/2014  20:23:00      -42.874       -3.978       -0.715       47.880       35.918       27.261     2292.533     1290.136      743.162        0.309        0.216       43.058       25.323        0.346      337.550        9.601      863.749
01/09/2014  20:24:00     -104.653      -26.847      -14.696       73.813       42.904       37.257     5448.360     1840.749     1388.093        1.028        0.434      108.042       36.473        0.114      337.561        9.618      863.770
01/09/2014  20:25:00      -65.017       78.453        2.195       53.438       68.939       32.470     2855.575     4752.654     1054.326        0.952        0.433      101.892       35.862        0.124      337.552        9.604      863.849
01/09/2014  20:26:00      -70.765       51.509       -4.099       46.699       75.669       33.740     2180.784     5725.746     1138.382        0.836        0.452       87.526       17.886        0.042      337.587        9.662      863.882
01/09/2014  20:27:00      -39.982       93.593        2.664       43.980       56.204       32.098     1934.273     3158.884     1030.299        0.824        0.306      101.775       28.606        0.079      337.604        9.689      863.906
01/09/2014  20:28:00      -14.940      121.197      -14.064       46.553       70.713       31.060     2167.165     5000.377      964.729        1.162        0.407      122.114       23.450        0.037      337.510        9.533      863.928
01/09/2014  20:29:00      -42.389       99.891      -13.110       62.112       54.235       38.694     3857.859     2941.462     1497.208        1.012        0.415      108.513       25.062        0.053      337.467        9.460      863.945
01/09/2014  20:30:00     -168.265       76.303      -16.775       65.404       59.666       32.663     4277.734     3559.984     1066.893        2.166        0.445      184.757       25.834        0.020      337.569        9.627      863.948
01/09/2014  20:31:00     -143.535       49.817      -10.902       54.666       45.944       28.227     2988.391     2110.856      796.788        1.455        0.295      151.934       22.848        0.023      337.490        9.499      863.941
01/09/2014  20:32:00      -34.989       24.101        0.776       45.285       75.494       29.985     2050.723     5699.351      899.075        0.523        0.432       42.486       22.893        0.290      337.606        9.693      863.953
01/09/2014  20:33:00        6.693      136.371      -14.515       43.159       53.853       34.662     1862.728     2900.180     1201.483        1.241        0.298      136.535       27.494        0.041      337.419        9.380      863.959
01/09/2014  20:34:00     -120.699      174.275      -26.107       46.092       64.460       29.195     2124.436     4155.110      852.359        2.638        0.357      211.991       26.842        0.016      337.455        9.439      864.014
01/09/2014  20:35:00      -36.123       55.347       -8.027       38.572       28.237       20.946     1487.767      797.303      438.728        0.358        0.136       66.092       12.651        0.037      337.478        9.478      864.020
01/09/2014  20:36:00      -95.564       61.217      -14.465       42.981       43.042       35.609     1847.337     1852.642     1267.993        0.903        0.248      113.490       29.477        0.067      337.517        9.545      863.994
01/09/2014  20:37:00      -59.349        9.937        2.119       61.935       47.807       20.124     3835.891     2285.555      404.966        0.507        0.326       60.175       20.946        0.121      337.472        9.469      863.967
01/09/2014  20:38:00      -47.721       24.220       11.487       31.318       46.794       21.981      980.796     2189.641      483.178        0.332        0.183       53.515       16.402        0.094      337.461        9.449      863.966
01/09/2014  20:39:00      -21.988       32.034        1.372       27.028       37.355       25.333      730.521     1395.410      641.752        0.214        0.138       38.854       20.018        0.265      337.403        9.354      863.979
01/09/2014  20:40:00      -29.900       60.923       -2.034       42.733       25.601       21.835     1826.091      655.427      476.753        0.378        0.148       67.864       11.289        0.028      337.444        9.423      864.021
01/09/2014  20:41:00      -60.530       37.221        1.378       38.028       31.343       21.990     1446.146      982.408      483.560        0.398        0.146       71.059       11.414        0.026      337.465        9.456      864.064
01/09/2014  20:42:00      -30.214      -11.504        4.354       19.502       24.444       12.687      380.341      597.525      160.953        0.110        0.057       32.330        7.923        0.060      337.468        9.460      864.057
01/09/2014  20:43:00     -156.365       65.961      -22.310       98.619       52.142       41.190     9725.626     2718.833     1696.632        2.172        0.707      169.708       46.221        0.074      337.538        9.577      864.068
01/09/2014  20:44:00      -91.191       67.703      -19.525       61.317       72.253       36.535     3759.736     5220.488     1334.787        1.180        0.516      113.576        8.278        0.005      337.582        9.652      864.074
01/09/2014  20:45:00      -52.448       16.439       15.631       50.704       54.510       30.895     2570.884     2971.343      954.511        0.488        0.325       54.964       28.742        0.273      337.587        9.661      864.060
01/09/2014  20:46:00     -117.861      -20.525      -13.121       44.615       53.423       30.524     1990.533     2853.981      931.717        1.013        0.289      119.634       27.812        0.054      337.558        9.613      864.043
01/09/2014  20:47:00     -162.034      -73.989      -15.731       43.711       50.755       32.880     1910.682     2576.025     1081.119        1.877        0.278      178.127       24.033        0.018      337.584        9.656      864.004
01/09/2014  20:48:00      -76.903      -24.511        1.408       42.056       40.656       27.072     1768.734     1652.896      732.881        0.533        0.208       80.714       15.324        0.036      337.573        9.640      863.972
01/09/2014  20:49:00      -37.544       -8.081       -5.117       41.325       35.758       31.010     1707.764     1278.612      961.638        0.272        0.197       38.403       31.168        0.659      337.596        9.680      863.976
01/09/2014  20:50:00        0.801       84.794      -16.122       29.664       39.396       24.904      879.934     1552.074      620.203        0.525        0.153       84.798       26.915        0.101      337.301        9.183      864.006
01/09/2014  20:51:00       26.935      139.226      -18.777       29.088       47.677       29.371      846.087     2273.083      862.683        1.222        0.199      141.808       30.314        0.046      336.980        8.644      864.026
01/09/2014  20:52:00       -4.899      146.069      -20.046       28.812       35.430       18.106      830.147     1255.307      327.824        1.209        0.121      146.151       17.868        0.015      336.936        8.570      864.056
01/09/2014  20:53:00      -41.484       82.985       -8.720       26.146       85.208       24.403      683.634     7260.391      595.493        0.861        0.427       92.776       35.565        0.147      337.054        8.770      864.093
01/09/2014  20:54:00       -9.092       21.945        8.440       16.850       17.491       13.482      283.935      305.930      181.760        0.070        0.039       23.754        8.815        0.138      337.152        8.932      864.075
01/09/2014  20:55:00      -58.275       32.253        3.088       33.617       26.670       11.003     1130.096      711.270      121.065        0.320        0.098       66.605       12.894        0.037      337.316        9.207      864.103
01/09/2014  20:56:00      -97.558       46.399      -10.851       46.778       27.401       24.369     2188.187      750.833      593.856        0.766        0.177      108.030       25.266        0.055      337.327        9.227      864.111
01/09/2014  20:57:00     -150.349       19.769      -10.405       42.779       45.658       21.822     1830.082     2084.645      476.184        1.375        0.220      151.643       15.591        0.011      337.340        9.248      864.116
01/09/2014  20:58:00      -52.477       23.837       -3.529       28.166       44.177       22.864      793.307     1951.586      522.741        0.330        0.163       57.637       19.032        0.109      337.367        9.291      864.084
01/09/2014  20:59:00      -93.108       13.100      -15.443       31.604       39.740       14.678      998.836     1579.240      215.448        0.594        0.140       94.025       15.241        0.026      337.290        9.165      864.092
01/09/2014  21:00:00      -62.063      -27.098      -12.020       37.522       27.424       18.445     1407.894      752.056      340.224        0.361        0.125       67.721       10.725        0.025      337.332        9.233      864.077
01/09/2014  21:01:00     -145.574      -38.385      -21.004       60.344       47.668       22.603     3641.386     2272.267      510.908        1.476        0.321      150.549        5.838        0.002      337.367        9.292      864.045
01/09/2014  21:02:00     -149.588      -87.480        4.425       85.301       92.384       43.958     7276.297     8534.812     1932.338        2.389        0.887      173.289       45.804        0.070      337.469        9.461      864.033
01/09/2014  21:03:00     -195.395     -106.430       -8.675       95.947       63.144       45.545     9205.826     3987.205     2074.335        3.242        0.763      222.501       40.911        0.034      337.479        9.478      864.003
01/09/2014  21:04:00     -280.167      -42.767      -32.336       97.014       81.185       34.548     9411.725     6591.036     1193.570        4.928        0.860      283.413       28.069        0.010      337.536        9.573      863.974
01/09/2014  21:05:00      -54.788      -21.551       17.471       60.589       61.840       33.711     3671.062     3824.192     1136.420        0.620        0.432       58.874       41.372        0.494      337.472        9.468      863.957
01/09/2014  21:06:00     -109.448      -15.973       -8.718       47.557       30.296       23.142     2261.654      917.844      535.540        0.801        0.186      110.608       22.083        0.040      337.451        9.434      863.971
01/09/2014  21:07:00     -109.646      -23.563       -6.642       73.570       42.045       26.516     5412.574     1767.764      703.104        1.025        0.394      112.149       24.884        0.049      337.448        9.429      863.949
01/09/2014  21:08:00     -117.147       61.856      -13.598       32.282       29.718       22.237     1042.109      883.181      494.504        1.008        0.121      132.475       17.225        0.017      337.434        9.405      863.925
01/09/2014  21:09:00     -145.134       -8.799       -4.134       41.909       51.638       23.452     1756.397     2666.486      549.977        1.306        0.249      145.400       23.540        0.026      337.444        9.422      863.902
01/09/2014  21:10:00     -151.226        0.198      -11.627       56.268       41.424       29.945     3166.093     1715.956      896.690        1.439        0.289      151.226       28.572        0.036      337.465        9.456      863.883
01/09/2014  21:11:00     -127.717        7.304       -7.613       39.638       30.994       21.937     1571.163      960.603      481.229        0.972        0.151      127.926       18.048        0.020      337.433        9.404      863.896
01/09/2014  21:12:00     -113.021       16.397      -15.334       52.947       52.244       28.233     2803.382     2729.384      797.091        0.980        0.316      114.205       19.318        0.029      337.392        9.334      863.953
01/09/2014  21:13:00      -60.985       -6.901       -6.756       24.308       30.598       17.675      590.859      936.244      312.393        0.283        0.092       61.374       16.215        0.070      337.376        9.308      863.959
01/09/2014  21:14:00      -48.066       17.020       -7.129       54.435       51.247       27.818     2963.205     2626.227      773.826        0.451        0.318       50.990       24.730        0.235      337.372        9.302      863.970
01/09/2014  21:15:00     -117.329      -17.647        7.439       50.600       92.371       39.035     2560.387     8532.332     1523.763        1.337        0.631      118.649       27.132        0.052      337.360        9.280      863.988
01/09/2014  21:16:00     -220.707      -61.945       -8.170       90.420       60.455       36.215     8175.818     3654.816     1311.497        3.288        0.657      229.235       36.600        0.025      337.370        9.298      864.031
01/09/2014  21:17:00     -175.388      -87.735        6.456       77.573       64.789       44.979     6017.560     4197.604     2023.105        2.537        0.612      196.108       42.397        0.047      337.390        9.329      864.031
01/09/2014  21:18:00     -120.407      -25.106        0.218       52.830       49.120       32.048     2790.980     2412.772     1027.091        1.068        0.312      122.997       32.703        0.071      337.365        9.289      863.998
01/09/2014  21:19:00     -100.750      -23.759       -2.402       69.862       43.436       28.533     4880.720     1886.689      814.110        0.915        0.379      103.513       38.019        0.135      337.392        9.334      863.992
01/09/2014  21:20:00     -194.973      -90.514       -0.741       86.192       79.198       37.027     7429.094     6272.353     1370.975        3.064        0.754      214.959       39.600        0.034      337.391        9.330      864.029
01/09/2014  21:21:00     -245.329      -26.102      -10.151       91.175       70.798       43.992     8312.815     5012.317     1935.328        3.811        0.763      246.714       42.963        0.030      337.414        9.371      864.064
01/09/2014  21:22:00     -220.847      -67.071      -22.526       88.201       68.000       39.317     7779.375     4624.018     1545.835        3.386        0.697      230.807       33.019        0.020      337.454        9.435      864.064
01/09/2014  21:23:00     -225.910      -60.899      -10.651       75.474       91.636       41.399     5696.399     8397.087     1713.903        3.533        0.790      233.974       36.727        0.025      337.466        9.457      864.036
01/09/2014  21:24:00     -270.010      -79.911      -17.535       81.158       75.625       42.260     6586.558     5719.206     1785.929        4.684        0.705      281.587       46.383        0.027      337.446        9.421      864.041
01/09/2014  21:25:00     -215.346      -20.063      -13.936       67.867       57.760       31.569     4605.952     3336.202      996.576        2.795        0.447      216.278       29.796        0.019      337.402        9.348      864.058
01/09/2014  21:26:00     -155.150      -21.775       -8.888       83.768       76.761       30.438     7017.085     5892.241      926.445        1.923        0.692      156.670       30.439        0.038      337.381        9.315      864.043
01/09/2014  21:27:00     -176.269      -82.922       -7.003       50.193       57.283       25.961     2519.291     3281.338      673.967        2.223        0.324      194.800       16.571        0.007      337.389        9.328      864.029
01/09/2014  21:28:00     -156.262      -65.908      -10.216       85.999       39.018       29.418     7395.803     1522.367      865.396        1.932        0.489      169.592       22.710        0.018      337.404        9.354      864.012
01/09/2014  21:29:00     -132.926      -76.440        1.705       88.278       54.044       34.816     7792.991     2920.757     1212.160        1.772        0.596      153.337       38.663        0.064      337.383        9.318      863.971
01/09/2014  21:30:00     -142.668      -70.133      -12.042       57.544       44.513       32.703     3311.255     1981.448     1069.479        1.589        0.318      158.975       27.099        0.029      337.380        9.315      863.959
01/09/2014  21:31:00     -149.251      -31.018      -22.107       79.022       62.049       28.212     6244.412     3850.054      795.941        1.731        0.545      152.440       21.826        0.020      337.376        9.306      863.942
01/09/2014  21:32:00     -131.590      -27.065       -9.751       70.315       57.328       26.961     4944.262     3286.543      726.893        1.355        0.448      134.345       29.249        0.047      337.322        9.216      863.956
01/09/2014  21:33:00     -158.207      -41.642       -5.411       52.921       53.983       33.334     2800.624     2914.212     1111.185        1.681        0.341      163.595       32.582        0.040      337.334        9.237      863.953
01/09/2014  21:34:00     -196.156      -69.172       -6.549       65.629       52.496       34.863     4307.101     2755.829     1215.452        2.579        0.414      207.995       33.845        0.026      337.341        9.248      863.966
01/09/2014  21:35:00     -185.171      -48.934       -4.188       91.534       66.652       43.976     8378.401     4442.508     1933.885        2.573        0.738      191.528       45.107        0.055      337.369        9.293      863.947
01/09/2014  21:36:00     -136.891      -16.771       -3.527       76.912       61.298       44.205     5915.404     3757.422     1954.085        1.533        0.581      137.914       42.861        0.097      337.319        9.213      863.927
01/09/2014  21:37:00     -119.475      -56.218       -2.803       69.092       50.327       36.808     4773.770     2532.830     1354.822        1.305        0.433      132.041       40.495        0.094      337.290        9.164      863.906
01/09/2014  21:38:00     -144.257      -54.123       -7.778       57.154       50.123       23.284     3266.600     2512.282      542.131        1.506        0.316      154.076       27.120        0.031      337.263        9.119      863.887
01/09/2014  21:39:00     -155.133      -66.220       -7.214       46.698       50.594       28.653     2180.685     2559.744      820.999        1.703        0.278      168.676       25.915        0.024      337.253        9.102      863.869
01/09/2014  21:40:00     -176.181      -68.407       -8.318       45.046       43.514       21.920     2029.109     1893.493      480.498        2.009        0.220      188.995       22.176        0.014      337.221        9.046      863.860
01/09/2014  21:41:00     -187.313      -47.498       -9.436       48.750       42.166       26.458     2376.561     1777.935      700.011        2.114        0.243      193.242       22.937        0.014      337.229        9.061      863.873
01/09/2014  21:42:00     -176.424      -60.945       -8.873       74.747       58.463       36.122     5587.145     3417.954     1304.774        2.261        0.515      186.654       37.455        0.040      337.249        9.094      863.885
01/09/2014  21:43:00     -138.590      -69.542      -16.938       46.514       54.000       28.598     2163.520     2916.022      817.868        1.511        0.295      155.059       23.037        0.022      337.229        9.061      863.910
01/09/2014  21:44:00     -121.238      -22.938       -9.330       27.398       34.695       24.964      750.677     1203.741      623.182        0.894        0.129      123.389        9.074        0.005      337.235        9.074      863.952
01/09/2014  21:45:00      -77.528       -2.519       -5.458       34.652       27.010       20.280     1200.731      729.539      411.283        0.419        0.117       77.569       10.462        0.018      337.196        9.009      863.972
01/09/2014  21:46:00      -93.634       -8.280      -12.434       39.766       25.003       15.240     1581.312      625.155      232.270        0.571        0.122       93.999       12.353        0.017      337.229        9.063      863.970
01/09/2014  21:47:00      -89.375      -20.259       -3.484       34.152       29.809       23.644     1166.333      888.588      559.019        0.551        0.131       91.643       22.284        0.059      337.268        9.127      863.969
01/09/2014  21:48:00      -79.135      -25.566       -1.479       36.618       32.652       19.941     1340.860     1066.184      397.658        0.486        0.140       83.162       20.983        0.064      337.257        9.110      863.967
01/09/2014  21:49:00     -139.136      -52.637       -5.532       70.257       51.222       32.788     4936.048     2623.708     1075.062        1.540        0.432      148.760       36.164        0.059      337.318        9.209      863.984
01/09/2014  21:50:00     -135.357       38.337      -18.159       46.174       48.073       19.135     2132.025     2310.980      366.152        1.246        0.240      140.682       15.937        0.013      337.238        9.078      864.005
01/09/2014  21:51:00     -176.622       20.934      -20.266       46.546       65.387       31.732     2166.568     4275.408     1006.890        1.975        0.372      177.858       29.069        0.027      337.275        9.139      864.018
01/09/2014  21:52:00     -129.061       29.156      -10.204       74.718       95.936       35.307     5582.827     9203.648     1246.571        1.682        0.802      132.313       36.944        0.078      337.230        9.064      864.007
01/09/2014  21:53:00     -127.734      -37.402      -18.028       74.535       59.275       32.178     5555.520     3513.557     1035.455        1.407        0.505      133.097       29.061        0.048      337.256        9.106      864.011
01/09/2014  21:54:00     -202.168      -34.007       -7.951       55.089       52.794       27.548     3034.748     2787.198      758.873        2.434        0.329      205.008       23.889        0.014      337.229        9.060      864.016
01/09/2014  21:55:00     -106.834       -3.271      -13.471       69.187       34.193       32.857     4786.818     1169.132     1079.588        0.932        0.352      106.884       25.541        0.057      337.209        9.029      864.019
01/09/2014  21:56:00     -198.769      -54.252       -5.518       90.592       78.816       41.996     8206.838     6211.997     1763.650        2.933        0.809      206.039       37.177        0.033      337.171        8.963      864.058
01/09/2014  21:57:00     -191.411      -32.856      -10.418       74.084       50.210       35.248     5488.478     2521.046     1242.429        2.354        0.463      194.210       36.651        0.036      337.064        8.782      864.085
01/09/2014  21:58:00     -222.175      -45.346      -22.503       72.612       48.430       30.291     5272.448     2345.497      917.520        3.023        0.427      226.755       33.833        0.022      337.047        8.754      864.062
01/09/2014  21:59:00     -136.432      -46.265      -11.602       29.375       30.449       23.405      862.896      927.158      547.806        1.161        0.117      144.063       17.514        0.015      337.026        8.722      864.023
01/09/2014  22:00:00      -96.981      -42.377      -12.504       37.209       35.153       22.988     1384.474     1235.733      528.458        0.725        0.157      105.835       18.837        0.032      337.020        8.712      864.001
01/09/2014  22:01:00      -91.261      -23.808      -14.919       36.479       29.229       17.661     1330.683      854.355      311.908        0.581        0.125       94.315       15.192        0.026      337.025        8.720      863.978
01/09/2014  22:02:00     -162.611        7.583      -11.918       48.978       67.822       24.815     2398.839     4599.821      615.807        1.713        0.381      162.787       20.126        0.015      337.041        8.746      863.986
01/09/2014  22:03:00     -157.550      -41.219      -18.156       36.185       58.957       30.964     1309.331     3475.961      958.798        1.630        0.287      162.852       31.165        0.037      337.016        8.704      864.014
01/09/2014  22:04:00     -194.613        0.531        3.605       79.226       73.014       43.127     6276.734     5331.068     1859.971        2.568        0.673      194.614       43.456        0.050      337.038        8.740      864.051
01/09/2014  22:05:00     -167.219      -23.820      -14.288       53.235       55.262       28.589     2833.985     3053.859      817.320        1.772        0.335      168.907       24.786        0.022      336.986        8.653      864.080
01/09/2014  22:06:00     -179.441       -3.400      -18.055       51.001       41.882       22.048     2601.153     1754.143      486.111        1.869        0.242      179.473       16.288        0.008      336.937        8.571      864.089
01/09/2014  22:07:00     -172.309      -30.951      -11.999       43.936       34.736       26.522     1930.398     1206.576      703.431        1.732        0.192      175.067       21.400        0.015      336.901        8.512      864.084
01/09/2014  22:08:00     -181.316      -42.486      -12.865       74.262       57.581       35.175     5514.859     3315.517     1237.278        2.246        0.503      186.227       31.011        0.028      336.909        8.525      864.059
01/09/2014  22:09:00     -175.649      -16.777       -9.004       70.613       60.703       39.288     4986.147     3684.864     1543.555        2.071        0.511      176.448       36.307        0.042      336.950        8.593      864.026
01/09/2014  22:10:00     -203.018      -81.736      -20.873       62.408       69.045       33.306     3894.774     4767.250     1109.288        2.905        0.489      218.854       24.637        0.013      337.016        8.702      864.014
01/09/2014  22:11:00     -153.339      -40.198      -10.591       60.956       47.897       32.655     3715.665     2294.124     1066.348        1.616        0.354      158.520       32.375        0.042      337.003        8.682      864.026
01/09/2014  22:12:00     -186.539      -45.850      -22.529       56.589       42.539       33.800     3202.293     1809.587     1142.472        2.178        0.308      192.091       33.696        0.031      337.050        8.760      864.039
01/09/2014  22:13:00     -133.793      -32.874       -4.075       55.797       43.319       31.663     3113.359     1876.562     1002.516        1.249        0.300      137.773       32.518        0.056      337.031        8.730      864.051
01/09/2014  22:14:00     -152.399      -29.810        2.125       75.111       53.782       37.150     5641.676     2892.473     1380.135        1.701        0.496      155.287       35.914        0.053      337.039        8.742      864.071
01/09/2014  22:15:00     -171.815      -29.016      -18.466       43.533       59.365       29.198     1895.082     3524.192      852.528        1.849        0.314      174.248       25.526        0.021      337.027        8.721      864.066
01/09/2014  22:16:00      -99.199      -34.812      -14.215       63.659       47.096       32.979     4052.433     2218.080     1087.589        0.931        0.368      105.130       29.178        0.077      337.047        8.757      864.036
01/09/2014  22:17:00      -99.292      -12.445      -19.991       44.266       39.424       20.891     1959.470     1554.254      436.449        0.718        0.198      100.069       17.281        0.030      337.065        8.788      863.998
01/09/2014  22:18:00     -104.139      -45.629       -8.184       55.703       46.615       33.505     3102.809     2172.961     1122.565        0.970        0.320      113.696       26.843        0.056      337.053        8.767      863.970
01/09/2014  22:19:00     -129.846      -16.985      -14.500       47.717       31.846       24.994     2276.877     1014.176      624.692        1.064        0.196      130.952       17.348        0.018      336.945        8.586      863.973
01/09/2014  22:20:00     -178.181      -67.165      -20.806       29.713       35.576       19.258      882.843     1265.644      370.867        1.961        0.126      190.419       13.838        0.005      336.844        8.418      863.948
01/09/2014  22:21:00     -165.467      -18.576      -29.839       57.249       51.437       31.379     3277.397     2645.744      984.658        1.776        0.345      166.507       28.744        0.030      336.928        8.557      863.938
01/09/2014  22:22:00     -153.995      -74.724       -1.428       79.944       64.391       47.609     6390.963     4146.210     2266.645        2.105        0.640      171.167       47.334        0.076      336.971        8.626      863.945
01/09/2014  22:23:00     -122.822      -34.081       -9.936       50.331       67.527       35.244     2533.177     4559.927     1242.155        1.234        0.417      127.463       19.275        0.023      336.949        8.592      863.929
01/09/2014  22:24:00     -203.464      -35.339      -18.300       41.777       45.114       28.912     1745.301     2035.274      835.881        2.380        0.231      206.511       18.611        0.008      336.927        8.553      863.913
01/09/2014  22:25:00     -193.483      -44.126      -10.357       54.024       52.398       25.840     2918.561     2745.589      667.730        2.291        0.317      198.451       24.292        0.015      336.945        8.585      863.906
01/09/2014  22:26:00     -126.673      -63.725       -1.600       49.005       41.807       27.482     2401.508     1747.831      755.287        1.251        0.245      141.799       16.955        0.014      336.940        8.576      863.899
01/09/2014  22:27:00     -189.621      -29.230      -16.471       47.005       57.707       28.817     2209.512     3330.098      830.427        2.172        0.319      191.861       18.395        0.009      336.898        8.504      863.871
01/09/2014  22:28:00     -218.286      -59.001       -5.673       74.335       79.980       44.808     5525.652     6396.848     2007.775        3.254        0.697      226.119       41.650        0.034      336.958        8.606      863.831
01/09/2014  22:29:00     -203.386      -35.417       -4.727       84.524       70.971       43.217     7144.311     5036.921     1867.718        2.834        0.702      206.446       47.985        0.054      336.908        8.522      863.801
01/09/2014  22:30:00     -214.426      -33.894      -13.778       69.067       61.155       33.685     4770.256     3739.942     1134.706        2.848        0.482      217.088       27.567        0.016      336.957        8.602      863.785
01/09/2014  22:31:00     -192.334      -27.298      -18.627       87.749       62.681       38.302     7699.967     3928.881     1467.057        2.559        0.655      194.261       36.976        0.036      336.909        8.524      863.762
01/09/2014  22:32:00     -221.745      -41.718      -10.852       73.286       56.040       36.610     5370.806     3140.501     1340.307        3.044        0.493      225.635       33.751        0.022      336.902        8.511      863.748
01/09/2014  22:33:00     -230.969      -24.046      -14.530       75.167       62.082       46.282     5650.015     3854.164     2142.069        3.289        0.582      232.218       39.254        0.029      336.899        8.504      863.745
01/09/2014  22:34:00     -205.089      -65.657       -5.123       64.910       70.534       35.903     4213.325     4975.059     1289.051        2.844        0.524      215.343       34.791        0.026      336.903        8.512      863.733
01/09/2014  22:35:00     -277.825       -6.869      -13.612       91.437       65.922       51.596     8360.638     4345.748     2662.137        4.639        0.768      277.910       48.988        0.031      337.039        8.739      863.721
01/09/2014  22:36:00     -207.712      -36.830       -9.302       85.846       69.961       41.909     7369.563     4894.487     1756.377        2.930        0.701      210.952       45.046        0.046      337.018        8.704      863.723
01/09/2014  22:37:00     -150.407      -28.975       -2.080       57.075       64.791       34.103     3257.560     4197.841     1163.004        1.604        0.431      153.173       27.151        0.031      336.985        8.653      863.745
01/09/2014  22:38:00     -155.057      -25.846       -5.301       55.001       67.168       35.309     3025.104     4511.561     1246.749        1.676        0.439      157.196       31.946        0.041      337.012        8.697      863.772
01/09/2014  22:39:00     -184.792      -38.443       -7.103       99.432       40.259       34.391     9886.719     1620.822     1182.738        2.418        0.635      188.749       47.506        0.063      337.000        8.677      863.751
01/09/2014  22:40:00     -206.627      -35.555      -14.788       75.220       61.880       41.574     5658.019     3829.078     1728.421        2.769        0.561      209.664       43.045        0.042      337.032        8.728      863.715
01/09/2014  22:41:00     -144.305      -15.261       -5.002       76.456       49.092       32.313     5845.566     2410.002     1044.157        1.519        0.465      145.110       34.821        0.058      337.005        8.684      863.680
01/09/2014  22:42:00     -180.871      -19.738      -12.302       48.594       54.993       29.923     2361.408     3024.254      895.365        1.977        0.314      181.944       25.934        0.020      337.035        8.736      863.701
01/09/2014  22:43:00     -185.740      -48.325        0.027       75.714       67.212       43.673     5732.643     4517.429     1907.342        2.449        0.608      191.924       42.586        0.049      337.010        8.693      863.720
01/09/2014  22:44:00     -168.870        1.295      -22.999       53.527       48.714       35.910     2865.115     2373.057     1289.550        1.779        0.326      168.875       21.688        0.016      337.070        8.794      863.708
01/09/2014  22:45:00     -183.786      -25.648      -18.971       53.174       43.045       29.375     2827.518     1852.852      862.883        2.017        0.277      185.567       31.812        0.029      337.123        8.884      863.717
01/09/2014  22:46:00     -132.394      -35.617      -11.771       52.519       52.866       34.881     2758.227     2794.810     1216.718        1.285        0.338      137.102       29.496        0.046      337.069        8.794      863.744
01/09/2014  22:47:00     -255.169       23.621      -22.894       99.670       76.355       37.945     9934.131     5830.074     1439.805        4.170        0.860      256.260       45.900        0.032      337.338        9.242      863.781
01/09/2014  22:48:00     -111.307      -50.217       10.225       67.933       51.206       37.300     4614.895     2622.021     1391.284        1.182        0.431      122.111       38.439        0.099      337.132        8.900      863.789
01/09/2014  22:49:00     -118.143      -41.433       -8.729       77.101       53.035       31.076     5944.511     2812.692      965.737        1.274        0.486      125.198       32.579        0.068      337.110        8.861      863.779
01/09/2014  22:50:00     -169.532      -58.702      -10.187       69.955       43.714       39.248     4893.772     1910.921     1540.387        2.032        0.417      179.407       35.995        0.040      337.085        8.819      863.804
01/09/2014  22:51:00     -143.862      -41.075      -14.805       49.513       52.927       32.843     2451.537     2801.272     1078.665        1.447        0.317      149.611       28.204        0.036      337.093        8.832      863.828
01/09/2014  22:52:00     -168.287      -25.543      -22.963       48.554       56.790       27.140     2357.477     3225.075      736.594        1.791        0.316      170.214       24.739        0.021      337.109        8.859      863.837
01/09/2014  22:53:00     -173.072      -59.327       -9.641       67.563       57.704       34.180     4564.803     3329.746     1168.252        2.131        0.453      182.958       36.252        0.039      337.101        8.843      863.842
01/09/2014  22:54:00     -195.993      -44.365      -12.574       82.691       73.640       38.655     6837.731     5422.842     1494.226        2.714        0.688      200.951       37.160        0.034      337.143        8.915      863.839
01/09/2014  22:55:00     -174.060      -62.885      -13.773       82.048       59.084       30.024     6731.848     3490.882      901.464        2.278        0.556      185.071       18.387        0.010      337.136        8.904      863.854
01/09/2014  22:56:00     -243.277      -13.073      -15.197       91.229       65.229       33.836     8322.804     4254.774     1144.866        3.665        0.686      243.628       31.067        0.016      337.213        9.034      863.846
01/09/2014  22:57:00     -200.544       -8.785      -19.571       53.528       57.981       28.925     2865.228     3361.744      836.682        2.387        0.353      200.736       25.798        0.017      337.264        9.119      863.846
01/09/2014  22:58:00     -172.264      -80.868      -13.952       74.303       67.522       37.978     5520.918     4559.163     1442.317        2.396        0.576      190.301       25.897        0.019      337.234        9.069      863.860
01/09/2014  22:59:00     -153.238      -55.684       -8.563       75.506       60.527       45.263     5701.123     3663.527     2048.731        1.903        0.571      163.042       47.582        0.085      337.253        9.100      863.877
01/09/2014  23:00:00      -98.285      -22.489       -3.021       76.007       50.488       41.624     5777.051     2549.088     1732.517        1.012        0.503      100.825       49.944        0.245      337.186        8.990      863.913
01/09/2014  23:01:00     -159.399      -15.706      -28.595       47.148       36.488       31.633     2222.949     1331.365     1000.632        1.551        0.228      160.171       27.930        0.030      337.202        9.017      863.926
01/09/2014  23:02:00     -109.863      -30.819       -7.982       47.385       27.634       27.442     2245.317      763.611      753.089        0.842        0.188      114.104       16.835        0.022      337.173        8.969      863.928
01/09/2014  23:03:00     -119.529        3.743      -21.499       45.247       41.776       28.454     2047.297     1745.217      809.629        0.968        0.230      119.588       20.424        0.029      337.205        9.025      863.929
01/09/2014  23:04:00     -114.309      -39.880      -11.045       64.136       49.319       36.743     4113.470     2432.390     1350.026        1.134        0.395      121.066       34.404        0.081      337.287        9.159      863.924
01/09/2014  23:05:00      -58.418      -28.413        6.955       47.135       40.873       21.632     2221.712     1670.593      467.948        0.431        0.218       64.961       22.136        0.116      337.177        8.975      863.939
01/09/2014  23:06:00      -85.213       -1.404       -4.315       33.749       47.060       27.570     1138.979     2214.670      760.112        0.570        0.206       85.225       18.297        0.046      337.157        8.940      863.960
01/09/2014  23:07:00      -63.652       13.285       -1.195       44.871       53.249       23.502     2013.376     2835.455      552.360        0.481        0.270       65.024       24.536        0.142      337.149        8.928      863.946
01/09/2014  23:08:00     -102.596       12.220      -13.934       49.758       36.804       23.485     2475.841     1354.502      551.560        0.762        0.219      103.322       24.839        0.058      337.337        9.242      863.947
01/09/2014  23:09:00     -147.511       31.932      -15.192       89.687       75.569       40.792     8043.772     5710.616     1663.978        1.921        0.771      150.927       51.732        0.117      337.353        9.268      863.958
01/09/2014  23:10:00      -93.363       15.871       -5.358       49.447       46.519       25.931     2445.027     2164.054      672.425        0.714        0.264       94.702       25.271        0.071      337.122        8.882      863.967
01/09/2014  23:11:00      -53.090      -12.009        2.499       46.179       52.671       33.026     2132.518     2774.215     1090.733        0.448        0.300       54.431       25.575        0.221      337.255        9.106      863.955
01/09/2014  23:12:00     -100.371      -20.140       -4.216       72.650       45.410       25.048     5278.045     2062.026      627.384        0.923        0.398      102.372       19.609        0.037      337.143        8.917      863.953
01/09/2014  23:13:00     -206.797      -26.882      -15.027       55.381       36.560       27.219     3067.090     1336.638      740.897        2.443        0.257      208.537       20.169        0.009      337.098        8.840      863.955
01/09/2014  23:14:00     -160.372      -27.146      -12.077       42.726       39.877       25.697     1825.529     1590.197      660.356        1.534        0.204      162.653       22.848        0.020      337.060        8.779      863.959
01/09/2014  23:15:00     -191.710      -27.114      -13.093       49.113       39.657       25.296     2412.107     1572.672      639.883        2.114        0.231      193.618       25.753        0.018      337.121        8.879      863.980
01/09/2014  23:16:00     -140.611      -27.496      -20.814       43.595       47.236       28.782     1900.550     2231.286      828.391        1.296        0.248      143.275       25.317        0.031      337.079        8.810      863.990
01/09/2014  23:17:00     -103.654      -33.239       -4.427       31.466       25.961       18.213      990.133      673.976      331.721        0.693        0.100      108.853       17.008        0.024      337.017        8.706      863.978
01/09/2014  23:18:00     -155.920      -26.472      -28.259       39.011       63.520       24.501     1521.829     4034.832      600.289        1.598        0.308      158.151       29.021        0.034      337.145        8.921      863.971
01/09/2014  23:19:00     -154.627      -56.489       -5.167       56.082       52.053       35.803     3145.190     2709.546     1281.888        1.713        0.357      164.622       31.739        0.037      337.168        8.959      863.968
01/09/2014  23:20:00      -71.603      -33.264      -14.455       45.683       28.451       20.386     2086.947      809.431      415.603        0.488        0.166       78.953       11.222        0.020      337.143        8.918      863.954
01/09/2014  23:21:00      -44.619      -13.519       -8.159       59.108       41.205       25.757     3493.751     1697.874      663.403        0.405        0.293       46.622       26.732        0.329      337.263        9.119      863.921
01/09/2014  23:22:00     -145.638      -26.119      -24.726       30.357       49.398       24.835      921.539     2440.143      616.802        1.324        0.199      147.962       20.563        0.019      337.245        9.091      863.913
01/09/2014  23:23:00     -117.564      -73.611        3.993       75.098       48.619       31.307     5639.768     2363.836      980.112        1.412        0.449      138.708       30.728        0.049      337.028        8.725      863.920
01/09/2014  23:24:00     -144.941      -27.738       -1.940       69.464       37.885       27.136     4825.280     1435.300      736.347        1.439        0.350      147.572       32.013        0.047      337.166        8.956      863.926
01/09/2014  23:25:00     -128.329      -38.687       -6.098       49.500       40.833       24.145     2450.295     1667.306      583.004        1.135        0.235      134.034       24.430        0.033      337.110        8.863      863.936
01/09/2014  23:26:00     -116.234      -32.407       -9.509       57.591       32.915       26.190     3316.734     1083.425      685.919        0.987        0.254      120.667       28.144        0.054      337.111        8.865      863.933
01/09/2014  23:27:00     -153.655       40.113      -23.494       30.695       35.894       19.363      942.186     1288.379      374.940        1.419        0.130      158.804       18.193        0.013      337.248        9.094      863.917
01/09/2014  23:28:00     -144.960       50.278      -11.515       46.932       38.012       24.853     2202.624     1444.918      617.686        1.397        0.213      153.432       25.889        0.028      337.328        9.229      863.880
01/09/2014  23:29:00     -139.073      -12.961      -20.185       36.017       28.137       21.513     1297.259      791.673      462.788        1.123        0.128      139.675       17.244        0.015      337.239        9.079      863.859
01/09/2014  23:30:00     -192.584        9.191      -29.342       64.964       56.050       33.972     4220.386     3141.587     1154.128        2.327        0.426      192.803       28.071        0.021      337.239        9.078      863.853
01/09/2014  23:31:00     -212.509       67.946      -36.572       86.677       41.772       31.129     7512.822     1744.923      969.024        3.067        0.511      223.107       31.452        0.020      337.671        9.800      863.867
01/09/2014  23:32:00     -155.605        0.280      -11.974       42.826       36.495       30.761     1834.042     1331.850      946.212        1.423        0.206      155.606       28.698        0.034      337.493        9.505      863.914
01/09/2014  23:33:00     -146.644       10.217      -15.747       46.537       28.895       20.614     2165.731      834.937      424.950        1.264        0.171      147.000       15.604        0.011      337.555        9.607      863.931
01/09/2014  23:34:00     -175.036      -36.773      -12.502       49.243       64.711       21.111     2424.902     4187.495      445.655        1.960        0.353      178.857       16.351        0.008      337.522        9.551      863.933
01/09/2014  23:35:00      -95.832      -65.325        2.796       64.790       37.639       29.966     4197.756     1416.732      897.952        0.998        0.326      115.980       30.064        0.067      337.461        9.451      863.924
01/09/2014  23:36:00     -145.451      -83.526       -2.107       54.692       50.667       25.056     2991.241     2567.140      627.800        1.716        0.309      167.727       22.491        0.018      337.547        9.593      863.917
01/09/2014  23:37:00     -116.344      -73.145        2.618       74.495       47.675       33.041     5549.478     2272.862     1091.721        1.390        0.446      137.427       33.939        0.061      337.471        9.467      863.892
01/09/2014  23:38:00      -22.420       -1.022       14.901       44.794       40.060       24.537     2006.528     1604.768      602.048        0.247        0.211       22.443       24.064        1.150      337.389        9.331      863.891
01/09/2014  23:39:00      -48.752       31.953      -15.307       30.613       24.758       13.023      937.148      612.977      169.604        0.268        0.086       58.290        9.314        0.026      337.355        9.272      863.897
01/09/2014  23:40:00      -36.480       31.569       -4.554       62.495       18.455       18.546     3905.641      340.586      343.958        0.347        0.230       48.243       27.334        0.321      337.325        9.223      863.892
01/09/2014  23:41:00     -129.849       85.830       -8.376       39.392       65.593       31.947     1551.761     4302.507     1020.601        1.559        0.344      155.652       21.065        0.018      337.348        9.261      863.917
01/09/2014  23:42:00     -137.684      -31.434      -23.074      102.785       64.461       41.517    10564.740     4155.259     1723.632        1.846        0.822      141.227       42.827        0.092      337.723        9.888      863.924
01/09/2014  23:43:00     -183.221      -43.228      -14.276       68.318       40.519       30.258     4667.404     1641.766      915.526        2.143        0.361      188.251       33.983        0.033      337.442        9.418      863.908
01/09/2014  23:44:00     -117.051      -30.702       -2.380       39.488       37.171       22.336     1559.271     1381.654      498.890        0.904        0.172      121.011       20.275        0.028      337.533        9.569      863.919
01/09/2014  23:45:00     -192.523      -92.262        0.214      102.286       80.547       35.311    10462.402     6487.835     1246.832        3.188        0.910      213.489       42.159        0.039      336.947        8.590      863.942
01/09/2014  23:46:00     -181.959      -46.612      -13.029       57.546       47.836       26.029     3311.565     2288.305      677.513        2.086        0.314      187.834       22.902        0.015      336.672        8.130      863.949
01/09/2014  23:47:00     -123.367      -36.609       -9.308       52.141       38.854       18.958     2718.635     1509.661      359.416        1.062        0.229      128.685       21.468        0.028      336.744        8.252      863.934
01/09/2014  23:48:00      -45.446       26.839      -10.297       28.020       39.395       13.020      785.107     1551.989      169.521        0.270        0.125       52.779       13.847        0.069      336.964        8.621      863.910
01/09/2014  23:49:00     -156.229      133.614      -21.524      121.817       45.293       37.755    14839.372     2051.464     1425.426        3.052        0.916      205.573       23.840        0.013      337.582        9.651      863.925
01/09/2014  23:50:00      -99.973       -3.101       -5.728      159.004       85.373       57.690    25282.392     7288.493     3328.143        2.296        1.795      100.021       77.112        0.594      337.894       10.176      863.913
01/09/2014  23:51:00       61.834       63.995        8.940      114.364       64.454       41.479    13079.147     4154.294     1720.477        1.347        0.948       88.988       45.390        0.260      337.881       10.155      863.880
01/09/2014  23:52:00      -20.549       97.782      -13.309       61.926       91.060       30.332     3834.818     8291.949      920.032        1.160        0.652       99.918       41.207        0.170      337.616        9.710      863.896
01/09/2014  23:53:00       40.977      107.785      -18.730       28.837       38.474       25.387      831.592     1480.249      644.519        0.830        0.148      115.311       23.053        0.040      336.835        8.405      863.908
01/09/2014  23:54:00       -0.212       24.048        1.962       60.323       39.914       29.637     3638.825     1593.147      878.329        0.335        0.306       24.049       22.921        0.908      336.560        7.945      863.956
01/09/2014  23:55:00      -99.307       30.360        0.453       36.489       39.298       30.539     1331.441     1544.342      932.652        0.730        0.190      103.844       26.494        0.065      336.549        7.927      863.993
01/09/2014  23:56:00      -49.106      -16.364       10.010       58.138       22.721       26.786     3379.983      516.226      717.508        0.370        0.231       51.761       34.764        0.451      336.506        7.854      863.984
01/09/2014  23:57:00      -18.951      -48.874      -11.792       35.505       34.923       23.508     1260.587     1219.597      552.628        0.296        0.152       52.420       20.839        0.158      336.555        7.936      863.977
01/09/2014  23:58:00     -107.946      -16.779       -6.313       40.973       28.186       18.042     1678.766      794.478      325.505        0.739        0.140      109.242       20.775        0.036      336.416        7.703      864.028
01/09/2014  23:59:00      -56.661        1.264       -5.943       34.782       17.290       13.741     1209.801      298.953      188.822        0.247        0.085       56.675       15.292        0.073      336.242        7.410      864.063
